<?xml version='1.0' encoding='UTF-8'?><gpx version="1.1" creator="JPX - https://github.com/jenetics/jpx" xmlns="http://www.topografix.com/GPX/1/1"><trk><trkseg><trkpt lat="44.22803325377351" lon="11.345825887284262"><ele>581.0</ele><time>2026-05-01T13:55:36.914Z</time></trkpt><trkpt lat="44.228083722254844" lon="11.345912167389283"><ele>581.0</ele><time>2026-05-01T13:56:05.914Z</time></trkpt><trkpt lat="44.2280810107934" lon="11.346034518900309"><ele>581.0</ele><time>2026-05-01T13:56:07.914Z</time></trkpt><trkpt lat="44.22805105337483" lon="11.346118256176846"><ele>581.0</ele><time>2026-05-01T13:56:09.914Z</time></trkpt><trkpt lat="44.22802411957048" lon="11.346231892667552"><ele>581.0</ele><time>2026-05-01T13:56:11.914Z</time></trkpt><trkpt lat="44.22799779775985" lon="11.346382921888248"><ele>581.0</ele><time>2026-05-01T13:56:13.914Z</time></trkpt><trkpt lat="44.22795583049255" lon="11.346456824306927"><ele>578.0</ele><time>2026-05-01T13:56:14.914Z</time></trkpt><trkpt lat="44.22793431743146" lon="11.346553311792647"><ele>575.0</ele><time>2026-05-01T13:56:15.914Z</time></trkpt><trkpt lat="44.227908793315635" lon="11.346667789248077"><ele>572.0</ele><time>2026-05-01T13:56:16.914Z</time></trkpt><trkpt lat="44.22788500847256" lon="11.34678417372805"><ele>569.0</ele><time>2026-05-01T13:56:17.914Z</time></trkpt><trkpt lat="44.22786550749902" lon="11.346904113994379"><ele>566.0</ele><time>2026-05-01T13:56:18.914Z</time></trkpt><trkpt lat="44.227843717524145" lon="11.347012653532206"><ele>563.0</ele><time>2026-05-01T13:56:19.914Z</time></trkpt><trkpt lat="44.22782259259725" lon="11.347115253206438"><ele>563.0</ele><time>2026-05-01T13:56:20.914Z</time></trkpt><trkpt lat="44.227788974652235" lon="11.34720680153991"><ele>563.0</ele><time>2026-05-01T13:56:21.914Z</time></trkpt><trkpt lat="44.227772663752305" lon="11.347298638921748"><ele>563.0</ele><time>2026-05-01T13:56:22.914Z</time></trkpt><trkpt lat="44.227753083967585" lon="11.347390380649745"><ele>563.0</ele><time>2026-05-01T13:56:23.914Z</time></trkpt><trkpt lat="44.22772091486757" lon="11.347485539095558"><ele>563.0</ele><time>2026-05-01T13:56:24.914Z</time></trkpt><trkpt lat="44.22767350042205" lon="11.347564172302361"><ele>563.0</ele><time>2026-05-01T13:56:25.914Z</time></trkpt><trkpt lat="44.2276190627935" lon="11.347611165478392"><ele>563.0</ele><time>2026-05-01T13:56:26.914Z</time></trkpt><trkpt lat="44.227548609722454" lon="11.347631197265278"><ele>560.6</ele><time>2026-05-01T13:56:27.914Z</time></trkpt><trkpt lat="44.227488903255974" lon="11.34756970750614"><ele>558.1999999999999</ele><time>2026-05-01T13:56:28.914Z</time></trkpt><trkpt lat="44.227384938588074" lon="11.347529243845901"><ele>555.8</ele><time>2026-05-01T13:56:29.914Z</time></trkpt><trkpt lat="44.22727387280733" lon="11.347511913812948"><ele>553.4</ele><time>2026-05-01T13:56:30.914Z</time></trkpt><trkpt lat="44.227183093836295" lon="11.347487744068236"><ele>551.0</ele><time>2026-05-01T13:56:31.914Z</time></trkpt><trkpt lat="44.2271002840654" lon="11.347486314395928"><ele>551.0</ele><time>2026-05-01T13:56:32.914Z</time></trkpt><trkpt lat="44.227027255776385" lon="11.347508465170643"><ele>551.0</ele><time>2026-05-01T13:56:33.914Z</time></trkpt><trkpt lat="44.226964041277064" lon="11.347575440993946"><ele>551.0</ele><time>2026-05-01T13:56:34.914Z</time></trkpt><trkpt lat="44.22691349973691" lon="11.347632097717863"><ele>551.0</ele><time>2026-05-01T13:56:35.914Z</time></trkpt><trkpt lat="44.22684199919255" lon="11.347737812092735"><ele>551.0</ele><time>2026-05-01T13:56:37.914Z</time></trkpt><trkpt lat="44.2267945202288" lon="11.347806139194837"><ele>551.0</ele><time>2026-05-01T13:56:39.914Z</time></trkpt><trkpt lat="44.226913303266755" lon="11.348014370645682"><ele>548.4</ele><time>2026-05-01T13:56:41.914Z</time></trkpt><trkpt lat="44.2269677751803" lon="11.348064645919179"><ele>545.8</ele><time>2026-05-01T13:56:42.914Z</time></trkpt><trkpt lat="44.22704391295603" lon="11.348143431729051"><ele>543.1999999999999</ele><time>2026-05-01T13:56:43.914Z</time></trkpt><trkpt lat="44.227129594677535" lon="11.34823997320877"><ele>540.6</ele><time>2026-05-01T13:56:44.914Z</time></trkpt><trkpt lat="44.227218372467675" lon="11.34833474819668"><ele>538.0</ele><time>2026-05-01T13:56:45.914Z</time></trkpt><trkpt lat="44.227325841199885" lon="11.348407097257164"><ele>538.0</ele><time>2026-05-01T13:56:46.914Z</time></trkpt><trkpt lat="44.22744089835662" lon="11.348484328953793"><ele>538.0</ele><time>2026-05-01T13:56:47.914Z</time></trkpt><trkpt lat="44.22755602875533" lon="11.34854809575302"><ele>538.0</ele><time>2026-05-01T13:56:48.914Z</time></trkpt><trkpt lat="44.22767034885611" lon="11.3486034224829"><ele>538.0</ele><time>2026-05-01T13:56:49.914Z</time></trkpt><trkpt lat="44.227772090559924" lon="11.348664640519592"><ele>538.0</ele><time>2026-05-01T13:56:50.914Z</time></trkpt><trkpt lat="44.22785889994106" lon="11.348723273944504"><ele>538.0</ele><time>2026-05-01T13:56:51.914Z</time></trkpt><trkpt lat="44.22791389188031" lon="11.348792792859292"><ele>538.0</ele><time>2026-05-01T13:56:52.914Z</time></trkpt><trkpt lat="44.22794397330103" lon="11.348884733096632"><ele>538.0</ele><time>2026-05-01T13:56:53.914Z</time></trkpt><trkpt lat="44.227931095413524" lon="11.348990364520112"><ele>538.0</ele><time>2026-05-01T13:56:54.914Z</time></trkpt><trkpt lat="44.227884649116646" lon="11.349060790862946"><ele>538.0</ele><time>2026-05-01T13:56:55.914Z</time></trkpt><trkpt lat="44.227821113068494" lon="11.349088140110506"><ele>538.0</ele><time>2026-05-01T13:56:56.914Z</time></trkpt><trkpt lat="44.2277405778916" lon="11.349066502355202"><ele>538.0</ele><time>2026-05-01T13:56:57.914Z</time></trkpt><trkpt lat="44.22765736295279" lon="11.349021499262047"><ele>538.0</ele><time>2026-05-01T13:56:58.914Z</time></trkpt><trkpt lat="44.22755698221873" lon="11.348973374800893"><ele>538.0</ele><time>2026-05-01T13:56:59.914Z</time></trkpt><trkpt lat="44.2274485787079" lon="11.348915731876529"><ele>538.0</ele><time>2026-05-01T13:57:00.915Z</time></trkpt><trkpt lat="44.22733385399344" lon="11.348856061030162"><ele>536.8</ele><time>2026-05-01T13:57:01.914Z</time></trkpt><trkpt lat="44.22722901170924" lon="11.348778764394607"><ele>535.5999999999999</ele><time>2026-05-01T13:57:02.914Z</time></trkpt><trkpt lat="44.227130370576546" lon="11.348724815530916"><ele>534.4000000000001</ele><time>2026-05-01T13:57:03.915Z</time></trkpt><trkpt lat="44.22703491403011" lon="11.348696566146758"><ele>533.2</ele><time>2026-05-01T13:57:04.915Z</time></trkpt><trkpt lat="44.22694700187771" lon="11.348666262217549"><ele>532.0</ele><time>2026-05-01T13:57:05.915Z</time></trkpt><trkpt lat="44.22687216569124" lon="11.348682614489757"><ele>532.0</ele><time>2026-05-01T13:57:06.914Z</time></trkpt><trkpt lat="44.226797136843906" lon="11.348737692619776"><ele>532.0</ele><time>2026-05-01T13:57:07.914Z</time></trkpt><trkpt lat="44.22673310224889" lon="11.348863479894385"><ele>532.0</ele><time>2026-05-01T13:57:08.914Z</time></trkpt><trkpt lat="44.22669628001426" lon="11.349006404915933"><ele>532.0</ele><time>2026-05-01T13:57:09.915Z</time></trkpt><trkpt lat="44.22665883647198" lon="11.349112292237374"><ele>532.0</ele><time>2026-05-01T13:57:10.914Z</time></trkpt><trkpt lat="44.22660510774876" lon="11.349187486003052"><ele>529.8333333333334</ele><time>2026-05-01T13:57:11.914Z</time></trkpt><trkpt lat="44.226540717679384" lon="11.349254025846154"><ele>527.6666666666667</ele><time>2026-05-01T13:57:12.914Z</time></trkpt><trkpt lat="44.22645656993067" lon="11.349244959571053"><ele>525.5</ele><time>2026-05-01T13:57:13.915Z</time></trkpt><trkpt lat="44.226390868720735" lon="11.34918204756185"><ele>523.3333333333334</ele><time>2026-05-01T13:57:14.915Z</time></trkpt><trkpt lat="44.226339176304776" lon="11.349089153081058"><ele>521.1666666666666</ele><time>2026-05-01T13:57:15.915Z</time></trkpt><trkpt lat="44.22630176424734" lon="11.348956872823019"><ele>519.0</ele><time>2026-05-01T13:57:16.915Z</time></trkpt><trkpt lat="44.22626504014172" lon="11.34880819404507"><ele>519.0</ele><time>2026-05-01T13:57:17.915Z</time></trkpt><trkpt lat="44.226207483178705" lon="11.34866883348173"><ele>519.0</ele><time>2026-05-01T13:57:18.915Z</time></trkpt><trkpt lat="44.22613215807999" lon="11.34856262047983"><ele>519.0</ele><time>2026-05-01T13:57:19.915Z</time></trkpt><trkpt lat="44.22604603931007" lon="11.348437498278996"><ele>519.0</ele><time>2026-05-01T13:57:20.915Z</time></trkpt><trkpt lat="44.22592423274795" lon="11.348362513132802"><ele>519.0</ele><time>2026-05-01T13:57:21.915Z</time></trkpt><trkpt lat="44.22577797269628" lon="11.348333051816697"><ele>519.0</ele><time>2026-05-01T13:57:22.915Z</time></trkpt><trkpt lat="44.22563693135503" lon="11.348330282660651"><ele>519.0</ele><time>2026-05-01T13:57:23.915Z</time></trkpt><trkpt lat="44.225506275135054" lon="11.348344082803964"><ele>519.0</ele><time>2026-05-01T13:57:24.915Z</time></trkpt><trkpt lat="44.225385078849264" lon="11.34836737199407"><ele>516.8</ele><time>2026-05-01T13:57:25.915Z</time></trkpt><trkpt lat="44.22527869342653" lon="11.348393719818167"><ele>514.5999999999999</ele><time>2026-05-01T13:57:26.915Z</time></trkpt><trkpt lat="44.225169247156444" lon="11.348428878553642"><ele>512.4</ele><time>2026-05-01T13:57:27.915Z</time></trkpt><trkpt lat="44.22506720354573" lon="11.348472989128934"><ele>510.2</ele><time>2026-05-01T13:57:28.915Z</time></trkpt><trkpt lat="44.22496901027473" lon="11.34850499803146"><ele>508.0</ele><time>2026-05-01T13:57:29.915Z</time></trkpt><trkpt lat="44.224878846971286" lon="11.348542923305043"><ele>503.79999999999995</ele><time>2026-05-01T13:57:30.915Z</time></trkpt><trkpt lat="44.22479488811418" lon="11.34856975764272"><ele>499.59999999999997</ele><time>2026-05-01T13:57:31.915Z</time></trkpt><trkpt lat="44.22472305871132" lon="11.348526873856432"><ele>495.40000000000003</ele><time>2026-05-01T13:57:32.915Z</time></trkpt><trkpt lat="44.224651382397056" lon="11.34843984287697"><ele>491.20000000000005</ele><time>2026-05-01T13:57:33.915Z</time></trkpt><trkpt lat="44.22462071417348" lon="11.348322128035061"><ele>487.0</ele><time>2026-05-01T13:57:34.915Z</time></trkpt><trkpt lat="44.22461975178884" lon="11.348180929681808"><ele>489.5</ele><time>2026-05-01T13:57:35.915Z</time></trkpt><trkpt lat="44.224656812960404" lon="11.348017923758903"><ele>492.0</ele><time>2026-05-01T13:57:36.915Z</time></trkpt><trkpt lat="44.224713917259955" lon="11.347854404360728"><ele>494.5</ele><time>2026-05-01T13:57:37.915Z</time></trkpt><trkpt lat="44.22475155851537" lon="11.347705316532249"><ele>497.0</ele><time>2026-05-01T13:57:38.915Z</time></trkpt><trkpt lat="44.224749743338876" lon="11.347565973263945"><ele>497.0</ele><time>2026-05-01T13:57:39.915Z</time></trkpt><trkpt lat="44.224715643634696" lon="11.347448463492722"><ele>497.00000000000006</ele><time>2026-05-01T13:57:40.915Z</time></trkpt><trkpt lat="44.22466974263171" lon="11.34733474450814"><ele>497.00000000000006</ele><time>2026-05-01T13:57:41.915Z</time></trkpt><trkpt lat="44.22459532305211" lon="11.347235723901365"><ele>497.0</ele><time>2026-05-01T13:57:42.915Z</time></trkpt><trkpt lat="44.22448402934636" lon="11.347167809454124"><ele>497.0</ele><time>2026-05-01T13:57:43.915Z</time></trkpt><trkpt lat="44.22433750247216" lon="11.347160995284607"><ele>497.0</ele><time>2026-05-01T13:57:44.915Z</time></trkpt><trkpt lat="44.22420651975784" lon="11.347190395479634"><ele>497.0</ele><time>2026-05-01T13:57:45.915Z</time></trkpt><trkpt lat="44.22409048345105" lon="11.347245251394757"><ele>497.0</ele><time>2026-05-01T13:57:46.915Z</time></trkpt><trkpt lat="44.223971352072994" lon="11.347272070768382"><ele>497.0</ele><time>2026-05-01T13:57:47.915Z</time></trkpt><trkpt lat="44.223844902041655" lon="11.347321304063522"><ele>496.0</ele><time>2026-05-01T13:57:48.915Z</time></trkpt><trkpt lat="44.22371682614931" lon="11.34733214106702"><ele>495.0</ele><time>2026-05-01T13:57:49.915Z</time></trkpt><trkpt lat="44.223592033073736" lon="11.347351256087844"><ele>494.0</ele><time>2026-05-01T13:57:50.915Z</time></trkpt><trkpt lat="44.223474340784946" lon="11.347371393098554"><ele>493.0</ele><time>2026-05-01T13:57:51.915Z</time></trkpt><trkpt lat="44.22335244601847" lon="11.347396651147417"><ele>493.00000000000006</ele><time>2026-05-01T13:57:52.915Z</time></trkpt><trkpt lat="44.22324096167025" lon="11.347423381211614"><ele>493.0</ele><time>2026-05-01T13:57:53.915Z</time></trkpt><trkpt lat="44.22315514244412" lon="11.3474456186099"><ele>493.0</ele><time>2026-05-01T13:57:54.915Z</time></trkpt><trkpt lat="44.223084706898995" lon="11.347469811194765"><ele>493.0</ele><time>2026-05-01T13:57:55.915Z</time></trkpt><trkpt lat="44.22303012409179" lon="11.34752312071541"><ele>493.00000000000006</ele><time>2026-05-01T13:57:56.915Z</time></trkpt><trkpt lat="44.2229905729572" lon="11.34760700626796"><ele>493.0</ele><time>2026-05-01T13:57:57.915Z</time></trkpt><trkpt lat="44.22295760211124" lon="11.347772735369686"><ele>493.0</ele><time>2026-05-01T13:57:59.915Z</time></trkpt><trkpt lat="44.223047831273966" lon="11.347871481651996"><ele>493.0</ele><time>2026-05-01T13:58:00.915Z</time></trkpt><trkpt lat="44.22316578512362" lon="11.347895071645786"><ele>493.0</ele><time>2026-05-01T13:58:01.915Z</time></trkpt><trkpt lat="44.22327200193503" lon="11.347913076459951"><ele>493.0</ele><time>2026-05-01T13:58:02.915Z</time></trkpt><trkpt lat="44.223389299674764" lon="11.347914135235982"><ele>493.0</ele><time>2026-05-01T13:58:03.915Z</time></trkpt><trkpt lat="44.22351052061256" lon="11.347958543203445"><ele>493.0</ele><time>2026-05-01T13:58:04.915Z</time></trkpt><trkpt lat="44.22363833381654" lon="11.347995228469838"><ele>493.0</ele><time>2026-05-01T13:58:05.915Z</time></trkpt><trkpt lat="44.223764353071275" lon="11.348046837487614"><ele>493.0</ele><time>2026-05-01T13:58:06.915Z</time></trkpt><trkpt lat="44.2238815821792" lon="11.348121173491197"><ele>491.5</ele><time>2026-05-01T13:58:07.915Z</time></trkpt><trkpt lat="44.22398556893439" lon="11.348233956256012"><ele>490.0</ele><time>2026-05-01T13:58:08.915Z</time></trkpt><trkpt lat="44.22407446039176" lon="11.348376250307233"><ele>488.5</ele><time>2026-05-01T13:58:09.915Z</time></trkpt><trkpt lat="44.22414634191254" lon="11.348527223840353"><ele>487.0</ele><time>2026-05-01T13:58:10.915Z</time></trkpt><trkpt lat="44.22420806438428" lon="11.348661732682825"><ele>487.0</ele><time>2026-05-01T13:58:11.915Z</time></trkpt><trkpt lat="44.2242580588133" lon="11.34878898915923"><ele>487.00000000000006</ele><time>2026-05-01T13:58:12.915Z</time></trkpt><trkpt lat="44.22429738031891" lon="11.348929252835678"><ele>487.00000000000006</ele><time>2026-05-01T13:58:13.915Z</time></trkpt><trkpt lat="44.224315632592656" lon="11.349086452764151"><ele>487.0</ele><time>2026-05-01T13:58:14.915Z</time></trkpt><trkpt lat="44.224312991259815" lon="11.349250787583042"><ele>487.0</ele><time>2026-05-01T13:58:15.915Z</time></trkpt><trkpt lat="44.22432587158812" lon="11.349574639842544"><ele>481.0</ele><time>2026-05-01T13:58:17.915Z</time></trkpt><trkpt lat="44.22436365837207" lon="11.349717450161126"><ele>475.0</ele><time>2026-05-01T13:58:18.915Z</time></trkpt><trkpt lat="44.224431562741415" lon="11.349860362884007"><ele>469.0</ele><time>2026-05-01T13:58:19.915Z</time></trkpt><trkpt lat="44.22451738887702" lon="11.350015886387608"><ele>463.0</ele><time>2026-05-01T13:58:20.915Z</time></trkpt><trkpt lat="44.22459633555981" lon="11.35017793962364"><ele>463.0</ele><time>2026-05-01T13:58:21.915Z</time></trkpt><trkpt lat="44.22466885818004" lon="11.350330422542502"><ele>463.0</ele><time>2026-05-01T13:58:22.915Z</time></trkpt><trkpt lat="44.22475880207573" lon="11.350465139611678"><ele>463.0</ele><time>2026-05-01T13:58:23.915Z</time></trkpt><trkpt lat="44.224865858110924" lon="11.350620592996826"><ele>463.0</ele><time>2026-05-01T13:58:24.915Z</time></trkpt><trkpt lat="44.22499370594978" lon="11.350747945896762"><ele>463.33333333333337</ele><time>2026-05-01T13:58:25.915Z</time></trkpt><trkpt lat="44.22512255977394" lon="11.350871512059284"><ele>463.66666666666663</ele><time>2026-05-01T13:58:26.915Z</time></trkpt><trkpt lat="44.22524153066581" lon="11.351002197002881"><ele>464.0</ele><time>2026-05-01T13:58:27.915Z</time></trkpt><trkpt lat="44.22535373652704" lon="11.3511278662705"><ele>464.0</ele><time>2026-05-01T13:58:28.915Z</time></trkpt><trkpt lat="44.225458438504916" lon="11.351274451584477"><ele>464.0</ele><time>2026-05-01T13:58:29.915Z</time></trkpt><trkpt lat="44.22556005655829" lon="11.351424273284401"><ele>464.0</ele><time>2026-05-01T13:58:30.915Z</time></trkpt><trkpt lat="44.22571030902299" lon="11.351783153584655"><ele>462.3333333333333</ele><time>2026-05-01T13:58:32.915Z</time></trkpt><trkpt lat="44.22575375663396" lon="11.35199400220973"><ele>460.66666666666663</ele><time>2026-05-01T13:58:33.915Z</time></trkpt><trkpt lat="44.22578741305886" lon="11.352220006752798"><ele>459.0</ele><time>2026-05-01T13:58:34.915Z</time></trkpt><trkpt lat="44.22581217740334" lon="11.352427550526464"><ele>457.25</ele><time>2026-05-01T13:58:35.915Z</time></trkpt><trkpt lat="44.2258367824007" lon="11.352619833707285"><ele>455.5</ele><time>2026-05-01T13:58:36.915Z</time></trkpt><trkpt lat="44.2258560432777" lon="11.352796138121166"><ele>453.75</ele><time>2026-05-01T13:58:37.915Z</time></trkpt><trkpt lat="44.22584886033124" lon="11.352957565105285"><ele>452.0</ele><time>2026-05-01T13:58:38.915Z</time></trkpt><trkpt lat="44.22581216155448" lon="11.353110007902012"><ele>451.20000000000005</ele><time>2026-05-01T13:58:39.915Z</time></trkpt><trkpt lat="44.22575581760952" lon="11.353245838388398"><ele>450.40000000000003</ele><time>2026-05-01T13:58:40.915Z</time></trkpt><trkpt lat="44.22569621142901" lon="11.353370761311927"><ele>449.59999999999997</ele><time>2026-05-01T13:58:41.915Z</time></trkpt><trkpt lat="44.22565352150935" lon="11.353487917309895"><ele>448.79999999999995</ele><time>2026-05-01T13:58:42.915Z</time></trkpt><trkpt lat="44.225643976644" lon="11.353608718613886"><ele>448.0</ele><time>2026-05-01T13:58:43.915Z</time></trkpt><trkpt lat="44.22566032989619" lon="11.353721347654233"><ele>448.0</ele><time>2026-05-01T13:58:44.915Z</time></trkpt><trkpt lat="44.22570114375172" lon="11.35382674860736"><ele>447.99999999999994</ele><time>2026-05-01T13:58:45.915Z</time></trkpt><trkpt lat="44.22574755566247" lon="11.353953808096525"><ele>447.99999999999994</ele><time>2026-05-01T13:58:46.915Z</time></trkpt><trkpt lat="44.225812040793706" lon="11.354023558537955"><ele>448.0</ele><time>2026-05-01T13:58:47.915Z</time></trkpt><trkpt lat="44.22583607762123" lon="11.354120323088244"><ele>448.0</ele><time>2026-05-01T13:58:48.915Z</time></trkpt><trkpt lat="44.22579045110434" lon="11.354267119891697"><ele>446.2</ele><time>2026-05-01T13:58:50.915Z</time></trkpt><trkpt lat="44.22572709193457" lon="11.354275321933276"><ele>444.4</ele><time>2026-05-01T13:58:51.915Z</time></trkpt><trkpt lat="44.22564604789937" lon="11.354231473441715"><ele>442.59999999999997</ele><time>2026-05-01T13:58:52.915Z</time></trkpt><trkpt lat="44.22555770078323" lon="11.354147398607662"><ele>440.79999999999995</ele><time>2026-05-01T13:58:53.915Z</time></trkpt><trkpt lat="44.225480859476356" lon="11.35404711884632"><ele>439.0</ele><time>2026-05-01T13:58:54.915Z</time></trkpt><trkpt lat="44.22541212958881" lon="11.3539075406992"><ele>437.0</ele><time>2026-05-01T13:58:55.915Z</time></trkpt><trkpt lat="44.22535004541557" lon="11.353746309357177"><ele>435.0</ele><time>2026-05-01T13:58:56.915Z</time></trkpt><trkpt lat="44.22523659416645" lon="11.3535935146501"><ele>433.0</ele><time>2026-05-01T13:58:57.915Z</time></trkpt><trkpt lat="44.225093606112445" lon="11.353453389244853"><ele>433.0</ele><time>2026-05-01T13:58:58.915Z</time></trkpt><trkpt lat="44.224953829776226" lon="11.353314928369844"><ele>433.0</ele><time>2026-05-01T13:58:59.915Z</time></trkpt><trkpt lat="44.224826263736404" lon="11.353187158127325"><ele>433.0</ele><time>2026-05-01T13:59:00.915Z</time></trkpt><trkpt lat="44.224700501302316" lon="11.353088505049215"><ele>431.2</ele><time>2026-05-01T13:59:01.915Z</time></trkpt><trkpt lat="44.22460294364123" lon="11.35298872359154"><ele>429.4</ele><time>2026-05-01T13:59:02.915Z</time></trkpt><trkpt lat="44.22451031920894" lon="11.352897393150537"><ele>427.59999999999997</ele><time>2026-05-01T13:59:03.915Z</time></trkpt><trkpt lat="44.22443656008079" lon="11.352805818042471"><ele>425.79999999999995</ele><time>2026-05-01T13:59:04.915Z</time></trkpt><trkpt lat="44.224355309045414" lon="11.352758894619031"><ele>424.0</ele><time>2026-05-01T13:59:05.915Z</time></trkpt><trkpt lat="44.22427150554654" lon="11.3527577599064"><ele>424.0</ele><time>2026-05-01T13:59:06.914Z</time></trkpt><trkpt lat="44.224196326709105" lon="11.352804507583379"><ele>424.0</ele><time>2026-05-01T13:59:07.914Z</time></trkpt><trkpt lat="44.224130108350394" lon="11.352890548511333"><ele>424.0</ele><time>2026-05-01T13:59:08.914Z</time></trkpt><trkpt lat="44.22406509822119" lon="11.352981273049103"><ele>424.0</ele><time>2026-05-01T13:59:09.915Z</time></trkpt><trkpt lat="44.223994397250976" lon="11.353070640082986"><ele>424.0</ele><time>2026-05-01T13:59:10.914Z</time></trkpt><trkpt lat="44.22391497645324" lon="11.353138137059013"><ele>424.6666666666667</ele><time>2026-05-01T13:59:11.914Z</time></trkpt><trkpt lat="44.22382980189825" lon="11.353193609304348"><ele>425.33333333333337</ele><time>2026-05-01T13:59:12.915Z</time></trkpt><trkpt lat="44.22374726698509" lon="11.353161049480322"><ele>426.0</ele><time>2026-05-01T13:59:13.915Z</time></trkpt><trkpt lat="44.223668208393505" lon="11.353138425785115"><ele>426.66666666666663</ele><time>2026-05-01T13:59:14.915Z</time></trkpt><trkpt lat="44.22360586705097" lon="11.353073976069416"><ele>427.3333333333333</ele><time>2026-05-01T13:59:15.914Z</time></trkpt><trkpt lat="44.223546839943005" lon="11.35299766496483"><ele>428.0</ele><time>2026-05-01T13:59:16.914Z</time></trkpt><trkpt lat="44.223494084031024" lon="11.352909958381879"><ele>428.0</ele><time>2026-05-01T13:59:17.914Z</time></trkpt><trkpt lat="44.22343641649283" lon="11.352811184275842"><ele>427.99999999999994</ele><time>2026-05-01T13:59:18.914Z</time></trkpt><trkpt lat="44.22336358710379" lon="11.352710998563188"><ele>427.99999999999994</ele><time>2026-05-01T13:59:19.914Z</time></trkpt><trkpt lat="44.22327593343535" lon="11.35259968019021"><ele>428.0</ele><time>2026-05-01T13:59:20.914Z</time></trkpt><trkpt lat="44.22319838015278" lon="11.352485372495002"><ele>428.0</ele><time>2026-05-01T13:59:21.914Z</time></trkpt><trkpt lat="44.22312086664458" lon="11.352384318672659"><ele>430.0</ele><time>2026-05-01T13:59:22.914Z</time></trkpt><trkpt lat="44.223031035776955" lon="11.352306373052723"><ele>431.99999999999994</ele><time>2026-05-01T13:59:23.914Z</time></trkpt><trkpt lat="44.22293512317855" lon="11.352249790725812"><ele>433.99999999999994</ele><time>2026-05-01T13:59:24.914Z</time></trkpt><trkpt lat="44.22283116845643" lon="11.352209538254286"><ele>436.0</ele><time>2026-05-01T13:59:25.914Z</time></trkpt><trkpt lat="44.222728372284294" lon="11.352172958997654"><ele>438.0</ele><time>2026-05-01T13:59:26.914Z</time></trkpt><trkpt lat="44.22263151887189" lon="11.352129903895074"><ele>438.0</ele><time>2026-05-01T13:59:27.914Z</time></trkpt><trkpt lat="44.22253441097398" lon="11.352080176504053"><ele>437.99999999999994</ele><time>2026-05-01T13:59:28.914Z</time></trkpt><trkpt lat="44.22245085151083" lon="11.352006690415202"><ele>437.99999999999994</ele><time>2026-05-01T13:59:29.914Z</time></trkpt><trkpt lat="44.222375358219836" lon="11.351894910382532"><ele>438.0</ele><time>2026-05-01T13:59:30.914Z</time></trkpt><trkpt lat="44.22233693697725" lon="11.351758298355362"><ele>438.0</ele><time>2026-05-01T13:59:31.914Z</time></trkpt><trkpt lat="44.22230325018788" lon="11.351611915730528"><ele>438.2</ele><time>2026-05-01T13:59:32.914Z</time></trkpt><trkpt lat="44.22227370633027" lon="11.351462257042282"><ele>438.4</ele><time>2026-05-01T13:59:33.914Z</time></trkpt><trkpt lat="44.22226263405905" lon="11.351338846431098"><ele>438.59999999999997</ele><time>2026-05-01T13:59:34.914Z</time></trkpt><trkpt lat="44.22224893768085" lon="11.35123488312726"><ele>438.79999999999995</ele><time>2026-05-01T13:59:35.914Z</time></trkpt><trkpt lat="44.22217099149171" lon="11.351114114715164"><ele>439.0</ele><time>2026-05-01T13:59:37.914Z</time></trkpt><trkpt lat="44.22206223628319" lon="11.351121365500028"><ele>439.0</ele><time>2026-05-01T13:59:39.914Z</time></trkpt><trkpt lat="44.22202367691595" lon="11.351219442383153"><ele>439.0</ele><time>2026-05-01T13:59:40.914Z</time></trkpt><trkpt lat="44.222044962074186" lon="11.351357605972664"><ele>439.0</ele><time>2026-05-01T13:59:41.914Z</time></trkpt><trkpt lat="44.222028454744006" lon="11.351509455003336"><ele>439.0</ele><time>2026-05-01T13:59:42.914Z</time></trkpt><trkpt lat="44.22200928764119" lon="11.35167208952824"><ele>439.0</ele><time>2026-05-01T13:59:43.914Z</time></trkpt><trkpt lat="44.221998147593325" lon="11.35184202334662"><ele>442.2</ele><time>2026-05-01T13:59:44.914Z</time></trkpt><trkpt lat="44.222027439624426" lon="11.352018914580926"><ele>445.4</ele><time>2026-05-01T13:59:45.914Z</time></trkpt><trkpt lat="44.22208670474126" lon="11.352155798990013"><ele>448.6</ele><time>2026-05-01T13:59:46.914Z</time></trkpt><trkpt lat="44.222109976549575" lon="11.352280863923353"><ele>451.8</ele><time>2026-05-01T13:59:47.914Z</time></trkpt><trkpt lat="44.22213089450436" lon="11.352401730202319"><ele>455.0</ele><time>2026-05-01T13:59:48.914Z</time></trkpt><trkpt lat="44.222153531142325" lon="11.352522823333263"><ele>456.49999999999994</ele><time>2026-05-01T13:59:49.914Z</time></trkpt><trkpt lat="44.222130134623974" lon="11.352634845614295"><ele>458.0</ele><time>2026-05-01T13:59:50.914Z</time></trkpt><trkpt lat="44.22211903270495" lon="11.35275339154729"><ele>459.5</ele><time>2026-05-01T13:59:51.914Z</time></trkpt><trkpt lat="44.22210831935464" lon="11.352878330100058"><ele>461.0</ele><time>2026-05-01T13:59:52.914Z</time></trkpt><trkpt lat="44.22210779221801" lon="11.352986565651877"><ele>462.49999999999994</ele><time>2026-05-01T13:59:53.914Z</time></trkpt><trkpt lat="44.22211896806586" lon="11.35310005884413"><ele>464.0</ele><time>2026-05-01T13:59:55.914Z</time></trkpt><trkpt lat="44.22198810458249" lon="11.353069487811355"><ele>463.99999999999994</ele><time>2026-05-01T14:00:26.914Z</time></trkpt><trkpt lat="44.22196348530559" lon="11.352969129833534"><ele>464.0</ele><time>2026-05-01T14:00:27.914Z</time></trkpt><trkpt lat="44.22192914110582" lon="11.352873363395334"><ele>464.0</ele><time>2026-05-01T14:00:28.914Z</time></trkpt><trkpt lat="44.22190117982979" lon="11.3527639645695"><ele>464.0</ele><time>2026-05-01T14:00:29.914Z</time></trkpt><trkpt lat="44.22186067463407" lon="11.35263123029262"><ele>463.99999999999994</ele><time>2026-05-01T14:00:30.914Z</time></trkpt><trkpt lat="44.22182082206481" lon="11.352495137123345"><ele>464.0</ele><time>2026-05-01T14:00:31.914Z</time></trkpt><trkpt lat="44.22177951095278" lon="11.352369333581894"><ele>464.0</ele><time>2026-05-01T14:00:32.914Z</time></trkpt><trkpt lat="44.22171924048245" lon="11.3522547343937"><ele>464.0</ele><time>2026-05-01T14:00:33.914Z</time></trkpt><trkpt lat="44.22163918095022" lon="11.352167187006382"><ele>464.0</ele><time>2026-05-01T14:00:34.914Z</time></trkpt><trkpt lat="44.22154024040618" lon="11.352128964290605"><ele>464.0</ele><time>2026-05-01T14:00:35.914Z</time></trkpt><trkpt lat="44.22145120970039" lon="11.352093267332474"><ele>464.0</ele><time>2026-05-01T14:00:36.914Z</time></trkpt><trkpt lat="44.22134582012965" lon="11.352155300948983"><ele>463.6</ele><time>2026-05-01T14:00:37.914Z</time></trkpt><trkpt lat="44.2212356452673" lon="11.352202139290247"><ele>463.2</ele><time>2026-05-01T14:00:38.914Z</time></trkpt><trkpt lat="44.221144464841586" lon="11.352237105125324"><ele>462.80000000000007</ele><time>2026-05-01T14:00:39.914Z</time></trkpt><trkpt lat="44.2210743090205" lon="11.352266408139364"><ele>462.40000000000003</ele><time>2026-05-01T14:00:40.914Z</time></trkpt><trkpt lat="44.22099354187058" lon="11.352287528952251"><ele>462.0</ele><time>2026-05-01T14:00:42.914Z</time></trkpt><trkpt lat="44.22108933017903" lon="11.35224517332996"><ele>462.0</ele><time>2026-05-01T14:00:54.914Z</time></trkpt><trkpt lat="44.22116300030566" lon="11.352210541097215"><ele>462.00000000000006</ele><time>2026-05-01T14:00:55.914Z</time></trkpt><trkpt lat="44.22124196273097" lon="11.352175015445665"><ele>462.00000000000006</ele><time>2026-05-01T14:00:56.914Z</time></trkpt><trkpt lat="44.221305184967605" lon="11.352146607093546"><ele>462.0</ele><time>2026-05-01T14:00:57.914Z</time></trkpt><trkpt lat="44.22137395158742" lon="11.3521242796942"><ele>462.0</ele><time>2026-05-01T14:00:58.914Z</time></trkpt><trkpt lat="44.22151505874133" lon="11.35246715850322"><ele>462.40000000000003</ele><time>2026-05-01T14:00:59.914Z</time></trkpt><trkpt lat="44.22156649946659" lon="11.352625965645144"><ele>462.80000000000007</ele><time>2026-05-01T14:01:00.914Z</time></trkpt><trkpt lat="44.2215679831231" lon="11.352750267425263"><ele>463.2</ele><time>2026-05-01T14:01:01.914Z</time></trkpt><trkpt lat="44.221542970331754" lon="11.352889201072852"><ele>463.6</ele><time>2026-05-01T14:01:02.914Z</time></trkpt><trkpt lat="44.22151748522736" lon="11.353027519800053"><ele>464.0</ele><time>2026-05-01T14:01:03.914Z</time></trkpt><trkpt lat="44.22151925615989" lon="11.353183272682278"><ele>466.0</ele><time>2026-05-01T14:01:04.914Z</time></trkpt><trkpt lat="44.221548466591116" lon="11.353356683120571"><ele>468.0</ele><time>2026-05-01T14:01:05.914Z</time></trkpt><trkpt lat="44.221600721266874" lon="11.353538465812687"><ele>470.0</ele><time>2026-05-01T14:01:06.914Z</time></trkpt><trkpt lat="44.22165515202497" lon="11.3537318263842"><ele>472.0</ele><time>2026-05-01T14:01:07.914Z</time></trkpt><trkpt lat="44.22169551099131" lon="11.353919204049122"><ele>474.25</ele><time>2026-05-01T14:01:08.914Z</time></trkpt><trkpt lat="44.22175338322907" lon="11.354098318704288"><ele>476.5</ele><time>2026-05-01T14:01:09.914Z</time></trkpt><trkpt lat="44.22179385444149" lon="11.354272412330255"><ele>478.75</ele><time>2026-05-01T14:01:10.914Z</time></trkpt><trkpt lat="44.2218442393975" lon="11.354407658737172"><ele>481.0</ele><time>2026-05-01T14:01:11.914Z</time></trkpt><trkpt lat="44.22191629597069" lon="11.3545213273799"><ele>481.0</ele><time>2026-05-01T14:01:12.913Z</time></trkpt><trkpt lat="44.22198097074248" lon="11.354624421480127"><ele>481.0</ele><time>2026-05-01T14:01:13.913Z</time></trkpt><trkpt lat="44.22201791068472" lon="11.354743222048056"><ele>481.0</ele><time>2026-05-01T14:01:15.914Z</time></trkpt><trkpt lat="44.221944765837826" lon="11.354800499928535"><ele>481.0</ele><time>2026-05-01T14:01:17.914Z</time></trkpt><trkpt lat="44.22182982608907" lon="11.354687720947576"><ele>481.0</ele><time>2026-05-01T14:01:19.913Z</time></trkpt><trkpt lat="44.22177254946863" lon="11.354589646023504"><ele>481.0</ele><time>2026-05-01T14:01:20.913Z</time></trkpt><trkpt lat="44.22168721485865" lon="11.354499794141534"><ele>481.0</ele><time>2026-05-01T14:01:21.914Z</time></trkpt><trkpt lat="44.22158073595047" lon="11.35443130014775"><ele>481.0</ele><time>2026-05-01T14:01:22.913Z</time></trkpt><trkpt lat="44.221447936833606" lon="11.354368051676026"><ele>481.0</ele><time>2026-05-01T14:01:23.913Z</time></trkpt><trkpt lat="44.221311474734414" lon="11.354301649235552"><ele>485.0</ele><time>2026-05-01T14:01:24.914Z</time></trkpt><trkpt lat="44.22118071288613" lon="11.354202728547655"><ele>489.0</ele><time>2026-05-01T14:01:25.913Z</time></trkpt><trkpt lat="44.22103901871735" lon="11.354122005494583"><ele>493.0</ele><time>2026-05-01T14:01:26.913Z</time></trkpt><trkpt lat="44.22089713852788" lon="11.354043454813933"><ele>493.0</ele><time>2026-05-01T14:01:27.913Z</time></trkpt><trkpt lat="44.22074556540389" lon="11.353952533384305"><ele>493.0</ele><time>2026-05-01T14:01:28.913Z</time></trkpt><trkpt lat="44.22057117767792" lon="11.353850013945724"><ele>493.0</ele><time>2026-05-01T14:01:29.913Z</time></trkpt><trkpt lat="44.220416344752174" lon="11.353764430743233"><ele>493.59999999999997</ele><time>2026-05-01T14:01:30.913Z</time></trkpt><trkpt lat="44.220289427991936" lon="11.353702276605281"><ele>494.19999999999993</ele><time>2026-05-01T14:01:31.913Z</time></trkpt><trkpt lat="44.220176254503535" lon="11.353651750979255"><ele>494.8</ele><time>2026-05-01T14:01:32.913Z</time></trkpt><trkpt lat="44.22010147577023" lon="11.353612647466846"><ele>495.4</ele><time>2026-05-01T14:01:33.913Z</time></trkpt><trkpt lat="44.22000480968165" lon="11.353584104964552"><ele>496.0</ele><time>2026-05-01T14:01:35.913Z</time></trkpt><trkpt lat="44.21994043217943" lon="11.353623008284764"><ele>496.0</ele><time>2026-05-01T14:01:36.913Z</time></trkpt><trkpt lat="44.2198974521254" lon="11.35376989053144"><ele>496.0</ele><time>2026-05-01T14:01:37.913Z</time></trkpt><trkpt lat="44.21996988122432" lon="11.353935408259492"><ele>496.0</ele><time>2026-05-01T14:01:38.913Z</time></trkpt><trkpt lat="44.22006565933267" lon="11.3540091109354"><ele>496.0</ele><time>2026-05-01T14:01:39.913Z</time></trkpt><trkpt lat="44.22016511310468" lon="11.354057671911272"><ele>500.0</ele><time>2026-05-01T14:01:40.913Z</time></trkpt><trkpt lat="44.22025046308583" lon="11.35410962892376"><ele>504.0</ele><time>2026-05-01T14:01:41.913Z</time></trkpt><trkpt lat="44.220342906302065" lon="11.354195400140346"><ele>508.0</ele><time>2026-05-01T14:01:42.913Z</time></trkpt><trkpt lat="44.22042602833648" lon="11.354312426234806"><ele>512.0</ele><time>2026-05-01T14:01:43.913Z</time></trkpt><trkpt lat="44.22048372060792" lon="11.35444915103783"><ele>516.0</ele><time>2026-05-01T14:01:44.913Z</time></trkpt><trkpt lat="44.22052865009228" lon="11.354609137074906"><ele>518.25</ele><time>2026-05-01T14:01:45.913Z</time></trkpt><trkpt lat="44.2205629388071" lon="11.354793112660523"><ele>520.5</ele><time>2026-05-01T14:01:46.913Z</time></trkpt><trkpt lat="44.22058956274771" lon="11.35498802228568"><ele>522.75</ele><time>2026-05-01T14:01:47.913Z</time></trkpt><trkpt lat="44.22061306860127" lon="11.355193088261162"><ele>525.0</ele><time>2026-05-01T14:01:48.913Z</time></trkpt><trkpt lat="44.220654391204846" lon="11.35538402546421"><ele>524.25</ele><time>2026-05-01T14:01:49.913Z</time></trkpt><trkpt lat="44.220709189682886" lon="11.355564802743993"><ele>523.5</ele><time>2026-05-01T14:01:50.913Z</time></trkpt><trkpt lat="44.22076975378007" lon="11.355719986529335"><ele>522.75</ele><time>2026-05-01T14:01:51.913Z</time></trkpt><trkpt lat="44.22084076784243" lon="11.355838867389668"><ele>522.0</ele><time>2026-05-01T14:01:52.913Z</time></trkpt><trkpt lat="44.22095136819191" lon="11.355924297152786"><ele>522.0</ele><time>2026-05-01T14:01:53.913Z</time></trkpt><trkpt lat="44.221031729542325" lon="11.35603614792696"><ele>522.0</ele><time>2026-05-01T14:01:54.913Z</time></trkpt><trkpt lat="44.221122874809204" lon="11.356136755015406"><ele>522.0</ele><time>2026-05-01T14:01:55.913Z</time></trkpt><trkpt lat="44.22120114151215" lon="11.35623312363879"><ele>522.0</ele><time>2026-05-01T14:01:56.913Z</time></trkpt><trkpt lat="44.2212310595245" lon="11.356356134608012"><ele>522.0</ele><time>2026-05-01T14:01:57.913Z</time></trkpt><trkpt lat="44.22125655461839" lon="11.356481457321776"><ele>524.5</ele><time>2026-05-01T14:01:58.913Z</time></trkpt><trkpt lat="44.22125085219331" lon="11.356625154639469"><ele>527.0</ele><time>2026-05-01T14:01:59.913Z</time></trkpt><trkpt lat="44.22120875907891" lon="11.356777201514957"><ele>529.5</ele><time>2026-05-01T14:02:00.913Z</time></trkpt><trkpt lat="44.22116592430648" lon="11.356932208834031"><ele>532.0</ele><time>2026-05-01T14:02:01.913Z</time></trkpt><trkpt lat="44.22114561308054" lon="11.357090235498896"><ele>532.8333333333334</ele><time>2026-05-01T14:02:02.913Z</time></trkpt><trkpt lat="44.221134709230185" lon="11.35722578372101"><ele>533.6666666666667</ele><time>2026-05-01T14:02:03.913Z</time></trkpt><trkpt lat="44.221151116010695" lon="11.357336997357633"><ele>534.5</ele><time>2026-05-01T14:02:04.913Z</time></trkpt><trkpt lat="44.2211913820446" lon="11.357422201698434"><ele>535.3333333333334</ele><time>2026-05-01T14:02:05.913Z</time></trkpt><trkpt lat="44.22123917704683" lon="11.357508037836125"><ele>536.1666666666666</ele><time>2026-05-01T14:02:06.913Z</time></trkpt><trkpt lat="44.221287582073515" lon="11.357633903424553"><ele>537.0</ele><time>2026-05-01T14:02:07.913Z</time></trkpt><trkpt lat="44.22131382035276" lon="11.357773813286913"><ele>537.0</ele><time>2026-05-01T14:02:08.913Z</time></trkpt><trkpt lat="44.221302635257594" lon="11.35792287218146"><ele>537.0</ele><time>2026-05-01T14:02:09.913Z</time></trkpt><trkpt lat="44.22125031606981" lon="11.358062775878134"><ele>537.0</ele><time>2026-05-01T14:02:10.913Z</time></trkpt><trkpt lat="44.22120330092991" lon="11.358233389171923"><ele>537.0</ele><time>2026-05-01T14:02:11.913Z</time></trkpt><trkpt lat="44.22115074325294" lon="11.358400552929487"><ele>540.0</ele><time>2026-05-01T14:02:12.913Z</time></trkpt><trkpt lat="44.22109240284674" lon="11.358593500581785"><ele>543.0</ele><time>2026-05-01T14:02:13.913Z</time></trkpt><trkpt lat="44.22103609219143" lon="11.358786653018951"><ele>546.0</ele><time>2026-05-01T14:02:14.913Z</time></trkpt><trkpt lat="44.22098455529007" lon="11.358985163815548"><ele>546.6666666666666</ele><time>2026-05-01T14:02:15.913Z</time></trkpt><trkpt lat="44.220930103252584" lon="11.359195322805142"><ele>547.3333333333333</ele><time>2026-05-01T14:02:16.913Z</time></trkpt><trkpt lat="44.220874177105905" lon="11.359407958750849"><ele>548.0</ele><time>2026-05-01T14:02:17.913Z</time></trkpt><trkpt lat="44.220808152430045" lon="11.359617068056437"><ele>548.1999999999999</ele><time>2026-05-01T14:02:18.913Z</time></trkpt><trkpt lat="44.22075860616224" lon="11.359794208784955"><ele>548.4</ele><time>2026-05-01T14:02:19.913Z</time></trkpt><trkpt lat="44.22072577837784" lon="11.359941735271304"><ele>548.5999999999999</ele><time>2026-05-01T14:02:20.913Z</time></trkpt><trkpt lat="44.22069579110152" lon="11.360062329565743"><ele>548.8</ele><time>2026-05-01T14:02:21.913Z</time></trkpt><trkpt lat="44.22065274113576" lon="11.360175651915682"><ele>549.0</ele><time>2026-05-01T14:02:22.913Z</time></trkpt><trkpt lat="44.2205978374895" lon="11.360292453515402"><ele>551.75</ele><time>2026-05-01T14:02:23.913Z</time></trkpt><trkpt lat="44.2205223491329" lon="11.36041114178491"><ele>554.5</ele><time>2026-05-01T14:02:24.913Z</time></trkpt><trkpt lat="44.220425409724974" lon="11.360540975093532"><ele>557.25</ele><time>2026-05-01T14:02:25.913Z</time></trkpt><trkpt lat="44.220307043270026" lon="11.36066894230105"><ele>560.0</ele><time>2026-05-01T14:02:26.913Z</time></trkpt><trkpt lat="44.220186883697586" lon="11.360812390317111"><ele>560.0</ele><time>2026-05-01T14:02:27.913Z</time></trkpt><trkpt lat="44.22005997122829" lon="11.360939579621245"><ele>560.0</ele><time>2026-05-01T14:02:28.913Z</time></trkpt><trkpt lat="44.21995628903782" lon="11.361057089619207"><ele>560.0</ele><time>2026-05-01T14:02:29.913Z</time></trkpt><trkpt lat="44.219851710052914" lon="11.361171940187045"><ele>560.0</ele><time>2026-05-01T14:02:30.913Z</time></trkpt><trkpt lat="44.219739724917204" lon="11.361301116696795"><ele>560.75</ele><time>2026-05-01T14:02:31.913Z</time></trkpt><trkpt lat="44.219616676734134" lon="11.361420540382728"><ele>561.5</ele><time>2026-05-01T14:02:32.913Z</time></trkpt><trkpt lat="44.219520477999154" lon="11.361571616961214"><ele>562.25</ele><time>2026-05-01T14:02:33.913Z</time></trkpt><trkpt lat="44.21941692656672" lon="11.361706358261223"><ele>563.0</ele><time>2026-05-01T14:02:34.913Z</time></trkpt><trkpt lat="44.2193173366229" lon="11.361827234424652"><ele>563.0</ele><time>2026-05-01T14:02:35.913Z</time></trkpt><trkpt lat="44.219235323032024" lon="11.3619553834255"><ele>563.0</ele><time>2026-05-01T14:02:36.913Z</time></trkpt><trkpt lat="44.21916278651733" lon="11.362086512848498"><ele>563.0</ele><time>2026-05-01T14:02:37.912Z</time></trkpt><trkpt lat="44.219117834402184" lon="11.36220370071668"><ele>563.0</ele><time>2026-05-01T14:02:38.911Z</time></trkpt><trkpt lat="44.219101894446744" lon="11.362345375420297"><ele>563.0</ele><time>2026-05-01T14:02:39.91Z</time></trkpt><trkpt lat="44.21911450082382" lon="11.36250618266692"><ele>561.0</ele><time>2026-05-01T14:02:40.909Z</time></trkpt><trkpt lat="44.21913485131587" lon="11.362712817129607"><ele>559.0</ele><time>2026-05-01T14:02:41.908Z</time></trkpt><trkpt lat="44.21914104562751" lon="11.362943214408634"><ele>557.0</ele><time>2026-05-01T14:02:42.907Z</time></trkpt><trkpt lat="44.21913677222548" lon="11.363183089499724"><ele>557.0</ele><time>2026-05-01T14:02:43.906Z</time></trkpt><trkpt lat="44.219104553312846" lon="11.36341750559858"><ele>557.0</ele><time>2026-05-01T14:02:44.905Z</time></trkpt><trkpt lat="44.21907194409388" lon="11.363622603120287"><ele>557.0</ele><time>2026-05-01T14:02:45.904Z</time></trkpt><trkpt lat="44.21906756675853" lon="11.36380425287068"><ele>557.4</ele><time>2026-05-01T14:02:46.903Z</time></trkpt><trkpt lat="44.219053536749385" lon="11.363948249089486"><ele>557.8000000000001</ele><time>2026-05-01T14:02:47.903Z</time></trkpt><trkpt lat="44.21906013723546" lon="11.364078820686002"><ele>558.2</ele><time>2026-05-01T14:02:48.902Z</time></trkpt><trkpt lat="44.21908822759888" lon="11.364186761996788"><ele>558.6</ele><time>2026-05-01T14:02:49.901Z</time></trkpt><trkpt lat="44.21915242571741" lon="11.364283908749146"><ele>559.0</ele><time>2026-05-01T14:02:50.901Z</time></trkpt><trkpt lat="44.21926887660837" lon="11.364327126386206"><ele>559.0</ele><time>2026-05-01T14:02:51.9Z</time></trkpt><trkpt lat="44.21935335292388" lon="11.36442504420415"><ele>559.0</ele><time>2026-05-01T14:02:52.9Z</time></trkpt><trkpt lat="44.219412657978125" lon="11.364473197352837"><ele>559.0</ele><time>2026-05-01T14:02:53.899Z</time></trkpt><trkpt lat="44.219443076213366" lon="11.36455512825746"><ele>559.0</ele><time>2026-05-01T14:02:54.899Z</time></trkpt><trkpt lat="44.21939208300737" lon="11.364739308939445"><ele>559.0</ele><time>2026-05-01T14:02:56.898Z</time></trkpt><trkpt lat="44.219348822855686" lon="11.364846540794852"><ele>561.25</ele><time>2026-05-01T14:02:57.898Z</time></trkpt><trkpt lat="44.21929352431307" lon="11.36497368831729"><ele>563.5</ele><time>2026-05-01T14:02:58.897Z</time></trkpt><trkpt lat="44.21923023879494" lon="11.36511907102903"><ele>565.75</ele><time>2026-05-01T14:02:59.897Z</time></trkpt><trkpt lat="44.21917343322465" lon="11.36526084252753"><ele>568.0</ele><time>2026-05-01T14:03:00.897Z</time></trkpt><trkpt lat="44.219120919442965" lon="11.36542148731099"><ele>569.0</ele><time>2026-05-01T14:03:01.896Z</time></trkpt><trkpt lat="44.21905222449971" lon="11.365596893753455"><ele>570.0</ele><time>2026-05-01T14:03:02.896Z</time></trkpt><trkpt lat="44.21899296461611" lon="11.365752717426618"><ele>571.0</ele><time>2026-05-01T14:03:03.896Z</time></trkpt><trkpt lat="44.218928001561466" lon="11.365858141214586"><ele>572.0</ele><time>2026-05-01T14:03:04.896Z</time></trkpt><trkpt lat="44.21886296980584" lon="11.365962134784004"><ele>574.4</ele><time>2026-05-01T14:03:05.895Z</time></trkpt><trkpt lat="44.218778592112464" lon="11.366034014114813"><ele>576.8000000000001</ele><time>2026-05-01T14:03:06.895Z</time></trkpt><trkpt lat="44.21867779009183" lon="11.366079196207107"><ele>579.2</ele><time>2026-05-01T14:03:07.895Z</time></trkpt><trkpt lat="44.21856868632535" lon="11.36608215719319"><ele>581.6</ele><time>2026-05-01T14:03:08.895Z</time></trkpt><trkpt lat="44.21844103438488" lon="11.366077383489564"><ele>584.0</ele><time>2026-05-01T14:03:09.895Z</time></trkpt><trkpt lat="44.21829643882636" lon="11.366066025503946"><ele>587.0</ele><time>2026-05-01T14:03:10.894Z</time></trkpt><trkpt lat="44.21810833450639" lon="11.3660636516944"><ele>590.0</ele><time>2026-05-01T14:03:11.894Z</time></trkpt><trkpt lat="44.2179724819462" lon="11.36609515460219"><ele>593.0</ele><time>2026-05-01T14:03:12.894Z</time></trkpt><trkpt lat="44.217852614649516" lon="11.366139778805566"><ele>593.0</ele><time>2026-05-01T14:03:13.894Z</time></trkpt><trkpt lat="44.21770765840942" lon="11.36619632635248"><ele>593.0</ele><time>2026-05-01T14:03:14.894Z</time></trkpt><trkpt lat="44.21755091736875" lon="11.366254580672424"><ele>593.0</ele><time>2026-05-01T14:03:15.894Z</time></trkpt><trkpt lat="44.217388193915625" lon="11.366312589476507"><ele>597.5</ele><time>2026-05-01T14:03:16.894Z</time></trkpt><trkpt lat="44.21723782403253" lon="11.366370993276108"><ele>602.0</ele><time>2026-05-01T14:03:17.894Z</time></trkpt><trkpt lat="44.217099501213724" lon="11.366432195681112"><ele>606.5</ele><time>2026-05-01T14:03:18.894Z</time></trkpt><trkpt lat="44.2169841565451" lon="11.366484205069849"><ele>611.0</ele><time>2026-05-01T14:03:19.894Z</time></trkpt><trkpt lat="44.216901634786055" lon="11.366528371739463"><ele>611.0</ele><time>2026-05-01T14:03:20.894Z</time></trkpt><trkpt lat="44.21684336332953" lon="11.366571749793447"><ele>611.0</ele><time>2026-05-01T14:03:21.894Z</time></trkpt><trkpt lat="44.21678793276977" lon="11.366663352391065"><ele>611.0</ele><time>2026-05-01T14:03:22.893Z</time></trkpt><trkpt lat="44.216759154970624" lon="11.366827306438797"><ele>611.0</ele><time>2026-05-01T14:03:23.893Z</time></trkpt><trkpt lat="44.216719885496225" lon="11.366989010400797"><ele>611.0</ele><time>2026-05-01T14:03:24.894Z</time></trkpt><trkpt lat="44.216673982632116" lon="11.367140863731741"><ele>612.5</ele><time>2026-05-01T14:03:25.893Z</time></trkpt><trkpt lat="44.216634305438035" lon="11.367293857774843"><ele>614.0</ele><time>2026-05-01T14:03:26.893Z</time></trkpt><trkpt lat="44.2165498362295" lon="11.367408910302121"><ele>615.5</ele><time>2026-05-01T14:03:27.893Z</time></trkpt><trkpt lat="44.21645853968563" lon="11.36754833776258"><ele>617.0</ele><time>2026-05-01T14:03:28.893Z</time></trkpt><trkpt lat="44.21635253316553" lon="11.367710469349568"><ele>621.6666666666666</ele><time>2026-05-01T14:03:29.893Z</time></trkpt><trkpt lat="44.21624946165983" lon="11.367868112048404"><ele>626.3333333333334</ele><time>2026-05-01T14:03:30.893Z</time></trkpt><trkpt lat="44.21614486477658" lon="11.368025777865121"><ele>631.0</ele><time>2026-05-01T14:03:31.893Z</time></trkpt><trkpt lat="44.21603651963792" lon="11.368195931432961"><ele>631.25</ele><time>2026-05-01T14:03:32.893Z</time></trkpt><trkpt lat="44.215929918266795" lon="11.368361655392524"><ele>631.5</ele><time>2026-05-01T14:03:33.893Z</time></trkpt><trkpt lat="44.21583883591844" lon="11.368502580359388"><ele>631.75</ele><time>2026-05-01T14:03:34.893Z</time></trkpt><trkpt lat="44.21575933333359" lon="11.368629764668533"><ele>632.0</ele><time>2026-05-01T14:03:35.893Z</time></trkpt><trkpt lat="44.215697373351865" lon="11.368741778598881"><ele>633.25</ele><time>2026-05-01T14:03:36.893Z</time></trkpt><trkpt lat="44.21563366326671" lon="11.368836509382518"><ele>634.5</ele><time>2026-05-01T14:03:37.893Z</time></trkpt><trkpt lat="44.21555456758527" lon="11.368933034080007"><ele>635.75</ele><time>2026-05-01T14:03:38.893Z</time></trkpt><trkpt lat="44.215457890709224" lon="11.369033018863528"><ele>637.0</ele><time>2026-05-01T14:03:39.893Z</time></trkpt><trkpt lat="44.215348954232155" lon="11.36914068215026"><ele>637.0</ele><time>2026-05-01T14:03:40.893Z</time></trkpt><trkpt lat="44.21523985341656" lon="11.369251331295589"><ele>637.0</ele><time>2026-05-01T14:03:41.893Z</time></trkpt><trkpt lat="44.21513244103322" lon="11.369372102197827"><ele>637.0</ele><time>2026-05-01T14:03:42.893Z</time></trkpt><trkpt lat="44.21503784018006" lon="11.369490962713511"><ele>637.0</ele><time>2026-05-01T14:03:43.893Z</time></trkpt><trkpt lat="44.21494215791828" lon="11.369595573479428"><ele>637.0</ele><time>2026-05-01T14:03:44.893Z</time></trkpt><trkpt lat="44.21484014023906" lon="11.369675829865507"><ele>637.0</ele><time>2026-05-01T14:03:45.893Z</time></trkpt><trkpt lat="44.21472298976553" lon="11.369742744701252"><ele>637.0</ele><time>2026-05-01T14:03:46.893Z</time></trkpt><trkpt lat="44.21460236447329" lon="11.36981535639166"><ele>637.0</ele><time>2026-05-01T14:03:47.893Z</time></trkpt><trkpt lat="44.21448280700783" lon="11.369870381829037"><ele>638.8</ele><time>2026-05-01T14:03:48.893Z</time></trkpt><trkpt lat="44.21437967452555" lon="11.36992178646733"><ele>640.6</ele><time>2026-05-01T14:03:49.893Z</time></trkpt><trkpt lat="44.214298083964586" lon="11.369968603653087"><ele>642.4</ele><time>2026-05-01T14:03:50.893Z</time></trkpt><trkpt lat="44.214227301385456" lon="11.370045393558485"><ele>644.1999999999999</ele><time>2026-05-01T14:03:51.893Z</time></trkpt><trkpt lat="44.21418684634016" lon="11.370147453135308"><ele>646.0</ele><time>2026-05-01T14:03:52.893Z</time></trkpt><trkpt lat="44.21415243651851" lon="11.370270174044395"><ele>646.0</ele><time>2026-05-01T14:03:53.893Z</time></trkpt><trkpt lat="44.21414113952083" lon="11.370412268095784"><ele>646.0</ele><time>2026-05-01T14:03:54.893Z</time></trkpt><trkpt lat="44.21416959386677" lon="11.370548554112831"><ele>646.0</ele><time>2026-05-01T14:03:55.893Z</time></trkpt><trkpt lat="44.21425346848019" lon="11.370676892583898"><ele>646.0</ele><time>2026-05-01T14:03:56.893Z</time></trkpt><trkpt lat="44.214365030022805" lon="11.370831830545704"><ele>646.25</ele><time>2026-05-01T14:03:57.893Z</time></trkpt><trkpt lat="44.21446402184897" lon="11.370961896804332"><ele>646.5</ele><time>2026-05-01T14:03:58.893Z</time></trkpt><trkpt lat="44.21454880900344" lon="11.371095274657447"><ele>646.75</ele><time>2026-05-01T14:03:59.893Z</time></trkpt><trkpt lat="44.214597761295714" lon="11.371235366655352"><ele>647.0</ele><time>2026-05-01T14:04:00.893Z</time></trkpt><trkpt lat="44.21463619312084" lon="11.371384573898565"><ele>649.0</ele><time>2026-05-01T14:04:01.893Z</time></trkpt><trkpt lat="44.21465275610941" lon="11.371541713835624"><ele>651.0</ele><time>2026-05-01T14:04:02.893Z</time></trkpt><trkpt lat="44.2146392242912" lon="11.37170857711144"><ele>653.0</ele><time>2026-05-01T14:04:03.893Z</time></trkpt><trkpt lat="44.21461347650421" lon="11.371907901377556"><ele>655.0</ele><time>2026-05-01T14:04:04.893Z</time></trkpt><trkpt lat="44.21458176636231" lon="11.372107629846676"><ele>656.5</ele><time>2026-05-01T14:04:05.893Z</time></trkpt><trkpt lat="44.21454324102161" lon="11.37231722155203"><ele>658.0</ele><time>2026-05-01T14:04:06.893Z</time></trkpt><trkpt lat="44.21451171642005" lon="11.37249909820247"><ele>659.5</ele><time>2026-05-01T14:04:07.893Z</time></trkpt><trkpt lat="44.214485840598215" lon="11.372631247766375"><ele>661.0</ele><time>2026-05-01T14:04:08.893Z</time></trkpt><trkpt lat="44.21447293236828" lon="11.372752597639662"><ele>661.0</ele><time>2026-05-01T14:04:09.893Z</time></trkpt><trkpt lat="44.21447928720296" lon="11.372868626399084"><ele>661.0</ele><time>2026-05-01T14:04:10.893Z</time></trkpt><trkpt lat="44.21453369420361" lon="11.373021410205407"><ele>661.0</ele><time>2026-05-01T14:04:11.893Z</time></trkpt><trkpt lat="44.21461516651612" lon="11.373162641886719"><ele>661.0</ele><time>2026-05-01T14:04:12.893Z</time></trkpt><trkpt lat="44.21472673203562" lon="11.373322093126689"><ele>660.8</ele><time>2026-05-01T14:04:13.893Z</time></trkpt><trkpt lat="44.21480091798642" lon="11.37342879572835"><ele>660.5999999999999</ele><time>2026-05-01T14:04:14.893Z</time></trkpt><trkpt lat="44.21483017334852" lon="11.373554700353433"><ele>660.4</ele><time>2026-05-01T14:04:15.893Z</time></trkpt><trkpt lat="44.21484053387487" lon="11.373707390048413"><ele>660.2</ele><time>2026-05-01T14:04:16.893Z</time></trkpt><trkpt lat="44.214834682617536" lon="11.373882681091814"><ele>660.0</ele><time>2026-05-01T14:04:17.893Z</time></trkpt><trkpt lat="44.21483066158403" lon="11.374096860875396"><ele>660.0</ele><time>2026-05-01T14:04:18.893Z</time></trkpt><trkpt lat="44.21482450952197" lon="11.374330679521865"><ele>660.0</ele><time>2026-05-01T14:04:19.893Z</time></trkpt><trkpt lat="44.21482003828662" lon="11.374562187386097"><ele>660.0</ele><time>2026-05-01T14:04:20.893Z</time></trkpt><trkpt lat="44.21480840534664" lon="11.374760123641344"><ele>660.8</ele><time>2026-05-01T14:04:21.893Z</time></trkpt><trkpt lat="44.21477650995678" lon="11.374927448258664"><ele>661.6</ele><time>2026-05-01T14:04:22.893Z</time></trkpt><trkpt lat="44.21477118919657" lon="11.375068468351307"><ele>662.4000000000001</ele><time>2026-05-01T14:04:23.893Z</time></trkpt><trkpt lat="44.21476737261851" lon="11.37519716041432"><ele>663.2</ele><time>2026-05-01T14:04:24.893Z</time></trkpt><trkpt lat="44.21478961937984" lon="11.375307932351859"><ele>664.0</ele><time>2026-05-01T14:04:25.893Z</time></trkpt><trkpt lat="44.21485828982117" lon="11.37539057032979"><ele>664.0</ele><time>2026-05-01T14:04:26.893Z</time></trkpt><trkpt lat="44.214985864991704" lon="11.375466714147677"><ele>664.0</ele><time>2026-05-01T14:04:27.893Z</time></trkpt><trkpt lat="44.21511631064964" lon="11.375520221737236"><ele>664.0</ele><time>2026-05-01T14:04:28.893Z</time></trkpt><trkpt lat="44.21521592846334" lon="11.375607790099911"><ele>664.0</ele><time>2026-05-01T14:04:29.893Z</time></trkpt><trkpt lat="44.21527419571688" lon="11.375726972019882"><ele>665.25</ele><time>2026-05-01T14:04:30.893Z</time></trkpt><trkpt lat="44.215300960188365" lon="11.375868367105637"><ele>666.5</ele><time>2026-05-01T14:04:31.893Z</time></trkpt><trkpt lat="44.21530783822879" lon="11.376027755982573"><ele>667.75</ele><time>2026-05-01T14:04:32.893Z</time></trkpt><trkpt lat="44.21533058540605" lon="11.376197817866679"><ele>669.0</ele><time>2026-05-01T14:04:33.893Z</time></trkpt><trkpt lat="44.215350120132236" lon="11.37639410597628"><ele>671.5</ele><time>2026-05-01T14:04:34.893Z</time></trkpt><trkpt lat="44.2153785076697" lon="11.376583674564035"><ele>674.0</ele><time>2026-05-01T14:04:35.893Z</time></trkpt><trkpt lat="44.21540841579449" lon="11.376763576997913"><ele>676.5</ele><time>2026-05-01T14:04:36.893Z</time></trkpt><trkpt lat="44.21545232431532" lon="11.376915831926022"><ele>679.0</ele><time>2026-05-01T14:04:37.893Z</time></trkpt><trkpt lat="44.21550232679977" lon="11.377044800147607"><ele>679.0</ele><time>2026-05-01T14:04:38.893Z</time></trkpt><trkpt lat="44.215564903320384" lon="11.377150763944798"><ele>679.0</ele><time>2026-05-01T14:04:39.893Z</time></trkpt><trkpt lat="44.215668610921746" lon="11.37722632500573"><ele>679.0</ele><time>2026-05-01T14:04:40.893Z</time></trkpt><trkpt lat="44.21579516115323" lon="11.377285848056781"><ele>679.0</ele><time>2026-05-01T14:04:41.893Z</time></trkpt><trkpt lat="44.21593337975911" lon="11.377344019243894"><ele>681.0</ele><time>2026-05-01T14:04:42.893Z</time></trkpt><trkpt lat="44.21607169332281" lon="11.377416782681104"><ele>683.0</ele><time>2026-05-01T14:04:43.893Z</time></trkpt><trkpt lat="44.21619683868354" lon="11.377470281745474"><ele>685.0</ele><time>2026-05-01T14:04:44.893Z</time></trkpt><trkpt lat="44.21629568843752" lon="11.377487814723935"><ele>687.0</ele><time>2026-05-01T14:04:45.893Z</time></trkpt><trkpt lat="44.21637898734282" lon="11.377495853662623"><ele>687.0</ele><time>2026-05-01T14:04:46.893Z</time></trkpt><trkpt lat="44.2164564995324" lon="11.377473175122057"><ele>687.0</ele><time>2026-05-01T14:04:47.893Z</time></trkpt><trkpt lat="44.216534835898" lon="11.377431900821302"><ele>687.0</ele><time>2026-05-01T14:04:48.893Z</time></trkpt><trkpt lat="44.2166016141805" lon="11.377405192381586"><ele>687.0</ele><time>2026-05-01T14:04:49.893Z</time></trkpt><trkpt lat="44.21668542017712" lon="11.377461794562285"><ele>687.0</ele><time>2026-05-01T14:04:51.893Z</time></trkpt><trkpt lat="44.21666554645645" lon="11.377580611980362"><ele>687.0</ele><time>2026-05-01T14:04:53.893Z</time></trkpt><trkpt lat="44.21659805382065" lon="11.377630889112206"><ele>687.0</ele><time>2026-05-01T14:04:54.892Z</time></trkpt><trkpt lat="44.21654590879005" lon="11.37772485297874"><ele>687.0</ele><time>2026-05-01T14:04:55.892Z</time></trkpt><trkpt lat="44.216494318452796" lon="11.377816953995453"><ele>687.0</ele><time>2026-05-01T14:04:56.892Z</time></trkpt><trkpt lat="44.2164348008876" lon="11.377953323708102"><ele>687.0</ele><time>2026-05-01T14:04:57.892Z</time></trkpt><trkpt lat="44.21635658506505" lon="11.378037982534611"><ele>687.0</ele><time>2026-05-01T14:04:58.892Z</time></trkpt><trkpt lat="44.216300079835555" lon="11.378120163388985"><ele>689.6</ele><time>2026-05-01T14:04:59.892Z</time></trkpt><trkpt lat="44.21623840901392" lon="11.378201331858838"><ele>692.2</ele><time>2026-05-01T14:05:00.892Z</time></trkpt><trkpt lat="44.21618364212321" lon="11.378314145602607"><ele>694.8</ele><time>2026-05-01T14:05:01.892Z</time></trkpt><trkpt lat="44.216111524094636" lon="11.378445672246755"><ele>697.4</ele><time>2026-05-01T14:05:02.892Z</time></trkpt><trkpt lat="44.216033928775104" lon="11.378556339815315"><ele>700.0</ele><time>2026-05-01T14:05:03.892Z</time></trkpt><trkpt lat="44.215942365548635" lon="11.378673638847268"><ele>700.0</ele><time>2026-05-01T14:05:04.892Z</time></trkpt><trkpt lat="44.21584383882579" lon="11.378786853869384"><ele>700.0</ele><time>2026-05-01T14:05:05.892Z</time></trkpt><trkpt lat="44.21575648622309" lon="11.378901568508049"><ele>700.0</ele><time>2026-05-01T14:05:06.892Z</time></trkpt><trkpt lat="44.215682374656645" lon="11.37903286823805"><ele>700.0</ele><time>2026-05-01T14:05:07.892Z</time></trkpt><trkpt lat="44.215614661614346" lon="11.379179507151358"><ele>702.0</ele><time>2026-05-01T14:05:08.892Z</time></trkpt><trkpt lat="44.21554607048744" lon="11.379332833861655"><ele>704.0</ele><time>2026-05-01T14:05:09.892Z</time></trkpt><trkpt lat="44.2154695643478" lon="11.379466185567573"><ele>706.0</ele><time>2026-05-01T14:05:10.892Z</time></trkpt><trkpt lat="44.21538152255737" lon="11.379596909814317"><ele>708.0</ele><time>2026-05-01T14:05:11.892Z</time></trkpt><trkpt lat="44.21528936215496" lon="11.379718539764797"><ele>710.25</ele><time>2026-05-01T14:05:12.892Z</time></trkpt><trkpt lat="44.21519662022755" lon="11.379844950917375"><ele>712.5</ele><time>2026-05-01T14:05:13.892Z</time></trkpt><trkpt lat="44.21510496926388" lon="11.379968801246992"><ele>714.75</ele><time>2026-05-01T14:05:14.892Z</time></trkpt><trkpt lat="44.21500868811316" lon="11.380065770232585"><ele>717.0</ele><time>2026-05-01T14:05:15.892Z</time></trkpt><trkpt lat="44.21490388659334" lon="11.38009373527675"><ele>718.0</ele><time>2026-05-01T14:05:16.892Z</time></trkpt><trkpt lat="44.214815351362034" lon="11.380167712013492"><ele>719.0</ele><time>2026-05-01T14:05:17.892Z</time></trkpt><trkpt lat="44.214732527236855" lon="11.380244816212285"><ele>720.0</ele><time>2026-05-01T14:05:18.892Z</time></trkpt><trkpt lat="44.21465118299718" lon="11.380346566212411"><ele>721.0</ele><time>2026-05-01T14:05:19.892Z</time></trkpt><trkpt lat="44.21456412618214" lon="11.380474592048037"><ele>722.0</ele><time>2026-05-01T14:05:20.892Z</time></trkpt><trkpt lat="44.21447273938307" lon="11.380577307202628"><ele>724.0</ele><time>2026-05-01T14:05:21.892Z</time></trkpt><trkpt lat="44.214388488458596" lon="11.380615614322426"><ele>726.0</ele><time>2026-05-01T14:05:22.892Z</time></trkpt><trkpt lat="44.21434408166478" lon="11.380686454662435"><ele>728.0</ele><time>2026-05-01T14:05:23.893Z</time></trkpt><trkpt lat="44.21430642878471" lon="11.380814361097556"><ele>730.0</ele><time>2026-05-01T14:05:25.893Z</time></trkpt><trkpt lat="44.21446664727517" lon="11.380927653419187"><ele>732.0</ele><time>2026-05-01T14:05:27.892Z</time></trkpt><trkpt lat="44.21456976826634" lon="11.380895301104697"><ele>732.0</ele><time>2026-05-01T14:05:28.892Z</time></trkpt><trkpt lat="44.21468197945024" lon="11.38090932782141"><ele>732.0</ele><time>2026-05-01T14:05:29.892Z</time></trkpt><trkpt lat="44.214793269047235" lon="11.380982153221378"><ele>732.0</ele><time>2026-05-01T14:05:30.892Z</time></trkpt><trkpt lat="44.21490830371705" lon="11.38105399953353"><ele>732.0</ele><time>2026-05-01T14:05:31.892Z</time></trkpt><trkpt lat="44.215029591339" lon="11.381145559856163"><ele>731.5</ele><time>2026-05-01T14:05:32.893Z</time></trkpt><trkpt lat="44.21516598140813" lon="11.381238128079008"><ele>731.0</ele><time>2026-05-01T14:05:33.892Z</time></trkpt><trkpt lat="44.21529627739018" lon="11.381355408077322"><ele>730.5</ele><time>2026-05-01T14:05:34.892Z</time></trkpt><trkpt lat="44.21541435502088" lon="11.381436370826334"><ele>730.0</ele><time>2026-05-01T14:05:35.893Z</time></trkpt><trkpt lat="44.2155180966488" lon="11.381535282286961"><ele>733.75</ele><time>2026-05-01T14:05:36.892Z</time></trkpt><trkpt lat="44.21561528943439" lon="11.381657525181197"><ele>737.5</ele><time>2026-05-01T14:05:37.892Z</time></trkpt><trkpt lat="44.21570146450668" lon="11.38178774006529"><ele>741.25</ele><time>2026-05-01T14:05:38.892Z</time></trkpt><trkpt lat="44.215773758623726" lon="11.381906555881502"><ele>745.0</ele><time>2026-05-01T14:05:39.892Z</time></trkpt><trkpt lat="44.215840967521075" lon="11.381987627135935"><ele>745.8</ele><time>2026-05-01T14:05:40.892Z</time></trkpt><trkpt lat="44.21591246230771" lon="11.38202541482094"><ele>746.6</ele><time>2026-05-01T14:05:41.892Z</time></trkpt><trkpt lat="44.21600540382537" lon="11.382003923280937"><ele>747.4000000000001</ele><time>2026-05-01T14:05:42.892Z</time></trkpt><trkpt lat="44.21612635049007" lon="11.38192074174482"><ele>748.2</ele><time>2026-05-01T14:05:43.892Z</time></trkpt><trkpt lat="44.21623810811848" lon="11.381825000528787"><ele>749.0</ele><time>2026-05-01T14:05:44.892Z</time></trkpt><trkpt lat="44.21633176457504" lon="11.381759127717025"><ele>749.0</ele><time>2026-05-01T14:05:45.892Z</time></trkpt><trkpt lat="44.21642874819372" lon="11.381724052746488"><ele>749.0</ele><time>2026-05-01T14:05:46.892Z</time></trkpt><trkpt lat="44.2164956926886" lon="11.381738136444325"><ele>749.0</ele><time>2026-05-01T14:05:47.892Z</time></trkpt><trkpt lat="44.21655697407295" lon="11.381773962450975"><ele>749.0</ele><time>2026-05-01T14:05:48.892Z</time></trkpt><trkpt lat="44.21657678759694" lon="11.381872047532049"><ele>749.0</ele><time>2026-05-01T14:05:50.892Z</time></trkpt><trkpt lat="44.216574497527354" lon="11.382053829898926"><ele>749.0</ele><time>2026-05-01T14:05:53.892Z</time></trkpt><trkpt lat="44.21654306566402" lon="11.382180296358477"><ele>751.0</ele><time>2026-05-01T14:05:54.892Z</time></trkpt><trkpt lat="44.216486478603215" lon="11.382303839268658"><ele>753.0</ele><time>2026-05-01T14:05:55.892Z</time></trkpt><trkpt lat="44.21643118716978" lon="11.382433389540525"><ele>755.0</ele><time>2026-05-01T14:05:56.892Z</time></trkpt><trkpt lat="44.21636560467337" lon="11.382575181846963"><ele>757.0</ele><time>2026-05-01T14:05:57.892Z</time></trkpt><trkpt lat="44.21629836745616" lon="11.382703473059074"><ele>759.0</ele><time>2026-05-01T14:05:58.892Z</time></trkpt><trkpt lat="44.216225294995866" lon="11.382803767244607"><ele>759.0</ele><time>2026-05-01T14:05:59.892Z</time></trkpt><trkpt lat="44.21613446360606" lon="11.382897754048148"><ele>759.0</ele><time>2026-05-01T14:06:00.892Z</time></trkpt><trkpt lat="44.21602732218416" lon="11.382985043069034"><ele>759.0</ele><time>2026-05-01T14:06:01.892Z</time></trkpt><trkpt lat="44.21591816860286" lon="11.383056305363569"><ele>759.0</ele><time>2026-05-01T14:06:02.892Z</time></trkpt><trkpt lat="44.215812847537144" lon="11.38312762805491"><ele>761.0</ele><time>2026-05-01T14:06:03.892Z</time></trkpt><trkpt lat="44.21572828496338" lon="11.383231206111494"><ele>763.0</ele><time>2026-05-01T14:06:04.891Z</time></trkpt><trkpt lat="44.21564002319218" lon="11.383349992040433"><ele>765.0</ele><time>2026-05-01T14:06:05.891Z</time></trkpt><trkpt lat="44.21557241970922" lon="11.38347323109661"><ele>767.0</ele><time>2026-05-01T14:06:06.891Z</time></trkpt><trkpt lat="44.21551846978651" lon="11.383622439000124"><ele>767.8</ele><time>2026-05-01T14:06:07.891Z</time></trkpt><trkpt lat="44.21547972949412" lon="11.383791307782309"><ele>768.6</ele><time>2026-05-01T14:06:08.891Z</time></trkpt><trkpt lat="44.21545277973537" lon="11.383949783075163"><ele>769.4</ele><time>2026-05-01T14:06:09.891Z</time></trkpt><trkpt lat="44.21543260238073" lon="11.384083244020811"><ele>770.1999999999999</ele><time>2026-05-01T14:06:10.891Z</time></trkpt><trkpt lat="44.2154054693699" lon="11.384193778797485"><ele>771.0</ele><time>2026-05-01T14:06:11.891Z</time></trkpt><trkpt lat="44.215340882811205" lon="11.384236288182816"><ele>773.5999999999999</ele><time>2026-05-01T14:06:12.891Z</time></trkpt><trkpt lat="44.21519325590572" lon="11.384238236773063"><ele>776.2</ele><time>2026-05-01T14:06:14.891Z</time></trkpt><trkpt lat="44.215113002811854" lon="11.384258847260584"><ele>778.8</ele><time>2026-05-01T14:06:15.891Z</time></trkpt><trkpt lat="44.21502393129533" lon="11.3842549992696"><ele>781.4000000000001</ele><time>2026-05-01T14:06:16.891Z</time></trkpt><trkpt lat="44.214913106389425" lon="11.38433518749132"><ele>784.0</ele><time>2026-05-01T14:06:17.891Z</time></trkpt><trkpt lat="44.21482053420873" lon="11.384431428548185"><ele>784.0</ele><time>2026-05-01T14:06:18.891Z</time></trkpt><trkpt lat="44.21471430535758" lon="11.384546846778239"><ele>784.0</ele><time>2026-05-01T14:06:19.891Z</time></trkpt><trkpt lat="44.21461770601888" lon="11.384652706052314"><ele>784.0</ele><time>2026-05-01T14:06:20.891Z</time></trkpt><trkpt lat="44.21454338448356" lon="11.38473207402272"><ele>784.0</ele><time>2026-05-01T14:06:21.891Z</time></trkpt><trkpt lat="44.21447725847547" lon="11.384802354503867"><ele>784.0</ele><time>2026-05-01T14:06:22.891Z</time></trkpt><trkpt lat="44.21440418089611" lon="11.384893118795416"><ele>786.4000000000001</ele><time>2026-05-01T14:06:23.891Z</time></trkpt><trkpt lat="44.21433957534671" lon="11.38500457210579"><ele>788.8</ele><time>2026-05-01T14:06:24.891Z</time></trkpt><trkpt lat="44.21428799508249" lon="11.385134400221242"><ele>791.2</ele><time>2026-05-01T14:06:25.891Z</time></trkpt><trkpt lat="44.214249028610176" lon="11.385275956419093"><ele>793.5999999999999</ele><time>2026-05-01T14:06:26.891Z</time></trkpt><trkpt lat="44.21423019806395" lon="11.385422438856253"><ele>796.0</ele><time>2026-05-01T14:06:27.891Z</time></trkpt><trkpt lat="44.21420374176728" lon="11.385542007286697"><ele>797.6666666666666</ele><time>2026-05-01T14:06:28.891Z</time></trkpt><trkpt lat="44.214159198958654" lon="11.385640951931423"><ele>799.3333333333333</ele><time>2026-05-01T14:06:29.891Z</time></trkpt><trkpt lat="44.21411137493159" lon="11.385733906307674"><ele>801.0</ele><time>2026-05-01T14:06:30.891Z</time></trkpt><trkpt lat="44.214042710517994" lon="11.385802660893887"><ele>802.6666666666667</ele><time>2026-05-01T14:06:31.891Z</time></trkpt><trkpt lat="44.21396577300072" lon="11.385872886280826"><ele>804.3333333333334</ele><time>2026-05-01T14:06:32.891Z</time></trkpt><trkpt lat="44.21386758869269" lon="11.385886494131427"><ele>806.0</ele><time>2026-05-01T14:06:33.891Z</time></trkpt><trkpt lat="44.21376393255294" lon="11.38591064866095"><ele>807.5999999999999</ele><time>2026-05-01T14:06:34.891Z</time></trkpt><trkpt lat="44.21366037938167" lon="11.385926933970175"><ele>809.2</ele><time>2026-05-01T14:06:35.891Z</time></trkpt><trkpt lat="44.21355609223384" lon="11.385957212682944"><ele>810.8</ele><time>2026-05-01T14:06:36.891Z</time></trkpt><trkpt lat="44.21344221332423" lon="11.38598470036591"><ele>812.4000000000001</ele><time>2026-05-01T14:06:37.891Z</time></trkpt><trkpt lat="44.21333431898281" lon="11.385997642482764"><ele>814.0</ele><time>2026-05-01T14:06:38.891Z</time></trkpt><trkpt lat="44.213230114185" lon="11.385989382351099"><ele>814.3333333333333</ele><time>2026-05-01T14:06:39.891Z</time></trkpt><trkpt lat="44.213136686091765" lon="11.385964081414851"><ele>814.6666666666666</ele><time>2026-05-01T14:06:40.891Z</time></trkpt><trkpt lat="44.21305792479057" lon="11.385947200419725"><ele>815.0</ele><time>2026-05-01T14:06:41.891Z</time></trkpt><trkpt lat="44.212980369188266" lon="11.385939764846757"><ele>815.3333333333333</ele><time>2026-05-01T14:06:42.891Z</time></trkpt><trkpt lat="44.212906208784645" lon="11.385952475536556"><ele>815.6666666666666</ele><time>2026-05-01T14:06:43.891Z</time></trkpt><trkpt lat="44.21284187131983" lon="11.385981486742118"><ele>816.0</ele><time>2026-05-01T14:06:44.891Z</time></trkpt><trkpt lat="44.21276204060748" lon="11.386030757491685"><ele>816.0</ele><time>2026-05-01T14:06:45.891Z</time></trkpt><trkpt lat="44.212697680175594" lon="11.38607427824421"><ele>816.0</ele><time>2026-05-01T14:06:46.891Z</time></trkpt><trkpt lat="44.212621311993324" lon="11.38614049308709"><ele>816.0</ele><time>2026-05-01T14:06:47.891Z</time></trkpt><trkpt lat="44.21253981406596" lon="11.386191821376476"><ele>816.0</ele><time>2026-05-01T14:06:48.891Z</time></trkpt><trkpt lat="44.212453328734746" lon="11.386236797152744"><ele>816.0</ele><time>2026-05-01T14:06:49.891Z</time></trkpt><trkpt lat="44.21236449650076" lon="11.386264790592907"><ele>816.0</ele><time>2026-05-01T14:06:50.891Z</time></trkpt><trkpt lat="44.21227656145001" lon="11.386271914009168"><ele>816.1666666666666</ele><time>2026-05-01T14:06:51.891Z</time></trkpt><trkpt lat="44.21220301300455" lon="11.386282907970788"><ele>816.3333333333333</ele><time>2026-05-01T14:06:52.891Z</time></trkpt><trkpt lat="44.21213363008397" lon="11.386296012217281"><ele>816.5</ele><time>2026-05-01T14:06:53.891Z</time></trkpt><trkpt lat="44.21205903063206" lon="11.38631503743226"><ele>816.6666666666666</ele><time>2026-05-01T14:06:54.891Z</time></trkpt><trkpt lat="44.211975348532874" lon="11.386346178036993"><ele>816.8333333333333</ele><time>2026-05-01T14:06:55.891Z</time></trkpt><trkpt lat="44.2118879173928" lon="11.386372588663958"><ele>817.0</ele><time>2026-05-01T14:06:56.891Z</time></trkpt><trkpt lat="44.21180890227746" lon="11.386443648565809"><ele>820.2</ele><time>2026-05-01T14:06:57.891Z</time></trkpt><trkpt lat="44.21173468876161" lon="11.386557506926442"><ele>823.4000000000001</ele><time>2026-05-01T14:06:58.891Z</time></trkpt><trkpt lat="44.21164749167977" lon="11.386642548987703"><ele>826.5999999999999</ele><time>2026-05-01T14:06:59.891Z</time></trkpt><trkpt lat="44.21157122648415" lon="11.386728414009255"><ele>829.8</ele><time>2026-05-01T14:07:00.891Z</time></trkpt><trkpt lat="44.21149317729794" lon="11.386789884281388"><ele>833.0</ele><time>2026-05-01T14:07:01.891Z</time></trkpt><trkpt lat="44.211400585977835" lon="11.386838598853087"><ele>833.4</ele><time>2026-05-01T14:07:02.891Z</time></trkpt><trkpt lat="44.211310111034145" lon="11.386914992663133"><ele>833.8</ele><time>2026-05-01T14:07:03.891Z</time></trkpt><trkpt lat="44.21123618593159" lon="11.38701681070217"><ele>834.2</ele><time>2026-05-01T14:07:04.891Z</time></trkpt><trkpt lat="44.211193268636535" lon="11.387145384958067"><ele>834.6</ele><time>2026-05-01T14:07:05.891Z</time></trkpt><trkpt lat="44.21112657936503" lon="11.387226133424665"><ele>835.0</ele><time>2026-05-01T14:07:06.891Z</time></trkpt><trkpt lat="44.21106837995146" lon="11.387293689773195"><ele>837.4</ele><time>2026-05-01T14:07:07.891Z</time></trkpt><trkpt lat="44.211000052771" lon="11.387331700307124"><ele>839.8</ele><time>2026-05-01T14:07:08.891Z</time></trkpt><trkpt lat="44.210919653132564" lon="11.387330657320545"><ele>842.2</ele><time>2026-05-01T14:07:09.891Z</time></trkpt><trkpt lat="44.21084014120499" lon="11.387315888165315"><ele>844.6</ele><time>2026-05-01T14:07:10.891Z</time></trkpt><trkpt lat="44.21072708311303" lon="11.387345822183763"><ele>847.0</ele><time>2026-05-01T14:07:12.891Z</time></trkpt><trkpt lat="44.210722338489695" lon="11.387548601137574"><ele>847.0</ele><time>2026-05-01T14:07:14.891Z</time></trkpt><trkpt lat="44.210804728875" lon="11.387625699002255"><ele>847.0</ele><time>2026-05-01T14:07:15.891Z</time></trkpt><trkpt lat="44.21092209454571" lon="11.38764024514915"><ele>847.0</ele><time>2026-05-01T14:07:16.891Z</time></trkpt><trkpt lat="44.21103764540442" lon="11.387685466550348"><ele>847.0</ele><time>2026-05-01T14:07:17.891Z</time></trkpt><trkpt lat="44.2111479173312" lon="11.387731072299516"><ele>846.9999999999999</ele><time>2026-05-01T14:07:18.891Z</time></trkpt><trkpt lat="44.2112305537769" lon="11.387803426652171"><ele>847.0</ele><time>2026-05-01T14:07:19.891Z</time></trkpt><trkpt lat="44.211286281949995" lon="11.387850710211236"><ele>847.0</ele><time>2026-05-01T14:07:20.891Z</time></trkpt><trkpt lat="44.211299245863124" lon="11.38794776339169"><ele>847.0</ele><time>2026-05-01T14:07:22.891Z</time></trkpt><trkpt lat="44.2112368640798" lon="11.38805731823531"><ele>846.9999999999999</ele><time>2026-05-01T14:07:24.891Z</time></trkpt><trkpt lat="44.2111307762516" lon="11.38804739210986"><ele>847.0</ele><time>2026-05-01T14:07:25.891Z</time></trkpt><trkpt lat="44.211029652061924" lon="11.388112573298503"><ele>850.0</ele><time>2026-05-01T14:07:26.891Z</time></trkpt><trkpt lat="44.21091503570176" lon="11.388170670198795"><ele>853.0</ele><time>2026-05-01T14:07:27.891Z</time></trkpt><trkpt lat="44.21079606486973" lon="11.388208354323895"><ele>856.0</ele><time>2026-05-01T14:07:28.891Z</time></trkpt><trkpt lat="44.21068888394449" lon="11.388257381553565"><ele>859.0</ele><time>2026-05-01T14:07:29.892Z</time></trkpt><trkpt lat="44.21059998771649" lon="11.388301824685557"><ele>859.3333333333333</ele><time>2026-05-01T14:07:30.892Z</time></trkpt><trkpt lat="44.21053113678277" lon="11.388327454901377"><ele>859.6666666666666</ele><time>2026-05-01T14:07:31.892Z</time></trkpt><trkpt lat="44.21044828528528" lon="11.388346224253844"><ele>860.0</ele><time>2026-05-01T14:07:33.892Z</time></trkpt><trkpt lat="44.210391043039195" lon="11.388385310751454"><ele>860.3333333333333</ele><time>2026-05-01T14:07:37.892Z</time></trkpt><trkpt lat="44.210435138661204" lon="11.388506644715585"><ele>860.6666666666666</ele><time>2026-05-01T14:07:39.892Z</time></trkpt><trkpt lat="44.210498502980855" lon="11.388578770581624"><ele>861.0</ele><time>2026-05-01T14:07:42.892Z</time></trkpt><trkpt lat="44.2105558350064" lon="11.388624831156722"><ele>861.0</ele><time>2026-05-01T14:07:43.892Z</time></trkpt><trkpt lat="44.210617911350965" lon="11.388674397206996"><ele>861.0</ele><time>2026-05-01T14:07:44.892Z</time></trkpt><trkpt lat="44.21068259619693" lon="11.388720655494431"><ele>861.0</ele><time>2026-05-01T14:07:45.892Z</time></trkpt><trkpt lat="44.2107483903029" lon="11.388765731031864"><ele>861.0</ele><time>2026-05-01T14:07:46.892Z</time></trkpt><trkpt lat="44.21081049901883" lon="11.388807075225408"><ele>861.0</ele><time>2026-05-01T14:07:47.892Z</time></trkpt><trkpt lat="44.21091176046774" lon="11.388866425147375"><ele>861.0</ele><time>2026-05-01T14:07:49.892Z</time></trkpt><trkpt lat="44.210979684254376" lon="11.388893429985929"><ele>859.8571428571429</ele><time>2026-05-01T14:07:52.892Z</time></trkpt><trkpt lat="44.211051917983745" lon="11.38891805562069"><ele>858.7142857142858</ele><time>2026-05-01T14:08:07.892Z</time></trkpt><trkpt lat="44.211143418445744" lon="11.388948709720287"><ele>857.5714285714286</ele><time>2026-05-01T14:08:09.892Z</time></trkpt><trkpt lat="44.21120483710928" lon="11.38897630907739"><ele>856.4285714285714</ele><time>2026-05-01T14:08:10.892Z</time></trkpt><trkpt lat="44.211266235558" lon="11.389002300373587"><ele>855.2857142857143</ele><time>2026-05-01T14:08:11.892Z</time></trkpt><trkpt lat="44.211318856768145" lon="11.389056097362197"><ele>854.1428571428571</ele><time>2026-05-01T14:08:12.892Z</time></trkpt><trkpt lat="44.2113896985056" lon="11.389072022965447"><ele>853.0</ele><time>2026-05-01T14:08:13.892Z</time></trkpt><trkpt lat="44.211455004838925" lon="11.389116010360665"><ele>854.6666666666666</ele><time>2026-05-01T14:08:14.892Z</time></trkpt><trkpt lat="44.21151669199787" lon="11.389146876637588"><ele>856.3333333333333</ele><time>2026-05-01T14:08:15.892Z</time></trkpt><trkpt lat="44.21163057605891" lon="11.389175444193004"><ele>858.0</ele><time>2026-05-01T14:08:17.892Z</time></trkpt><trkpt lat="44.21169873295289" lon="11.389195373024762"><ele>859.6666666666667</ele><time>2026-05-01T14:08:18.892Z</time></trkpt><trkpt lat="44.211775282256966" lon="11.389239289550787"><ele>861.3333333333334</ele><time>2026-05-01T14:08:19.892Z</time></trkpt><trkpt lat="44.21184555939095" lon="11.38928970895776"><ele>863.0</ele><time>2026-05-01T14:08:20.892Z</time></trkpt><trkpt lat="44.211904620012966" lon="11.389346431523197"><ele>863.0000000000001</ele><time>2026-05-01T14:08:21.892Z</time></trkpt><trkpt lat="44.21196419172209" lon="11.389404894006175"><ele>863.0</ele><time>2026-05-01T14:08:22.892Z</time></trkpt><trkpt lat="44.21202787568678" lon="11.389475388368078"><ele>863.0</ele><time>2026-05-01T14:08:23.892Z</time></trkpt><trkpt lat="44.21209192704223" lon="11.389536011669325"><ele>863.0</ele><time>2026-05-01T14:08:24.892Z</time></trkpt><trkpt lat="44.21214706660514" lon="11.389585933598504"><ele>863.0</ele><time>2026-05-01T14:08:25.892Z</time></trkpt><trkpt lat="44.21219662328245" lon="11.389653011392815"><ele>863.0000000000001</ele><time>2026-05-01T14:08:26.892Z</time></trkpt><trkpt lat="44.21224900035953" lon="11.38973827453638"><ele>863.0</ele><time>2026-05-01T14:08:27.892Z</time></trkpt><trkpt lat="44.21230401788489" lon="11.389822783023993"><ele>862.2</ele><time>2026-05-01T14:08:28.892Z</time></trkpt><trkpt lat="44.21232336259145" lon="11.389916654268639"><ele>861.4</ele><time>2026-05-01T14:08:29.892Z</time></trkpt><trkpt lat="44.212382483569236" lon="11.390038261208106"><ele>860.6000000000001</ele><time>2026-05-01T14:08:31.892Z</time></trkpt><trkpt lat="44.21245075025919" lon="11.390119792366622"><ele>859.8000000000001</ele><time>2026-05-01T14:08:33.892Z</time></trkpt><trkpt lat="44.21253659211784" lon="11.390244043741635"><ele>859.0</ele><time>2026-05-01T14:08:35.892Z</time></trkpt><trkpt lat="44.21258547014669" lon="11.390319857241149"><ele>858.9999999999999</ele><time>2026-05-01T14:08:36.892Z</time></trkpt><trkpt lat="44.21265542621964" lon="11.390398610334326"><ele>859.0</ele><time>2026-05-01T14:08:37.892Z</time></trkpt><trkpt lat="44.21272445569389" lon="11.39046201294355"><ele>859.0</ele><time>2026-05-01T14:08:38.892Z</time></trkpt><trkpt lat="44.212789429995176" lon="11.390514530184992"><ele>859.0</ele><time>2026-05-01T14:08:39.892Z</time></trkpt><trkpt lat="44.212878696565774" lon="11.390599374329659"><ele>858.9999999999999</ele><time>2026-05-01T14:08:41.892Z</time></trkpt><trkpt lat="44.21292439322036" lon="11.390664575353698"><ele>859.0</ele><time>2026-05-01T14:08:42.892Z</time></trkpt><trkpt lat="44.21299972646486" lon="11.390774724152285"><ele>858.1666666666666</ele><time>2026-05-01T14:08:44.892Z</time></trkpt><trkpt lat="44.21311855027039" lon="11.390869090224827"><ele>857.3333333333333</ele><time>2026-05-01T14:08:46.892Z</time></trkpt><trkpt lat="44.21318516624184" lon="11.390917344429278"><ele>856.5</ele><time>2026-05-01T14:08:47.892Z</time></trkpt><trkpt lat="44.21324983448076" lon="11.390967315814601"><ele>855.6666666666667</ele><time>2026-05-01T14:08:48.892Z</time></trkpt><trkpt lat="44.21330176837469" lon="11.391021139273587"><ele>854.8333333333334</ele><time>2026-05-01T14:08:49.892Z</time></trkpt><trkpt lat="44.21336282827216" lon="11.391092161007842"><ele>854.0</ele><time>2026-05-01T14:08:50.892Z</time></trkpt><trkpt lat="44.2134157393338" lon="11.391165849016808"><ele>854.0000000000001</ele><time>2026-05-01T14:08:51.892Z</time></trkpt><trkpt lat="44.21349760840693" lon="11.391263541148906"><ele>854.0</ele><time>2026-05-01T14:08:53.892Z</time></trkpt><trkpt lat="44.21356454703582" lon="11.391346567350963"><ele>854.0</ele><time>2026-05-01T14:08:55.892Z</time></trkpt><trkpt lat="44.21361540298085" lon="11.39140204088101"><ele>854.0</ele><time>2026-05-01T14:08:57.892Z</time></trkpt><trkpt lat="44.213698409960045" lon="11.391404963179756"><ele>854.0000000000001</ele><time>2026-05-01T14:09:12.892Z</time></trkpt><trkpt lat="44.213779224011446" lon="11.391418909436663"><ele>854.0</ele><time>2026-05-01T14:09:14.892Z</time></trkpt><trkpt lat="44.21386706731213" lon="11.391434068783937"><ele>853.6666666666667</ele><time>2026-05-01T14:09:18.892Z</time></trkpt><trkpt lat="44.213945699821984" lon="11.391447638500129"><ele>853.3333333333334</ele><time>2026-05-01T14:09:20.892Z</time></trkpt><trkpt lat="44.21401191225632" lon="11.39145798964972"><ele>853.0</ele><time>2026-05-01T14:09:22.892Z</time></trkpt><trkpt lat="44.21392262343984" lon="11.391443656224325"><ele>852.6666666666667</ele><time>2026-05-01T14:11:55.887Z</time></trkpt><trkpt lat="44.21383399253843" lon="11.391428360971153"><ele>852.3333333333334</ele><time>2026-05-01T14:11:58.887Z</time></trkpt><trkpt lat="44.21375645294402" lon="11.391414979800905"><ele>852.0</ele><time>2026-05-01T14:12:00.887Z</time></trkpt><trkpt lat="44.213682120914974" lon="11.391403141260845"><ele>852.0</ele><time>2026-05-01T14:12:02.887Z</time></trkpt><trkpt lat="44.21377947554526" lon="11.391395629830905"><ele>852.0</ele><time>2026-05-01T14:12:09.887Z</time></trkpt><trkpt lat="44.21387440804528" lon="11.3913960927186"><ele>852.0</ele><time>2026-05-01T14:12:12.887Z</time></trkpt><trkpt lat="44.21394487841581" lon="11.39143282890352"><ele>852.0</ele><time>2026-05-01T14:12:14.887Z</time></trkpt><trkpt lat="44.214018368530596" lon="11.391449307659144"><ele>852.0</ele><time>2026-05-01T14:12:16.887Z</time></trkpt><trkpt lat="44.214106882732274" lon="11.39145808847185"><ele>852.0</ele><time>2026-05-01T14:12:19.887Z</time></trkpt><trkpt lat="44.21417728564586" lon="11.39145330012578"><ele>852.0</ele><time>2026-05-01T14:12:21.887Z</time></trkpt><trkpt lat="44.21424061381423" lon="11.39145064143587"><ele>852.0</ele><time>2026-05-01T14:12:23.887Z</time></trkpt><trkpt lat="44.21431542938569" lon="11.391447665609045"><ele>852.0</ele><time>2026-05-01T14:12:25.887Z</time></trkpt><trkpt lat="44.21439114321153" lon="11.391464182764729"><ele>852.0</ele><time>2026-05-01T14:12:27.887Z</time></trkpt><trkpt lat="44.21448519915538" lon="11.391501788305524"><ele>852.0</ele><time>2026-05-01T14:12:29.887Z</time></trkpt><trkpt lat="44.21458768903475" lon="11.391567315777522"><ele>852.0</ele><time>2026-05-01T14:12:31.887Z</time></trkpt><trkpt lat="44.21468298197865" lon="11.391637741329301"><ele>852.0</ele><time>2026-05-01T14:12:33.887Z</time></trkpt><trkpt lat="44.214769109929115" lon="11.391735865600724"><ele>852.0</ele><time>2026-05-01T14:12:35.887Z</time></trkpt><trkpt lat="44.214816248126894" lon="11.39179525320647"><ele>852.0</ele><time>2026-05-01T14:12:36.887Z</time></trkpt><trkpt lat="44.21486708165897" lon="11.391853115354388"><ele>852.0</ele><time>2026-05-01T14:12:37.887Z</time></trkpt><trkpt lat="44.21495909853113" lon="11.391933254240431"><ele>852.0</ele><time>2026-05-01T14:12:39.887Z</time></trkpt><trkpt lat="44.215021956955184" lon="11.391975653819076"><ele>852.0</ele><time>2026-05-01T14:12:41.887Z</time></trkpt><trkpt lat="44.215083943644814" lon="11.392034475968652"><ele>852.75</ele><time>2026-05-01T14:12:43.887Z</time></trkpt><trkpt lat="44.21520586949389" lon="11.392097438095394"><ele>853.5</ele><time>2026-05-01T14:12:45.887Z</time></trkpt><trkpt lat="44.215296668920935" lon="11.3921731758476"><ele>854.25</ele><time>2026-05-01T14:12:47.887Z</time></trkpt><trkpt lat="44.21539083190761" lon="11.392255686803333"><ele>855.0</ele><time>2026-05-01T14:12:49.887Z</time></trkpt><trkpt lat="44.21546810048147" lon="11.392350352309007"><ele>855.0</ele><time>2026-05-01T14:12:51.887Z</time></trkpt><trkpt lat="44.215521614490754" lon="11.392441049820999"><ele>855.0</ele><time>2026-05-01T14:12:53.887Z</time></trkpt><trkpt lat="44.21558631202166" lon="11.39255112160939"><ele>855.0</ele><time>2026-05-01T14:12:55.887Z</time></trkpt><trkpt lat="44.21563796307492" lon="11.392638086642854"><ele>855.0</ele><time>2026-05-01T14:12:57.887Z</time></trkpt><trkpt lat="44.21572083267236" lon="11.392765073483432"><ele>855.0</ele><time>2026-05-01T14:12:59.887Z</time></trkpt><trkpt lat="44.21576037225078" lon="11.392843281309938"><ele>853.2</ele><time>2026-05-01T14:13:00.887Z</time></trkpt><trkpt lat="44.21579547446736" lon="11.39292709118988"><ele>851.4</ele><time>2026-05-01T14:13:01.887Z</time></trkpt><trkpt lat="44.215839254849115" lon="11.393062133045397"><ele>849.5999999999999</ele><time>2026-05-01T14:13:03.887Z</time></trkpt><trkpt lat="44.21590004538717" lon="11.393173648400326"><ele>847.8</ele><time>2026-05-01T14:13:05.887Z</time></trkpt><trkpt lat="44.21595250372005" lon="11.393295868416164"><ele>846.0</ele><time>2026-05-01T14:13:07.887Z</time></trkpt><trkpt lat="44.215995409113305" lon="11.393411326905161"><ele>846.0</ele><time>2026-05-01T14:13:09.887Z</time></trkpt><trkpt lat="44.21606522471788" lon="11.393521825359318"><ele>846.0</ele><time>2026-05-01T14:13:11.887Z</time></trkpt><trkpt lat="44.21614304742163" lon="11.393597088475847"><ele>846.0</ele><time>2026-05-01T14:13:13.887Z</time></trkpt><trkpt lat="44.21622441694158" lon="11.39365864895889"><ele>846.0</ele><time>2026-05-01T14:13:15.887Z</time></trkpt><trkpt lat="44.21628551962361" lon="11.393746863088566"><ele>846.0</ele><time>2026-05-01T14:13:17.887Z</time></trkpt><trkpt lat="44.21631169987378" lon="11.393836794724798"><ele>845.3333333333334</ele><time>2026-05-01T14:13:20.887Z</time></trkpt><trkpt lat="44.21633539941128" lon="11.393940239417896"><ele>844.6666666666667</ele><time>2026-05-01T14:13:32.887Z</time></trkpt><trkpt lat="44.216365810737386" lon="11.394061740211006"><ele>844.0</ele><time>2026-05-01T14:13:36.887Z</time></trkpt><trkpt lat="44.21639219030689" lon="11.394147311385225"><ele>843.3333333333334</ele><time>2026-05-01T14:13:39.887Z</time></trkpt><trkpt lat="44.21642533458892" lon="11.394228273970889"><ele>842.6666666666667</ele><time>2026-05-01T14:13:41.887Z</time></trkpt><trkpt lat="44.21650794794056" lon="11.39430431367596"><ele>842.0</ele><time>2026-05-01T14:13:44.887Z</time></trkpt><trkpt lat="44.216594939120974" lon="11.394378761135764"><ele>840.1666666666667</ele><time>2026-05-01T14:13:46.887Z</time></trkpt><trkpt lat="44.21665493625087" lon="11.394418584040766"><ele>838.3333333333334</ele><time>2026-05-01T14:13:47.885Z</time></trkpt><trkpt lat="44.21671857255591" lon="11.39445740394893"><ele>836.5</ele><time>2026-05-01T14:13:48.884Z</time></trkpt><trkpt lat="44.21678085966953" lon="11.394497304392365"><ele>834.6666666666667</ele><time>2026-05-01T14:13:49.884Z</time></trkpt><trkpt lat="44.21684224234708" lon="11.394530413492047"><ele>832.8333333333334</ele><time>2026-05-01T14:13:50.885Z</time></trkpt><trkpt lat="44.21695740116807" lon="11.394571285676081"><ele>831.0</ele><time>2026-05-01T14:13:52.884Z</time></trkpt><trkpt lat="44.21702622675603" lon="11.394561866920633"><ele>831.0</ele><time>2026-05-01T14:13:53.885Z</time></trkpt><trkpt lat="44.21709529705437" lon="11.39457156108094"><ele>831.0</ele><time>2026-05-01T14:13:54.884Z</time></trkpt><trkpt lat="44.21722213061653" lon="11.394556338306883"><ele>831.0</ele><time>2026-05-01T14:13:56.884Z</time></trkpt><trkpt lat="44.21733210702504" lon="11.39452780577546"><ele>831.0</ele><time>2026-05-01T14:13:58.884Z</time></trkpt><trkpt lat="44.21742722123448" lon="11.394486198732059"><ele>831.0</ele><time>2026-05-01T14:14:00.884Z</time></trkpt><trkpt lat="44.217506894901284" lon="11.3944239258939"><ele>830.6666666666666</ele><time>2026-05-01T14:14:02.884Z</time></trkpt><trkpt lat="44.21759928536776" lon="11.39437252198618"><ele>830.3333333333333</ele><time>2026-05-01T14:14:04.884Z</time></trkpt><trkpt lat="44.21767088273677" lon="11.394395557235038"><ele>830.0</ele><time>2026-05-01T14:14:06.884Z</time></trkpt><trkpt lat="44.21776053100985" lon="11.39442788709939"><ele>829.6666666666666</ele><time>2026-05-01T14:14:08.884Z</time></trkpt><trkpt lat="44.21784817343024" lon="11.394487054849968"><ele>829.3333333333333</ele><time>2026-05-01T14:14:10.884Z</time></trkpt><trkpt lat="44.21792509034923" lon="11.394532821976096"><ele>829.0</ele><time>2026-05-01T14:14:12.884Z</time></trkpt><trkpt lat="44.217958520818286" lon="11.394653706564934"><ele>828.1428571428571</ele><time>2026-05-01T14:14:39.883Z</time></trkpt><trkpt lat="44.21800450454352" lon="11.394726706534756"><ele>827.2857142857142</ele><time>2026-05-01T14:14:41.883Z</time></trkpt><trkpt lat="44.21806073248769" lon="11.394801301116484"><ele>826.4285714285714</ele><time>2026-05-01T14:14:44.883Z</time></trkpt><trkpt lat="44.21813071908146" lon="11.394815880089997"><ele>825.5714285714286</ele><time>2026-05-01T14:14:46.883Z</time></trkpt><trkpt lat="44.21822000860903" lon="11.394785389595942"><ele>824.7142857142858</ele><time>2026-05-01T14:14:49.883Z</time></trkpt><trkpt lat="44.21826795797024" lon="11.39472442499095"><ele>823.8571428571429</ele><time>2026-05-01T14:14:51.883Z</time></trkpt><trkpt lat="44.21831764976503" lon="11.394665082250715"><ele>823.0</ele><time>2026-05-01T14:14:53.883Z</time></trkpt><trkpt lat="44.21838758041605" lon="11.394605787936321"><ele>821.5999999999999</ele><time>2026-05-01T14:14:56.883Z</time></trkpt><trkpt lat="44.218436900995954" lon="11.394547742292593"><ele>820.1999999999999</ele><time>2026-05-01T14:14:58.883Z</time></trkpt><trkpt lat="44.218497173045485" lon="11.394496345103114"><ele>818.8</ele><time>2026-05-01T14:15:00.883Z</time></trkpt><trkpt lat="44.21857801336967" lon="11.394440391536456"><ele>817.4</ele><time>2026-05-01T14:15:02.883Z</time></trkpt><trkpt lat="44.21867498035292" lon="11.394410828287535"><ele>816.0</ele><time>2026-05-01T14:15:04.883Z</time></trkpt><trkpt lat="44.22145396278063" lon="11.398221396423102"><ele>815.0</ele><time>2026-05-01T14:17:31.878Z</time></trkpt><trkpt lat="44.221549115260835" lon="11.3983142078737"><ele>814.0</ele><time>2026-05-01T14:17:33.878Z</time></trkpt><trkpt lat="44.221653005862" lon="11.398371862429984"><ele>813.0</ele><time>2026-05-01T14:17:35.878Z</time></trkpt><trkpt lat="44.221727366444306" lon="11.398450541620921"><ele>812.0</ele><time>2026-05-01T14:17:37.878Z</time></trkpt><trkpt lat="44.221813940671346" lon="11.39849358734811"><ele>811.0</ele><time>2026-05-01T14:17:39.878Z</time></trkpt><trkpt lat="44.22189283091552" lon="11.398580008760833"><ele>809.0</ele><time>2026-05-01T14:17:41.878Z</time></trkpt><trkpt lat="44.22338426025859" lon="11.398544060933485"><ele>809.0</ele><time>2026-05-01T14:18:09.874Z</time></trkpt><trkpt lat="44.22348376691193" lon="11.39855583473667"><ele>809.0</ele><time>2026-05-01T14:18:11.874Z</time></trkpt><trkpt lat="44.22365168190471" lon="11.398549669112384"><ele>809.0</ele><time>2026-05-01T14:18:16.874Z</time></trkpt><trkpt lat="44.22373997971141" lon="11.398549236514363"><ele>809.0</ele><time>2026-05-01T14:18:18.874Z</time></trkpt><trkpt lat="44.223810638635705" lon="11.398504766581125"><ele>809.0</ele><time>2026-05-01T14:18:20.874Z</time></trkpt><trkpt lat="44.22389285446787" lon="11.398503389508356"><ele>809.0</ele><time>2026-05-01T14:18:22.874Z</time></trkpt><trkpt lat="44.22397406619679" lon="11.398516499513146"><ele>809.0</ele><time>2026-05-01T14:18:24.874Z</time></trkpt><trkpt lat="44.22408313798134" lon="11.398494180622482"><ele>809.0</ele><time>2026-05-01T14:18:26.874Z</time></trkpt><trkpt lat="44.22419492431953" lon="11.39844231169265"><ele>809.0</ele><time>2026-05-01T14:18:28.874Z</time></trkpt><trkpt lat="44.22427468225318" lon="11.39841787934419"><ele>809.0</ele><time>2026-05-01T14:18:30.874Z</time></trkpt><trkpt lat="44.224372504989375" lon="11.398422670397844"><ele>808.8000000000001</ele><time>2026-05-01T14:18:32.874Z</time></trkpt><trkpt lat="44.22453133521573" lon="11.3983818431592"><ele>808.6</ele><time>2026-05-01T14:18:36.874Z</time></trkpt><trkpt lat="44.22459414701822" lon="11.398363140342905"><ele>808.4</ele><time>2026-05-01T14:18:37.874Z</time></trkpt><trkpt lat="44.22466660281848" lon="11.398449775406682"><ele>808.2</ele><time>2026-05-01T14:18:40.874Z</time></trkpt><trkpt lat="44.22473006978033" lon="11.398498814572559"><ele>808.0</ele><time>2026-05-01T14:18:42.874Z</time></trkpt><trkpt lat="44.2248145590329" lon="11.39855911220285"><ele>808.0</ele><time>2026-05-01T14:18:45.874Z</time></trkpt><trkpt lat="44.22489365127798" lon="11.398606381057293"><ele>808.0</ele><time>2026-05-01T14:18:47.874Z</time></trkpt><trkpt lat="44.22483213506948" lon="11.398538155853062"><ele>808.0</ele><time>2026-05-01T14:19:55.874Z</time></trkpt><trkpt lat="44.22468715759514" lon="11.398427946603013"><ele>808.0</ele><time>2026-05-01T14:19:59.874Z</time></trkpt><trkpt lat="44.224601996162555" lon="11.398390480391344"><ele>808.0</ele><time>2026-05-01T14:20:01.874Z</time></trkpt><trkpt lat="44.22451563508642" lon="11.398361116769575"><ele>808.0</ele><time>2026-05-01T14:20:03.874Z</time></trkpt><trkpt lat="44.2244420275955" lon="11.398365377820381"><ele>808.0</ele><time>2026-05-01T14:20:05.87Z</time></trkpt><trkpt lat="44.22437912378308" lon="11.398382771422044"><ele>808.0</ele><time>2026-05-01T14:20:07.869Z</time></trkpt><trkpt lat="44.22429660828873" lon="11.398393515228447"><ele>808.0</ele><time>2026-05-01T14:20:09.869Z</time></trkpt><trkpt lat="44.22421393580839" lon="11.398414179432535"><ele>808.0</ele><time>2026-05-01T14:20:11.87Z</time></trkpt><trkpt lat="44.22415279759683" lon="11.398442949983448"><ele>808.0</ele><time>2026-05-01T14:20:12.869Z</time></trkpt><trkpt lat="44.224089103273506" lon="11.398457521788368"><ele>808.0</ele><time>2026-05-01T14:20:13.869Z</time></trkpt><trkpt lat="44.22398345851241" lon="11.398470758004894"><ele>808.2</ele><time>2026-05-01T14:20:15.869Z</time></trkpt><trkpt lat="44.22390064437351" lon="11.398500639823277"><ele>808.4</ele><time>2026-05-01T14:20:17.869Z</time></trkpt><trkpt lat="44.223715088050696" lon="11.398539777264824"><ele>808.6</ele><time>2026-05-01T14:20:21.869Z</time></trkpt><trkpt lat="44.22363889141719" lon="11.398569834902233"><ele>808.8000000000001</ele><time>2026-05-01T14:20:23.869Z</time></trkpt><trkpt lat="44.223555677638956" lon="11.398555479469788"><ele>809.0</ele><time>2026-05-01T14:20:25.869Z</time></trkpt><trkpt lat="44.22344596142757" lon="11.398554106035073"><ele>809.0</ele><time>2026-05-01T14:20:27.869Z</time></trkpt><trkpt lat="44.22338025755138" lon="11.398538830398259"><ele>809.0</ele><time>2026-05-01T14:20:28.869Z</time></trkpt><trkpt lat="44.223319780085184" lon="11.398513192204634"><ele>809.0</ele><time>2026-05-01T14:20:29.869Z</time></trkpt><trkpt lat="44.22320052734962" lon="11.398464634111516"><ele>809.0</ele><time>2026-05-01T14:20:31.869Z</time></trkpt><trkpt lat="44.22311645981873" lon="11.398450607652862"><ele>809.0</ele><time>2026-05-01T14:20:33.869Z</time></trkpt><trkpt lat="44.22300158167985" lon="11.398649093850894"><ele>809.3333333333334</ele><time>2026-05-01T14:20:35.869Z</time></trkpt><trkpt lat="44.2229485887068" lon="11.398698160586425"><ele>809.6666666666667</ele><time>2026-05-01T14:20:36.869Z</time></trkpt><trkpt lat="44.22289471697246" lon="11.398750467286602"><ele>810.0</ele><time>2026-05-01T14:20:37.869Z</time></trkpt><trkpt lat="44.22283780079689" lon="11.398794786506373"><ele>810.3333333333333</ele><time>2026-05-01T14:20:38.869Z</time></trkpt><trkpt lat="44.22268671273284" lon="11.39892030803228"><ele>810.6666666666666</ele><time>2026-05-01T14:20:41.869Z</time></trkpt><trkpt lat="44.222630683778945" lon="11.398979047328613"><ele>811.0</ele><time>2026-05-01T14:20:43.869Z</time></trkpt><trkpt lat="44.22254464508229" lon="11.398992414858183"><ele>811.0</ele><time>2026-05-01T14:20:45.869Z</time></trkpt><trkpt lat="44.22247263806103" lon="11.398975524284804"><ele>811.0</ele><time>2026-05-01T14:20:46.869Z</time></trkpt><trkpt lat="44.22239358094717" lon="11.398964885555042"><ele>811.0</ele><time>2026-05-01T14:20:47.869Z</time></trkpt><trkpt lat="44.22231458068491" lon="11.398934679073216"><ele>811.0</ele><time>2026-05-01T14:20:48.869Z</time></trkpt><trkpt lat="44.22222343352566" lon="11.398842927697608"><ele>811.0</ele><time>2026-05-01T14:20:50.869Z</time></trkpt><trkpt lat="44.2221233838987" lon="11.398731670379647"><ele>811.0</ele><time>2026-05-01T14:20:52.869Z</time></trkpt><trkpt lat="44.222047023353895" lon="11.398662054667833"><ele>811.0</ele><time>2026-05-01T14:20:54.869Z</time></trkpt><trkpt lat="44.22197067912738" lon="11.398600262456588"><ele>811.0</ele><time>2026-05-01T14:20:56.869Z</time></trkpt><trkpt lat="44.221893743282145" lon="11.398513019513496"><ele>811.0</ele><time>2026-05-01T14:20:58.869Z</time></trkpt><trkpt lat="44.221821590997074" lon="11.398446108258307"><ele>811.0</ele><time>2026-05-01T14:21:00.869Z</time></trkpt><trkpt lat="44.22167956144125" lon="11.398341452758885"><ele>810.9999999999999</ele><time>2026-05-01T14:21:03.869Z</time></trkpt><trkpt lat="44.221563210625895" lon="11.398273127163792"><ele>811.0</ele><time>2026-05-01T14:21:05.869Z</time></trkpt><trkpt lat="44.22151005472334" lon="11.398218353755176"><ele>811.0</ele><time>2026-05-01T14:21:06.869Z</time></trkpt><trkpt lat="44.221462015862784" lon="11.398160368900509"><ele>811.0</ele><time>2026-05-01T14:21:07.869Z</time></trkpt><trkpt lat="44.221407134361925" lon="11.398087030398008"><ele>810.9999999999999</ele><time>2026-05-01T14:21:08.869Z</time></trkpt><trkpt lat="44.221350266980885" lon="11.39801410884373"><ele>811.0</ele><time>2026-05-01T14:21:09.869Z</time></trkpt><trkpt lat="44.22130461382878" lon="11.397949280447957"><ele>810.4999999999999</ele><time>2026-05-01T14:21:10.869Z</time></trkpt><trkpt lat="44.22124302384564" lon="11.397878881648602"><ele>810.0</ele><time>2026-05-01T14:21:12.869Z</time></trkpt><trkpt lat="44.2211772918509" lon="11.39784543054896"><ele>809.5</ele><time>2026-05-01T14:21:14.869Z</time></trkpt><trkpt lat="44.22109565612289" lon="11.39773950613696"><ele>809.0</ele><time>2026-05-01T14:21:16.869Z</time></trkpt><trkpt lat="44.22104147702173" lon="11.397679544616933"><ele>808.4999999999999</ele><time>2026-05-01T14:21:17.869Z</time></trkpt><trkpt lat="44.22097444798495" lon="11.397603232976794"><ele>808.0</ele><time>2026-05-01T14:21:18.869Z</time></trkpt><trkpt lat="44.22090095247062" lon="11.397515672878948"><ele>808.0</ele><time>2026-05-01T14:21:19.869Z</time></trkpt><trkpt lat="44.220843240150245" lon="11.397441623328014"><ele>808.0</ele><time>2026-05-01T14:21:20.869Z</time></trkpt><trkpt lat="44.220802676697836" lon="11.397371169156608"><ele>808.0</ele><time>2026-05-01T14:21:21.869Z</time></trkpt><trkpt lat="44.220706690263775" lon="11.397124464469176"><ele>808.0</ele><time>2026-05-01T14:21:24.869Z</time></trkpt><trkpt lat="44.22067908804297" lon="11.397033889246064"><ele>808.0</ele><time>2026-05-01T14:21:25.869Z</time></trkpt><trkpt lat="44.22062227559133" lon="11.396904079272325"><ele>807.3333333333333</ele><time>2026-05-01T14:21:27.869Z</time></trkpt><trkpt lat="44.220574414100675" lon="11.396821477223705"><ele>806.6666666666666</ele><time>2026-05-01T14:21:29.869Z</time></trkpt><trkpt lat="44.22052455776649" lon="11.396735901443174"><ele>806.0</ele><time>2026-05-01T14:21:31.869Z</time></trkpt><trkpt lat="44.220486375113694" lon="11.396655367283559"><ele>805.3333333333333</ele><time>2026-05-01T14:21:33.869Z</time></trkpt><trkpt lat="44.22044348716213" lon="11.396548318714112"><ele>804.6666666666666</ele><time>2026-05-01T14:21:35.869Z</time></trkpt><trkpt lat="44.22040148129459" lon="11.396446285107183"><ele>804.0</ele><time>2026-05-01T14:21:37.869Z</time></trkpt><trkpt lat="44.22034014436799" lon="11.396570499818313"><ele>804.0</ele><time>2026-05-01T14:21:42.869Z</time></trkpt><trkpt lat="44.22040502307512" lon="11.396803577626551"><ele>804.0</ele><time>2026-05-01T14:21:45.869Z</time></trkpt><trkpt lat="44.22040424913895" lon="11.396896985741156"><ele>804.0</ele><time>2026-05-01T14:21:46.869Z</time></trkpt><trkpt lat="44.22041637104586" lon="11.396994107446014"><ele>804.0</ele><time>2026-05-01T14:21:47.869Z</time></trkpt><trkpt lat="44.22042439997109" lon="11.397093067931626"><ele>804.0</ele><time>2026-05-01T14:21:48.869Z</time></trkpt><trkpt lat="44.22043135400567" lon="11.397183289906009"><ele>803.4000000000001</ele><time>2026-05-01T14:21:49.869Z</time></trkpt><trkpt lat="44.22045782522782" lon="11.39729788859209"><ele>802.8</ele><time>2026-05-01T14:21:51.869Z</time></trkpt><trkpt lat="44.22046854847058" lon="11.397425283031353"><ele>802.2</ele><time>2026-05-01T14:21:53.869Z</time></trkpt><trkpt lat="44.22049774242057" lon="11.397561797198813"><ele>801.5999999999999</ele><time>2026-05-01T14:21:55.869Z</time></trkpt><trkpt lat="44.22050840850652" lon="11.397706629416414"><ele>801.0</ele><time>2026-05-01T14:21:57.869Z</time></trkpt><trkpt lat="44.2205615176188" lon="11.397829831641847"><ele>801.0</ele><time>2026-05-01T14:21:59.869Z</time></trkpt><trkpt lat="44.220608226026656" lon="11.397944090164316"><ele>801.0</ele><time>2026-05-01T14:22:01.869Z</time></trkpt><trkpt lat="44.2206179453237" lon="11.398040688961666"><ele>801.0</ele><time>2026-05-01T14:22:03.869Z</time></trkpt><trkpt lat="44.22060029669884" lon="11.398252247615234"><ele>801.0</ele><time>2026-05-01T14:22:07.869Z</time></trkpt><trkpt lat="44.220597312098846" lon="11.398341215240805"><ele>801.0</ele><time>2026-05-01T14:22:09.869Z</time></trkpt><trkpt lat="44.22058951145734" lon="11.398454454922948"><ele>801.0</ele><time>2026-05-01T14:22:11.867Z</time></trkpt><trkpt lat="44.22055782456015" lon="11.398563008109177"><ele>801.0</ele><time>2026-05-01T14:22:15.867Z</time></trkpt><trkpt lat="44.22052666179768" lon="11.398662128988057"><ele>801.0</ele><time>2026-05-01T14:22:18.867Z</time></trkpt><trkpt lat="44.22048116941155" lon="11.398753062754714"><ele>801.0</ele><time>2026-05-01T14:22:20.867Z</time></trkpt><trkpt lat="44.22041132906909" lon="11.398836024557436"><ele>801.0</ele><time>2026-05-01T14:22:22.867Z</time></trkpt><trkpt lat="44.22032108612919" lon="11.398874971917254"><ele>801.0</ele><time>2026-05-01T14:22:24.867Z</time></trkpt><trkpt lat="44.22024063663672" lon="11.399059306678845"><ele>798.5999999999999</ele><time>2026-05-01T14:22:30.867Z</time></trkpt><trkpt lat="44.220186032579484" lon="11.399119714274388"><ele>796.2</ele><time>2026-05-01T14:22:33.867Z</time></trkpt><trkpt lat="44.22013891627154" lon="11.39917985291223"><ele>793.8</ele><time>2026-05-01T14:22:46.866Z</time></trkpt><trkpt lat="44.22013291733886" lon="11.399424400484218"><ele>791.4000000000001</ele><time>2026-05-01T14:22:59.866Z</time></trkpt><trkpt lat="44.22016809739944" lon="11.399527816677184"><ele>789.0</ele><time>2026-05-01T14:23:02.866Z</time></trkpt><trkpt lat="44.22021604480293" lon="11.399601364582303"><ele>789.0</ele><time>2026-05-01T14:23:05.866Z</time></trkpt><trkpt lat="44.22026957379932" lon="11.399665174032936"><ele>789.0</ele><time>2026-05-01T14:23:13.866Z</time></trkpt><trkpt lat="44.220357506286774" lon="11.399846533164878"><ele>789.0</ele><time>2026-05-01T14:23:20.866Z</time></trkpt><trkpt lat="44.220430307128446" lon="11.399893594136312"><ele>789.0</ele><time>2026-05-01T14:23:23.866Z</time></trkpt><trkpt lat="44.22050166162046" lon="11.399911323909938"><ele>789.0</ele><time>2026-05-01T14:23:26.866Z</time></trkpt><trkpt lat="44.220561045065615" lon="11.399951425707053"><ele>789.0</ele><time>2026-05-01T14:23:28.866Z</time></trkpt><trkpt lat="44.22060593188383" lon="11.400034486183685"><ele>786.2</ele><time>2026-05-01T14:23:31.866Z</time></trkpt><trkpt lat="44.220649289968065" lon="11.400135815346243"><ele>783.4000000000001</ele><time>2026-05-01T14:23:34.868Z</time></trkpt><trkpt lat="44.220629247954676" lon="11.400385125296586"><ele>780.6</ele><time>2026-05-01T14:23:39.874Z</time></trkpt><trkpt lat="44.22058178391384" lon="11.400491914268033"><ele>777.8</ele><time>2026-05-01T14:23:41.876Z</time></trkpt><trkpt lat="44.22055965601893" lon="11.400576948011578"><ele>775.0</ele><time>2026-05-01T14:23:43.878Z</time></trkpt><trkpt lat="44.22054657718758" lon="11.40070759338735"><ele>773.6</ele><time>2026-05-01T14:23:46.88Z</time></trkpt><trkpt lat="44.22055529750953" lon="11.400808567421274"><ele>772.2</ele><time>2026-05-01T14:23:48.881Z</time></trkpt><trkpt lat="44.22053097394483" lon="11.400931155471516"><ele>770.8</ele><time>2026-05-01T14:23:50.882Z</time></trkpt><trkpt lat="44.220505145090925" lon="11.401075796769437"><ele>769.4</ele><time>2026-05-01T14:23:52.883Z</time></trkpt><trkpt lat="44.22048724307387" lon="11.401241682809937"><ele>768.0</ele><time>2026-05-01T14:23:54.884Z</time></trkpt><trkpt lat="44.220478281787926" lon="11.401355011260492"><ele>768.0</ele><time>2026-05-01T14:23:57.885Z</time></trkpt><trkpt lat="44.22048981130006" lon="11.40155380616476"><ele>768.0</ele><time>2026-05-01T14:24:03.887Z</time></trkpt><trkpt lat="44.22050282706305" lon="11.401652147247312"><ele>768.0</ele><time>2026-05-01T14:24:05.887Z</time></trkpt><trkpt lat="44.22049835174625" lon="11.401795127174523"><ele>768.0</ele><time>2026-05-01T14:24:07.887Z</time></trkpt><trkpt lat="44.2205077186618" lon="11.401890645486848"><ele>768.0</ele><time>2026-05-01T14:24:09.888Z</time></trkpt><trkpt lat="44.220555828319604" lon="11.402010966900217"><ele>768.0</ele><time>2026-05-01T14:24:12.888Z</time></trkpt><trkpt lat="44.22059120783432" lon="11.402096115306135"><ele>768.0</ele><time>2026-05-01T14:24:14.888Z</time></trkpt><trkpt lat="44.220645060568664" lon="11.402157462144977"><ele>768.0</ele><time>2026-05-01T14:24:16.888Z</time></trkpt><trkpt lat="44.22072325649247" lon="11.402228920622852"><ele>768.0</ele><time>2026-05-01T14:24:18.888Z</time></trkpt><trkpt lat="44.22086312865682" lon="11.402336039992035"><ele>768.0</ele><time>2026-05-01T14:24:22.889Z</time></trkpt><trkpt lat="44.22092340065404" lon="11.40240060959754"><ele>768.0</ele><time>2026-05-01T14:24:24.889Z</time></trkpt><trkpt lat="44.220961845391976" lon="11.402486022007237"><ele>768.0</ele><time>2026-05-01T14:24:26.889Z</time></trkpt><trkpt lat="44.22096340429222" lon="11.402578485658289"><ele>768.0</ele><time>2026-05-01T14:24:28.89Z</time></trkpt><trkpt lat="44.22091048336227" lon="11.402643309621121"><ele>768.0</ele><time>2026-05-01T14:24:30.888Z</time></trkpt><trkpt lat="44.22088516165988" lon="11.402755268978405"><ele>768.0</ele><time>2026-05-01T14:24:32.889Z</time></trkpt><trkpt lat="44.220918259651505" lon="11.402908859785493"><ele>768.0</ele><time>2026-05-01T14:24:34.889Z</time></trkpt><trkpt lat="44.22091303854466" lon="11.403008738502917"><ele>768.0</ele><time>2026-05-01T14:24:35.889Z</time></trkpt><trkpt lat="44.22092448181392" lon="11.403147804707993"><ele>768.0</ele><time>2026-05-01T14:24:37.889Z</time></trkpt><trkpt lat="44.220933516218466" lon="11.403285348889845"><ele>768.0</ele><time>2026-05-01T14:24:39.889Z</time></trkpt><trkpt lat="44.220887713179465" lon="11.403499826007547"><ele>768.0</ele><time>2026-05-01T14:24:43.889Z</time></trkpt><trkpt lat="44.220846722385915" lon="11.403645225042618"><ele>768.0</ele><time>2026-05-01T14:24:45.889Z</time></trkpt><trkpt lat="44.22078994497012" lon="11.40378327095681"><ele>768.0</ele><time>2026-05-01T14:24:47.889Z</time></trkpt><trkpt lat="44.22076450468108" lon="11.403882950331909"><ele>768.0</ele><time>2026-05-01T14:24:49.889Z</time></trkpt><trkpt lat="44.2207168551033" lon="11.403966761238259"><ele>768.0</ele><time>2026-05-01T14:24:51.889Z</time></trkpt><trkpt lat="44.22068365578958" lon="11.40406057213811"><ele>768.0</ele><time>2026-05-01T14:24:53.889Z</time></trkpt><trkpt lat="44.220646197075034" lon="11.404177138799401"><ele>768.0</ele><time>2026-05-01T14:24:56.889Z</time></trkpt><trkpt lat="44.220611491425515" lon="11.404268299359092"><ele>764.0</ele><time>2026-05-01T14:24:58.889Z</time></trkpt><trkpt lat="44.22057052091764" lon="11.404388986576281"><ele>760.0</ele><time>2026-05-01T14:25:00.889Z</time></trkpt><trkpt lat="44.220501729908136" lon="11.40457681940549"><ele>756.0</ele><time>2026-05-01T14:25:05.889Z</time></trkpt><trkpt lat="44.220463018963166" lon="11.4046588350022"><ele>752.0</ele><time>2026-05-01T14:25:08.889Z</time></trkpt><trkpt lat="44.22041731821255" lon="11.404734483060249"><ele>748.0</ele><time>2026-05-01T14:25:11.889Z</time></trkpt><trkpt lat="44.220389915873554" lon="11.404826322918263"><ele>748.0</ele><time>2026-05-01T14:25:14.889Z</time></trkpt><trkpt lat="44.220351168397016" lon="11.404921285790401"><ele>748.0</ele><time>2026-05-01T14:25:17.889Z</time></trkpt><trkpt lat="44.22031908157289" lon="11.40502928492016"><ele>748.0</ele><time>2026-05-01T14:25:21.889Z</time></trkpt><trkpt lat="44.22026386230605" lon="11.405248435856386"><ele>748.0</ele><time>2026-05-01T14:25:27.889Z</time></trkpt><trkpt lat="44.22024013784155" lon="11.405329881282734"><ele>748.0</ele><time>2026-05-01T14:25:29.889Z</time></trkpt><trkpt lat="44.220211539134276" lon="11.405455768833619"><ele>747.0</ele><time>2026-05-01T14:25:31.889Z</time></trkpt><trkpt lat="44.22017660113455" lon="11.405580550095113"><ele>746.0</ele><time>2026-05-01T14:25:33.889Z</time></trkpt><trkpt lat="44.220137314697745" lon="11.405715463693406"><ele>745.0</ele><time>2026-05-01T14:25:35.889Z</time></trkpt><trkpt lat="44.22011920491287" lon="11.405802772582794"><ele>744.0</ele><time>2026-05-01T14:25:36.889Z</time></trkpt><trkpt lat="44.22008701299563" lon="11.405969197511753"><ele>743.0</ele><time>2026-05-01T14:25:38.889Z</time></trkpt><trkpt lat="44.22004942578994" lon="11.406105060302144"><ele>743.0</ele><time>2026-05-01T14:25:40.889Z</time></trkpt><trkpt lat="44.22000658816597" lon="11.406272233331102"><ele>743.0</ele><time>2026-05-01T14:25:42.889Z</time></trkpt><trkpt lat="44.21994957500885" lon="11.406469058021248"><ele>743.0</ele><time>2026-05-01T14:25:44.889Z</time></trkpt><trkpt lat="44.21991868754416" lon="11.406570983009106"><ele>743.0</ele><time>2026-05-01T14:25:45.889Z</time></trkpt><trkpt lat="44.21987991732729" lon="11.406724410711583"><ele>742.2</ele><time>2026-05-01T14:25:47.889Z</time></trkpt><trkpt lat="44.219852617651846" lon="11.406851334910684"><ele>741.4</ele><time>2026-05-01T14:25:49.889Z</time></trkpt><trkpt lat="44.219818761022374" lon="11.407027544802615"><ele>740.6</ele><time>2026-05-01T14:25:51.889Z</time></trkpt><trkpt lat="44.219796940195074" lon="11.407122629743007"><ele>739.8000000000001</ele><time>2026-05-01T14:25:52.889Z</time></trkpt><trkpt lat="44.219776383186534" lon="11.407230950882457"><ele>739.0</ele><time>2026-05-01T14:25:53.889Z</time></trkpt><trkpt lat="44.219754564114815" lon="11.407330241215714"><ele>737.4000000000001</ele><time>2026-05-01T14:25:54.889Z</time></trkpt><trkpt lat="44.21971047808002" lon="11.407476071478651"><ele>735.8</ele><time>2026-05-01T14:25:56.889Z</time></trkpt><trkpt lat="44.21968839080928" lon="11.40757134206336"><ele>734.2</ele><time>2026-05-01T14:25:58.889Z</time></trkpt><trkpt lat="44.219656764512415" lon="11.40768299409197"><ele>732.5999999999999</ele><time>2026-05-01T14:26:00.889Z</time></trkpt><trkpt lat="44.21962591888168" lon="11.407803891529328"><ele>731.0</ele><time>2026-05-01T14:26:50.89Z</time></trkpt><trkpt lat="44.21950195570071" lon="11.407899904463381"><ele>731.0</ele><time>2026-05-01T14:26:54.89Z</time></trkpt><trkpt lat="44.219461208102196" lon="11.407988109894575"><ele>731.0</ele><time>2026-05-01T14:26:56.89Z</time></trkpt><trkpt lat="44.21939090774246" lon="11.408072224420593"><ele>731.0</ele><time>2026-05-01T14:26:58.89Z</time></trkpt><trkpt lat="44.219307693985364" lon="11.408194369865573"><ele>731.0</ele><time>2026-05-01T14:27:00.89Z</time></trkpt><trkpt lat="44.21922958639229" lon="11.408321382601647"><ele>731.0</ele><time>2026-05-01T14:27:02.89Z</time></trkpt><trkpt lat="44.219153276686015" lon="11.40843771458479"><ele>730.8</ele><time>2026-05-01T14:27:04.89Z</time></trkpt><trkpt lat="44.21908063248202" lon="11.408539702697592"><ele>730.5999999999999</ele><time>2026-05-01T14:27:06.89Z</time></trkpt><trkpt lat="44.21899557433207" lon="11.408669100628687"><ele>730.4</ele><time>2026-05-01T14:27:08.89Z</time></trkpt><trkpt lat="44.21895112317153" lon="11.408741814205225"><ele>730.2</ele><time>2026-05-01T14:27:09.89Z</time></trkpt><trkpt lat="44.218882446932135" lon="11.408841826637147"><ele>730.0</ele><time>2026-05-01T14:27:11.89Z</time></trkpt><trkpt lat="44.21875017085822" lon="11.409030899321593"><ele>727.6666666666667</ele><time>2026-05-01T14:27:14.89Z</time></trkpt><trkpt lat="44.21870157912952" lon="11.409102641609362"><ele>725.3333333333334</ele><time>2026-05-01T14:27:15.89Z</time></trkpt><trkpt lat="44.21864914248028" lon="11.40917833445466"><ele>723.0</ele><time>2026-05-01T14:27:16.89Z</time></trkpt><trkpt lat="44.2185939533567" lon="11.409257702681643"><ele>720.6666666666666</ele><time>2026-05-01T14:27:17.89Z</time></trkpt><trkpt lat="44.21853876105107" lon="11.409331365698797"><ele>718.3333333333333</ele><time>2026-05-01T14:27:18.89Z</time></trkpt><trkpt lat="44.21849596691468" lon="11.409399227328946"><ele>716.0</ele><time>2026-05-01T14:27:19.89Z</time></trkpt><trkpt lat="44.218421238600456" lon="11.40952594738333"><ele>716.0</ele><time>2026-05-01T14:27:21.89Z</time></trkpt><trkpt lat="44.21836369124327" lon="11.409571704330187"><ele>716.0</ele><time>2026-05-01T14:27:22.89Z</time></trkpt><trkpt lat="44.218296479160095" lon="11.409680980871382"><ele>716.0</ele><time>2026-05-01T14:27:24.89Z</time></trkpt><trkpt lat="44.21821394750485" lon="11.409778197456765"><ele>716.0</ele><time>2026-05-01T14:27:26.89Z</time></trkpt><trkpt lat="44.21815725826353" lon="11.409921820813745"><ele>716.0</ele><time>2026-05-01T14:27:28.89Z</time></trkpt><trkpt lat="44.21812564209784" lon="11.410003895963762"><ele>714.1999999999999</ele><time>2026-05-01T14:27:29.89Z</time></trkpt><trkpt lat="44.21808672434047" lon="11.410074491963124"><ele>712.4</ele><time>2026-05-01T14:27:30.89Z</time></trkpt><trkpt lat="44.21803784212542" lon="11.410239659038993"><ele>710.6</ele><time>2026-05-01T14:27:32.89Z</time></trkpt><trkpt lat="44.21796233492919" lon="11.410436666845259"><ele>708.8</ele><time>2026-05-01T14:27:34.89Z</time></trkpt><trkpt lat="44.21792146706484" lon="11.410528161965065"><ele>707.0</ele><time>2026-05-01T14:27:35.89Z</time></trkpt><trkpt lat="44.21786738883831" lon="11.41060869820035"><ele>707.0</ele><time>2026-05-01T14:27:36.89Z</time></trkpt><trkpt lat="44.217833954059905" lon="11.410705169582933"><ele>707.0</ele><time>2026-05-01T14:27:37.89Z</time></trkpt><trkpt lat="44.21779913009831" lon="11.410787434991075"><ele>707.0</ele><time>2026-05-01T14:27:38.89Z</time></trkpt><trkpt lat="44.217774937010425" lon="11.4108785696966"><ele>707.0</ele><time>2026-05-01T14:27:39.89Z</time></trkpt><trkpt lat="44.21774563402621" lon="11.410957396138969"><ele>707.0</ele><time>2026-05-01T14:27:40.89Z</time></trkpt><trkpt lat="44.21769401733544" lon="11.411115135677276"><ele>707.0</ele><time>2026-05-01T14:27:42.89Z</time></trkpt><trkpt lat="44.21764749414438" lon="11.41125088588628"><ele>706.3333333333333</ele><time>2026-05-01T14:27:44.89Z</time></trkpt><trkpt lat="44.21758319807864" lon="11.411403140421923"><ele>705.6666666666666</ele><time>2026-05-01T14:27:46.89Z</time></trkpt><trkpt lat="44.21754803721172" lon="11.411483068413602"><ele>705.0</ele><time>2026-05-01T14:27:47.89Z</time></trkpt><trkpt lat="44.21751593311849" lon="11.411567499274032"><ele>704.3333333333334</ele><time>2026-05-01T14:27:48.89Z</time></trkpt><trkpt lat="44.217488844417126" lon="11.411651231039036"><ele>703.6666666666667</ele><time>2026-05-01T14:27:49.89Z</time></trkpt><trkpt lat="44.21745403276166" lon="11.4117354287379"><ele>703.0</ele><time>2026-05-01T14:27:50.89Z</time></trkpt><trkpt lat="44.217430200242305" lon="11.411817901527934"><ele>703.0</ele><time>2026-05-01T14:27:51.89Z</time></trkpt><trkpt lat="44.21737431949326" lon="11.411938977312388"><ele>703.0</ele><time>2026-05-01T14:27:53.89Z</time></trkpt><trkpt lat="44.21723357573142" lon="11.412172086558147"><ele>703.0</ele><time>2026-05-01T14:28:08.89Z</time></trkpt><trkpt lat="44.21712878026242" lon="11.412221329300023"><ele>703.0</ele><time>2026-05-01T14:28:10.89Z</time></trkpt><trkpt lat="44.21703382564538" lon="11.412280077488978"><ele>700.5</ele><time>2026-05-01T14:28:12.89Z</time></trkpt><trkpt lat="44.2169488527526" lon="11.412327530521098"><ele>698.0</ele><time>2026-05-01T14:28:14.89Z</time></trkpt><trkpt lat="44.216768439416924" lon="11.41242225324918"><ele>695.5</ele><time>2026-05-01T14:28:18.89Z</time></trkpt><trkpt lat="44.216679736378296" lon="11.412473203155686"><ele>693.0</ele><time>2026-05-01T14:28:20.89Z</time></trkpt><trkpt lat="44.216558050270585" lon="11.412514256960389"><ele>692.0</ele><time>2026-05-01T14:28:22.89Z</time></trkpt><trkpt lat="44.216456364989426" lon="11.412584868210919"><ele>691.0</ele><time>2026-05-01T14:28:24.89Z</time></trkpt><trkpt lat="44.216393950227" lon="11.412641015068438"><ele>690.0</ele><time>2026-05-01T14:28:25.89Z</time></trkpt><trkpt lat="44.21632678892875" lon="11.412708415498514"><ele>689.0</ele><time>2026-05-01T14:28:26.89Z</time></trkpt><trkpt lat="44.21625593996126" lon="11.41278262724522"><ele>688.0</ele><time>2026-05-01T14:28:27.89Z</time></trkpt><trkpt lat="44.216182643297294" lon="11.412845200950757"><ele>687.0</ele><time>2026-05-01T14:28:28.89Z</time></trkpt><trkpt lat="44.216121182945706" lon="11.412912412284767"><ele>687.0</ele><time>2026-05-01T14:28:29.89Z</time></trkpt><trkpt lat="44.21607011435232" lon="11.412970955604461"><ele>687.0</ele><time>2026-05-01T14:28:30.889Z</time></trkpt><trkpt lat="44.21602124392356" lon="11.413029460135222"><ele>687.0</ele><time>2026-05-01T14:28:31.889Z</time></trkpt><trkpt lat="44.21597069600311" lon="11.413102960444647"><ele>687.0</ele><time>2026-05-01T14:28:32.89Z</time></trkpt><trkpt lat="44.21590077682393" lon="11.413214525343609"><ele>687.0</ele><time>2026-05-01T14:28:34.889Z</time></trkpt><trkpt lat="44.21582316240524" lon="11.413347708117566"><ele>687.0</ele><time>2026-05-01T14:28:36.89Z</time></trkpt><trkpt lat="44.21576171508605" lon="11.413538054738137"><ele>687.3333333333334</ele><time>2026-05-01T14:28:38.89Z</time></trkpt><trkpt lat="44.21574208749487" lon="11.41364369504942"><ele>687.6666666666666</ele><time>2026-05-01T14:28:39.89Z</time></trkpt><trkpt lat="44.21572209659744" lon="11.413757706130365"><ele>688.0</ele><time>2026-05-01T14:28:40.89Z</time></trkpt><trkpt lat="44.2157031693778" lon="11.413857595738824"><ele>688.3333333333333</ele><time>2026-05-01T14:28:41.89Z</time></trkpt><trkpt lat="44.215676957653244" lon="11.413954692180766"><ele>688.6666666666666</ele><time>2026-05-01T14:28:42.89Z</time></trkpt><trkpt lat="44.215648149383284" lon="11.414051407120963"><ele>689.0</ele><time>2026-05-01T14:28:43.89Z</time></trkpt><trkpt lat="44.21561852764555" lon="11.414135219013556"><ele>687.4000000000001</ele><time>2026-05-01T14:28:44.89Z</time></trkpt><trkpt lat="44.21553764776468" lon="11.414247237998138"><ele>685.8</ele><time>2026-05-01T14:28:46.89Z</time></trkpt><trkpt lat="44.21544673813602" lon="11.414367623300178"><ele>684.2</ele><time>2026-05-01T14:28:48.89Z</time></trkpt><trkpt lat="44.21536018902953" lon="11.414474881321311"><ele>682.5999999999999</ele><time>2026-05-01T14:28:50.89Z</time></trkpt><trkpt lat="44.21529882171066" lon="11.414558685932855"><ele>681.0</ele><time>2026-05-01T14:28:52.89Z</time></trkpt><trkpt lat="44.215220314381945" lon="11.414665525968358"><ele>681.0</ele><time>2026-05-01T14:28:54.89Z</time></trkpt><trkpt lat="44.21516841443368" lon="11.414726664842778"><ele>681.0</ele><time>2026-05-01T14:28:55.89Z</time></trkpt><trkpt lat="44.215087376528835" lon="11.41482448611426"><ele>681.0</ele><time>2026-05-01T14:28:57.89Z</time></trkpt><trkpt lat="44.21492670902568" lon="11.415020962448136"><ele>681.0</ele><time>2026-05-01T14:29:01.89Z</time></trkpt><trkpt lat="44.2148349797066" lon="11.415129991019734"><ele>678.0</ele><time>2026-05-01T14:29:03.89Z</time></trkpt><trkpt lat="44.21475902494818" lon="11.415232642047991"><ele>675.0</ele><time>2026-05-01T14:29:05.89Z</time></trkpt><trkpt lat="44.214669337498364" lon="11.415310974406426"><ele>672.0</ele><time>2026-05-01T14:29:07.89Z</time></trkpt><trkpt lat="44.21458745696776" lon="11.415406555848572"><ele>669.0</ele><time>2026-05-01T14:29:09.89Z</time></trkpt><trkpt lat="44.21450370314624" lon="11.415483985763535"><ele>666.0</ele><time>2026-05-01T14:29:11.89Z</time></trkpt><trkpt lat="44.21445363822961" lon="11.415544535136787"><ele>666.0</ele><time>2026-05-01T14:29:13.89Z</time></trkpt><trkpt lat="44.21443468982439" lon="11.415639417550185"><ele>666.0</ele><time>2026-05-01T14:29:15.89Z</time></trkpt><trkpt lat="44.21446283758608" lon="11.415726514265117"><ele>666.0</ele><time>2026-05-01T14:29:17.89Z</time></trkpt><trkpt lat="44.21454847951239" lon="11.41575137655031"><ele>666.0</ele><time>2026-05-01T14:29:19.89Z</time></trkpt><trkpt lat="44.21477968247868" lon="11.415756784335732"><ele>667.0</ele><time>2026-05-01T14:29:23.89Z</time></trkpt><trkpt lat="44.21488211955689" lon="11.415771738504908"><ele>668.0</ele><time>2026-05-01T14:29:25.89Z</time></trkpt><trkpt lat="44.21499864629816" lon="11.415797637699166"><ele>669.0</ele><time>2026-05-01T14:29:27.89Z</time></trkpt><trkpt lat="44.21512010604608" lon="11.415810095434331"><ele>670.0</ele><time>2026-05-01T14:29:29.89Z</time></trkpt><trkpt lat="44.21520556090334" lon="11.415814780938744"><ele>671.0</ele><time>2026-05-01T14:29:31.89Z</time></trkpt><trkpt lat="44.215332134586845" lon="11.41577191762755"><ele>671.0</ele><time>2026-05-01T14:29:33.89Z</time></trkpt><trkpt lat="44.215434427146214" lon="11.415710243644956"><ele>671.0</ele><time>2026-05-01T14:29:35.89Z</time></trkpt><trkpt lat="44.21552067795838" lon="11.415648672128293"><ele>671.0</ele><time>2026-05-01T14:29:37.89Z</time></trkpt><trkpt lat="44.21559118731227" lon="11.415581106850993"><ele>671.0</ele><time>2026-05-01T14:29:39.89Z</time></trkpt><trkpt lat="44.21565983389933" lon="11.41558426649862"><ele>671.0</ele><time>2026-05-01T14:29:41.89Z</time></trkpt><trkpt lat="44.21566271193157" lon="11.41580090445206"><ele>671.0</ele><time>2026-05-01T14:29:45.89Z</time></trkpt><trkpt lat="44.21557087838161" lon="11.415889429522753"><ele>671.0</ele><time>2026-05-01T14:29:47.89Z</time></trkpt><trkpt lat="44.21548696206101" lon="11.415998578095737"><ele>671.0</ele><time>2026-05-01T14:29:49.89Z</time></trkpt><trkpt lat="44.21541769449184" lon="11.416096854649284"><ele>671.0</ele><time>2026-05-01T14:29:51.89Z</time></trkpt><trkpt lat="44.21535238418692" lon="11.416206433737113"><ele>671.0</ele><time>2026-05-01T14:29:53.89Z</time></trkpt><trkpt lat="44.215303059217625" lon="11.41633925885244"><ele>666.75</ele><time>2026-05-01T14:29:55.89Z</time></trkpt><trkpt lat="44.21526114141415" lon="11.416445474606606"><ele>662.5</ele><time>2026-05-01T14:29:57.89Z</time></trkpt><trkpt lat="44.215251355087936" lon="11.416572123217625"><ele>658.25</ele><time>2026-05-01T14:30:00.89Z</time></trkpt><trkpt lat="44.215194381375575" lon="11.416671707298718"><ele>654.0</ele><time>2026-05-01T14:30:04.89Z</time></trkpt><trkpt lat="44.215033519153785" lon="11.416817021424883"><ele>654.0</ele><time>2026-05-01T14:30:07.89Z</time></trkpt><trkpt lat="44.214920023844584" lon="11.416893016389617"><ele>654.0</ele><time>2026-05-01T14:30:09.89Z</time></trkpt><trkpt lat="44.21485722367479" lon="11.4169402150174"><ele>654.0</ele><time>2026-05-01T14:30:10.89Z</time></trkpt><trkpt lat="44.21479020042091" lon="11.416991689173269"><ele>654.0</ele><time>2026-05-01T14:30:11.89Z</time></trkpt><trkpt lat="44.21472792165184" lon="11.41704223394219"><ele>654.0</ele><time>2026-05-01T14:30:12.89Z</time></trkpt><trkpt lat="44.21466972019878" lon="11.417095127899504"><ele>654.0</ele><time>2026-05-01T14:30:13.89Z</time></trkpt><trkpt lat="44.21462165425949" lon="11.417160256557247"><ele>651.5</ele><time>2026-05-01T14:30:14.89Z</time></trkpt><trkpt lat="44.214579660680016" lon="11.41723603308741"><ele>649.0</ele><time>2026-05-01T14:30:15.89Z</time></trkpt><trkpt lat="44.214535954168326" lon="11.417301711611955"><ele>646.5</ele><time>2026-05-01T14:30:16.89Z</time></trkpt><trkpt lat="44.21449191423068" lon="11.417369183388448"><ele>644.0</ele><time>2026-05-01T14:30:17.89Z</time></trkpt><trkpt lat="44.214418780637985" lon="11.417491803811224"><ele>641.5</ele><time>2026-05-01T14:30:19.89Z</time></trkpt><trkpt lat="44.21433157476785" lon="11.417623391838925"><ele>639.0</ele><time>2026-05-01T14:30:21.89Z</time></trkpt><trkpt lat="44.214283178232996" lon="11.417684369373134"><ele>639.0</ele><time>2026-05-01T14:30:22.89Z</time></trkpt><trkpt lat="44.2142277635712" lon="11.417749382873328"><ele>639.0</ele><time>2026-05-01T14:30:23.89Z</time></trkpt><trkpt lat="44.21417514141037" lon="11.417813802486412"><ele>639.0</ele><time>2026-05-01T14:30:24.89Z</time></trkpt><trkpt lat="44.214076373875045" lon="11.417906944560915"><ele>639.0</ele><time>2026-05-01T14:30:26.89Z</time></trkpt><trkpt lat="44.21395566700792" lon="11.418007645188455"><ele>639.0</ele><time>2026-05-01T14:30:28.89Z</time></trkpt><trkpt lat="44.21384839402253" lon="11.418104701356404"><ele>635.6</ele><time>2026-05-01T14:30:30.89Z</time></trkpt><trkpt lat="44.21373787528347" lon="11.418209997706779"><ele>632.2</ele><time>2026-05-01T14:30:32.89Z</time></trkpt><trkpt lat="44.213681204456506" lon="11.418260970809303"><ele>628.8000000000001</ele><time>2026-05-01T14:30:33.89Z</time></trkpt><trkpt lat="44.213623040433916" lon="11.418313778322787"><ele>625.4</ele><time>2026-05-01T14:30:34.89Z</time></trkpt><trkpt lat="44.2135202498031" lon="11.418409145791335"><ele>622.0</ele><time>2026-05-01T14:30:36.89Z</time></trkpt><trkpt lat="44.21344851755309" lon="11.41856098788967"><ele>622.0</ele><time>2026-05-01T14:30:38.89Z</time></trkpt><trkpt lat="44.21341619716479" lon="11.418659805636999"><ele>622.0</ele><time>2026-05-01T14:30:39.889Z</time></trkpt><trkpt lat="44.213394795756365" lon="11.41875491025715"><ele>622.0</ele><time>2026-05-01T14:30:40.889Z</time></trkpt><trkpt lat="44.213369929621315" lon="11.418845786420865"><ele>622.0</ele><time>2026-05-01T14:30:41.89Z</time></trkpt><trkpt lat="44.21334267335192" lon="11.418930000272077"><ele>622.0</ele><time>2026-05-01T14:30:42.889Z</time></trkpt><trkpt lat="44.213300720592215" lon="11.419085307048817"><ele>622.0</ele><time>2026-05-01T14:30:44.89Z</time></trkpt><trkpt lat="44.213223614442576" lon="11.419210496328112"><ele>620.8000000000001</ele><time>2026-05-01T14:30:46.89Z</time></trkpt><trkpt lat="44.213179063914986" lon="11.419275284174836"><ele>619.6</ele><time>2026-05-01T14:30:47.889Z</time></trkpt><trkpt lat="44.21304496999747" lon="11.419465619070966"><ele>618.4000000000001</ele><time>2026-05-01T14:30:50.89Z</time></trkpt><trkpt lat="44.2129904222225" lon="11.41953173025299"><ele>617.2</ele><time>2026-05-01T14:30:51.89Z</time></trkpt><trkpt lat="44.212903189852184" lon="11.419640378824841"><ele>616.0</ele><time>2026-05-01T14:30:53.89Z</time></trkpt><trkpt lat="44.212807142908" lon="11.41977021427377"><ele>614.6</ele><time>2026-05-01T14:30:55.89Z</time></trkpt><trkpt lat="44.21276027361387" lon="11.419840563393464"><ele>613.2</ele><time>2026-05-01T14:30:56.89Z</time></trkpt><trkpt lat="44.21267146855512" lon="11.419947526630903"><ele>611.8</ele><time>2026-05-01T14:30:58.89Z</time></trkpt><trkpt lat="44.212579518897265" lon="11.42006627896758"><ele>610.4</ele><time>2026-05-01T14:31:00.89Z</time></trkpt><trkpt lat="44.21246589351597" lon="11.420166672834652"><ele>609.0</ele><time>2026-05-01T14:31:02.89Z</time></trkpt><trkpt lat="44.21238763417611" lon="11.420217389456685"><ele>607.4</ele><time>2026-05-01T14:31:03.89Z</time></trkpt><trkpt lat="44.21231723944049" lon="11.420268522121466"><ele>605.8</ele><time>2026-05-01T14:31:04.89Z</time></trkpt><trkpt lat="44.21224743965881" lon="11.420295302660115"><ele>604.2</ele><time>2026-05-01T14:31:05.89Z</time></trkpt><trkpt lat="44.21213028655081" lon="11.42036686927103"><ele>602.6</ele><time>2026-05-01T14:31:07.89Z</time></trkpt><trkpt lat="44.21200720278585" lon="11.420384892565348"><ele>601.0</ele><time>2026-05-01T14:31:09.89Z</time></trkpt><trkpt lat="44.21187970100126" lon="11.420365983739392"><ele>601.0</ele><time>2026-05-01T14:31:11.89Z</time></trkpt><trkpt lat="44.21176830881255" lon="11.420312216373198"><ele>601.0</ele><time>2026-05-01T14:31:13.89Z</time></trkpt><trkpt lat="44.21164962427672" lon="11.420260444427054"><ele>601.0</ele><time>2026-05-01T14:31:15.89Z</time></trkpt><trkpt lat="44.211584339972184" lon="11.420244509070447"><ele>601.0</ele><time>2026-05-01T14:31:16.89Z</time></trkpt><trkpt lat="44.21151831108793" lon="11.420256191706931"><ele>601.0</ele><time>2026-05-01T14:31:17.89Z</time></trkpt><trkpt lat="44.21144598065881" lon="11.420301207589675"><ele>599.0</ele><time>2026-05-01T14:31:18.89Z</time></trkpt><trkpt lat="44.21137487677018" lon="11.420350017510735"><ele>597.0</ele><time>2026-05-01T14:31:19.89Z</time></trkpt><trkpt lat="44.21130678594371" lon="11.4204116367901"><ele>595.0</ele><time>2026-05-01T14:31:20.89Z</time></trkpt><trkpt lat="44.21124372214048" lon="11.420472537954826"><ele>593.0</ele><time>2026-05-01T14:31:21.89Z</time></trkpt><trkpt lat="44.2111777012901" lon="11.420501870664259"><ele>591.0</ele><time>2026-05-01T14:31:22.89Z</time></trkpt><trkpt lat="44.211109155877594" lon="11.42055122624072"><ele>589.0</ele><time>2026-05-01T14:31:23.89Z</time></trkpt><trkpt lat="44.21104875824237" lon="11.420588089042788"><ele>587.0</ele><time>2026-05-01T14:31:24.89Z</time></trkpt><trkpt lat="44.21099650494959" lon="11.420648402826217"><ele>585.5</ele><time>2026-05-01T14:31:25.89Z</time></trkpt><trkpt lat="44.210948128006066" lon="11.420723837321617"><ele>584.0</ele><time>2026-05-01T14:31:26.89Z</time></trkpt><trkpt lat="44.21090504402717" lon="11.42080637646234"><ele>582.5</ele><time>2026-05-01T14:31:27.89Z</time></trkpt><trkpt lat="44.21086908258586" lon="11.420891175873738"><ele>581.0</ele><time>2026-05-01T14:31:28.89Z</time></trkpt><trkpt lat="44.21083396632813" lon="11.420969387719007"><ele>579.5</ele><time>2026-05-01T14:31:29.89Z</time></trkpt><trkpt lat="44.21077293613214" lon="11.421106689591053"><ele>578.0</ele><time>2026-05-01T14:31:31.89Z</time></trkpt><trkpt lat="44.21062093222207" lon="11.421250239318187"><ele>575.1999999999999</ele><time>2026-05-01T14:31:34.89Z</time></trkpt><trkpt lat="44.21052068114606" lon="11.421272630218988"><ele>572.4</ele><time>2026-05-01T14:31:36.89Z</time></trkpt><trkpt lat="44.21043422915049" lon="11.421272853611136"><ele>569.5999999999999</ele><time>2026-05-01T14:31:38.89Z</time></trkpt><trkpt lat="44.21032934517961" lon="11.421246884351957"><ele>566.8</ele><time>2026-05-01T14:31:40.89Z</time></trkpt><trkpt lat="44.21022455449683" lon="11.421202474146632"><ele>564.0</ele><time>2026-05-01T14:31:42.89Z</time></trkpt><trkpt lat="44.210122215080176" lon="11.421164117452404"><ele>564.0</ele><time>2026-05-01T14:31:44.89Z</time></trkpt><trkpt lat="44.21003824958654" lon="11.421080651339778"><ele>564.0</ele><time>2026-05-01T14:31:46.89Z</time></trkpt><trkpt lat="44.210010699107016" lon="11.420987905983718"><ele>564.0</ele><time>2026-05-01T14:31:47.89Z</time></trkpt><trkpt lat="44.20995214893934" lon="11.420920429383736"><ele>564.0</ele><time>2026-05-01T14:31:48.89Z</time></trkpt><trkpt lat="44.20989827011633" lon="11.420850777915263"><ele>564.0</ele><time>2026-05-01T14:31:49.89Z</time></trkpt><trkpt lat="44.20983815169024" lon="11.420785373654965"><ele>564.0</ele><time>2026-05-01T14:31:50.89Z</time></trkpt><trkpt lat="44.20976410971971" lon="11.420725723705557"><ele>560.4</ele><time>2026-05-01T14:31:51.89Z</time></trkpt><trkpt lat="44.20969396026824" lon="11.420677547307694"><ele>556.8</ele><time>2026-05-01T14:31:52.89Z</time></trkpt><trkpt lat="44.20955085798413" lon="11.42061973812663"><ele>553.2</ele><time>2026-05-01T14:31:54.89Z</time></trkpt><trkpt lat="44.20948008106039" lon="11.420605615087801"><ele>549.6</ele><time>2026-05-01T14:31:55.89Z</time></trkpt><trkpt lat="44.20941143908649" lon="11.42061271416691"><ele>546.0</ele><time>2026-05-01T14:31:56.89Z</time></trkpt><trkpt lat="44.20929254277614" lon="11.420599719334353"><ele>546.0</ele><time>2026-05-01T14:31:58.89Z</time></trkpt><trkpt lat="44.209186806990054" lon="11.420567065530037"><ele>546.0</ele><time>2026-05-01T14:32:00.89Z</time></trkpt><trkpt lat="44.2091002535069" lon="11.420499890235902"><ele>546.0</ele><time>2026-05-01T14:32:02.89Z</time></trkpt><trkpt lat="44.20901563215513" lon="11.42041527606947"><ele>546.0</ele><time>2026-05-01T14:32:04.89Z</time></trkpt><trkpt lat="44.20895546207795" lon="11.420370818088053"><ele>546.0</ele><time>2026-05-01T14:32:05.89Z</time></trkpt><trkpt lat="44.20889857077661" lon="11.420239351496077"><ele>546.1666666666666</ele><time>2026-05-01T14:32:07.89Z</time></trkpt><trkpt lat="44.20888759486693" lon="11.420090646678151"><ele>546.3333333333334</ele><time>2026-05-01T14:32:09.89Z</time></trkpt><trkpt lat="44.20892126451364" lon="11.420015968695019"><ele>546.5</ele><time>2026-05-01T14:32:10.89Z</time></trkpt><trkpt lat="44.208936492898786" lon="11.419926426846567"><ele>546.6666666666667</ele><time>2026-05-01T14:32:11.89Z</time></trkpt><trkpt lat="44.208979165236755" lon="11.419841836426498"><ele>546.8333333333334</ele><time>2026-05-01T14:32:12.89Z</time></trkpt><trkpt lat="44.20904001274297" lon="11.419708541951975"><ele>547.0</ele><time>2026-05-01T14:32:14.89Z</time></trkpt><trkpt lat="44.20890542649749" lon="11.419460413465806"><ele>547.5</ele><time>2026-05-01T14:32:18.89Z</time></trkpt><trkpt lat="44.20881754368326" lon="11.419460043552439"><ele>548.0</ele><time>2026-05-01T14:32:19.89Z</time></trkpt><trkpt lat="44.20873265671848" lon="11.419457313292893"><ele>548.5</ele><time>2026-05-01T14:32:20.89Z</time></trkpt><trkpt lat="44.20866067259717" lon="11.419484197685867"><ele>549.0</ele><time>2026-05-01T14:32:21.89Z</time></trkpt><trkpt lat="44.208599834410975" lon="11.419545977791806"><ele>549.5</ele><time>2026-05-01T14:32:22.89Z</time></trkpt><trkpt lat="44.208540267438174" lon="11.419616909284658"><ele>550.0</ele><time>2026-05-01T14:32:23.89Z</time></trkpt><trkpt lat="44.208481862577294" lon="11.419650508900565"><ele>550.0</ele><time>2026-05-01T14:32:24.89Z</time></trkpt><trkpt lat="44.208411060713644" lon="11.419684774496774"><ele>550.0</ele><time>2026-05-01T14:32:33.89Z</time></trkpt><trkpt lat="44.20833970631359" lon="11.419799021830682"><ele>550.0</ele><time>2026-05-01T14:32:35.89Z</time></trkpt><trkpt lat="44.20833352635912" lon="11.420047268005387"><ele>550.0</ele><time>2026-05-01T14:32:38.89Z</time></trkpt><trkpt lat="44.20836025231702" lon="11.42015624645156"><ele>550.0</ele><time>2026-05-01T14:32:39.89Z</time></trkpt><trkpt lat="44.20839182870372" lon="11.420277565020074"><ele>550.0</ele><time>2026-05-01T14:32:40.89Z</time></trkpt><trkpt lat="44.20840719601063" lon="11.420411645963403"><ele>550.0</ele><time>2026-05-01T14:32:41.89Z</time></trkpt><trkpt lat="44.20840534738323" lon="11.420550584304268"><ele>550.0</ele><time>2026-05-01T14:32:42.89Z</time></trkpt><trkpt lat="44.20841208785136" lon="11.42069471035187"><ele>550.0</ele><time>2026-05-01T14:32:43.89Z</time></trkpt><trkpt lat="44.20840470530459" lon="11.420826653914808"><ele>550.0</ele><time>2026-05-01T14:32:44.89Z</time></trkpt><trkpt lat="44.20840407460423" lon="11.420942927712735"><ele>550.6666666666667</ele><time>2026-05-01T14:32:45.89Z</time></trkpt><trkpt lat="44.208385395740194" lon="11.421058414369762"><ele>551.3333333333334</ele><time>2026-05-01T14:32:46.89Z</time></trkpt><trkpt lat="44.2083732217655" lon="11.421162757175992"><ele>552.0</ele><time>2026-05-01T14:32:47.89Z</time></trkpt><trkpt lat="44.208366381587915" lon="11.421257302092915"><ele>552.6666666666666</ele><time>2026-05-01T14:32:48.89Z</time></trkpt><trkpt lat="44.20836085162908" lon="11.421354085361706"><ele>553.3333333333333</ele><time>2026-05-01T14:32:49.89Z</time></trkpt><trkpt lat="44.20836581189804" lon="11.421468753327483"><ele>554.0</ele><time>2026-05-01T14:32:50.89Z</time></trkpt><trkpt lat="44.208375341800526" lon="11.421596926952294"><ele>554.6</ele><time>2026-05-01T14:32:51.89Z</time></trkpt><trkpt lat="44.208379242771485" lon="11.421737588780806"><ele>555.2</ele><time>2026-05-01T14:32:52.89Z</time></trkpt><trkpt lat="44.20840627632932" lon="11.421889116872205"><ele>555.8000000000001</ele><time>2026-05-01T14:32:53.889Z</time></trkpt><trkpt lat="44.20842525140838" lon="11.422016782989006"><ele>556.4</ele><time>2026-05-01T14:32:54.89Z</time></trkpt><trkpt lat="44.208433580534575" lon="11.422141089545738"><ele>557.0</ele><time>2026-05-01T14:32:55.89Z</time></trkpt><trkpt lat="44.20844501272394" lon="11.42226420259776"><ele>560.25</ele><time>2026-05-01T14:32:56.89Z</time></trkpt><trkpt lat="44.2084915621534" lon="11.42252416241915"><ele>563.5</ele><time>2026-05-01T14:32:58.89Z</time></trkpt><trkpt lat="44.20851527116963" lon="11.422670322641006"><ele>566.75</ele><time>2026-05-01T14:32:59.89Z</time></trkpt><trkpt lat="44.20853447811591" lon="11.422846031807067"><ele>570.0</ele><time>2026-05-01T14:33:00.89Z</time></trkpt><trkpt lat="44.208550263546286" lon="11.42302508026881"><ele>571.0</ele><time>2026-05-01T14:33:01.89Z</time></trkpt><trkpt lat="44.208559852751385" lon="11.423172485747001"><ele>572.0</ele><time>2026-05-01T14:33:02.89Z</time></trkpt><trkpt lat="44.20857247610583" lon="11.423299546580477"><ele>573.0</ele><time>2026-05-01T14:33:03.89Z</time></trkpt><trkpt lat="44.20858984575774" lon="11.423413156956817"><ele>574.0</ele><time>2026-05-01T14:33:04.89Z</time></trkpt><trkpt lat="44.20859986349213" lon="11.423509662579793"><ele>575.0</ele><time>2026-05-01T14:33:05.89Z</time></trkpt><trkpt lat="44.20861335559413" lon="11.423604233241624"><ele>576.0</ele><time>2026-05-01T14:33:06.89Z</time></trkpt><trkpt lat="44.2085988635785" lon="11.423709506650226"><ele>576.0</ele><time>2026-05-01T14:33:08.89Z</time></trkpt><trkpt lat="44.208555691367735" lon="11.42352161262775"><ele>576.0</ele><time>2026-05-01T14:33:16.89Z</time></trkpt><trkpt lat="44.208498137254985" lon="11.423350324140888"><ele>576.0</ele><time>2026-05-01T14:33:17.89Z</time></trkpt><trkpt lat="44.20840293998905" lon="11.423081476291024"><ele>574.5</ele><time>2026-05-01T14:33:19.89Z</time></trkpt><trkpt lat="44.20838866953717" lon="11.422936708103707"><ele>573.0</ele><time>2026-05-01T14:33:20.89Z</time></trkpt><trkpt lat="44.20834598027361" lon="11.422793310359221"><ele>571.5</ele><time>2026-05-01T14:33:21.89Z</time></trkpt><trkpt lat="44.20829392537542" lon="11.422642494656454"><ele>570.0</ele><time>2026-05-01T14:33:22.89Z</time></trkpt><trkpt lat="44.208247607959954" lon="11.42248440882944"><ele>570.0</ele><time>2026-05-01T14:33:23.89Z</time></trkpt><trkpt lat="44.2082015567108" lon="11.422316161908142"><ele>570.0</ele><time>2026-05-01T14:33:24.89Z</time></trkpt><trkpt lat="44.20813550835817" lon="11.422146348107223"><ele>570.0</ele><time>2026-05-01T14:33:25.89Z</time></trkpt><trkpt lat="44.20804793304515" lon="11.421989892864891"><ele>570.0</ele><time>2026-05-01T14:33:26.89Z</time></trkpt><trkpt lat="44.20794903479287" lon="11.42186155924601"><ele>573.0</ele><time>2026-05-01T14:33:27.89Z</time></trkpt><trkpt lat="44.20784947928036" lon="11.421754034698344"><ele>576.0</ele><time>2026-05-01T14:33:28.89Z</time></trkpt><trkpt lat="44.20776328093756" lon="11.421654058206391"><ele>579.0</ele><time>2026-05-01T14:33:29.89Z</time></trkpt><trkpt lat="44.20770380928809" lon="11.421547240204161"><ele>582.0</ele><time>2026-05-01T14:33:30.89Z</time></trkpt><trkpt lat="44.207669160565274" lon="11.421416564159417"><ele>585.0</ele><time>2026-05-01T14:33:31.89Z</time></trkpt><trkpt lat="44.20766543956047" lon="11.42126933545599"><ele>585.0</ele><time>2026-05-01T14:33:32.89Z</time></trkpt><trkpt lat="44.207669908302584" lon="11.421112147430543"><ele>585.0</ele><time>2026-05-01T14:33:33.89Z</time></trkpt><trkpt lat="44.20765885141441" lon="11.420956659951928"><ele>585.0</ele><time>2026-05-01T14:33:34.89Z</time></trkpt><trkpt lat="44.207627399872166" lon="11.42081101339719"><ele>585.0</ele><time>2026-05-01T14:33:35.89Z</time></trkpt><trkpt lat="44.207571822697886" lon="11.420669283695462"><ele>585.0</ele><time>2026-05-01T14:33:36.89Z</time></trkpt><trkpt lat="44.2075059811513" lon="11.420523350505132"><ele>585.0</ele><time>2026-05-01T14:33:37.89Z</time></trkpt><trkpt lat="44.20743938175556" lon="11.42036756181852"><ele>585.0</ele><time>2026-05-01T14:33:38.89Z</time></trkpt><trkpt lat="44.20725946129196" lon="11.420060716697439"><ele>592.3333333333334</ele><time>2026-05-01T14:33:40.89Z</time></trkpt><trkpt lat="44.20714812908219" lon="11.419901074756698"><ele>599.6666666666667</ele><time>2026-05-01T14:33:41.89Z</time></trkpt><trkpt lat="44.207034401476285" lon="11.419739852984526"><ele>607.0</ele><time>2026-05-01T14:33:42.89Z</time></trkpt><trkpt lat="44.20692036698538" lon="11.419571267332246"><ele>607.0</ele><time>2026-05-01T14:33:43.89Z</time></trkpt><trkpt lat="44.20680365402605" lon="11.419400127360651"><ele>607.0</ele><time>2026-05-01T14:33:44.89Z</time></trkpt><trkpt lat="44.20668436363777" lon="11.419224976951755"><ele>607.0</ele><time>2026-05-01T14:33:45.89Z</time></trkpt><trkpt lat="44.206568343327774" lon="11.419053015023334"><ele>611.6666666666667</ele><time>2026-05-01T14:33:46.89Z</time></trkpt><trkpt lat="44.20645076310432" lon="11.418885664193944"><ele>616.3333333333334</ele><time>2026-05-01T14:33:47.89Z</time></trkpt><trkpt lat="44.20633343188262" lon="11.418717666720815"><ele>621.0</ele><time>2026-05-01T14:33:48.89Z</time></trkpt><trkpt lat="44.206216706451166" lon="11.418548976210712"><ele>621.0</ele><time>2026-05-01T14:33:49.89Z</time></trkpt><trkpt lat="44.20610070450295" lon="11.418386932274743"><ele>621.0</ele><time>2026-05-01T14:33:50.89Z</time></trkpt><trkpt lat="44.20598063271757" lon="11.418238428561503"><ele>621.0</ele><time>2026-05-01T14:33:51.89Z</time></trkpt><trkpt lat="44.20585367742792" lon="11.41809798366736"><ele>617.3333333333334</ele><time>2026-05-01T14:33:52.89Z</time></trkpt><trkpt lat="44.20572046488173" lon="11.417958495471632"><ele>613.6666666666667</ele><time>2026-05-01T14:33:53.89Z</time></trkpt><trkpt lat="44.20558477536704" lon="11.417828150358812"><ele>610.0</ele><time>2026-05-01T14:33:54.89Z</time></trkpt><trkpt lat="44.20545579436269" lon="11.417701008478641"><ele>615.5</ele><time>2026-05-01T14:33:55.89Z</time></trkpt><trkpt lat="44.205339109020336" lon="11.41756161300388"><ele>621.0</ele><time>2026-05-01T14:33:56.89Z</time></trkpt><trkpt lat="44.20523010120158" lon="11.417422918007627"><ele>626.5</ele><time>2026-05-01T14:33:57.89Z</time></trkpt><trkpt lat="44.20512601708062" lon="11.41728916410614"><ele>632.0</ele><time>2026-05-01T14:33:58.89Z</time></trkpt><trkpt lat="44.205025658840235" lon="11.417157290893945"><ele>637.3333333333333</ele><time>2026-05-01T14:33:59.89Z</time></trkpt><trkpt lat="44.204824396415546" lon="11.416888024152712"><ele>642.6666666666666</ele><time>2026-05-01T14:34:01.89Z</time></trkpt><trkpt lat="44.20471353831948" lon="11.41677251110912"><ele>648.0</ele><time>2026-05-01T14:34:02.89Z</time></trkpt><trkpt lat="44.204612860952615" lon="11.416676527450926"><ele>648.0</ele><time>2026-05-01T14:34:03.89Z</time></trkpt><trkpt lat="44.20450114397969" lon="11.416598781829618"><ele>648.0</ele><time>2026-05-01T14:34:04.89Z</time></trkpt><trkpt lat="44.20441033536518" lon="11.416489385762224"><ele>648.0</ele><time>2026-05-01T14:34:05.89Z</time></trkpt><trkpt lat="44.20430077376167" lon="11.416391562188632"><ele>648.0</ele><time>2026-05-01T14:34:06.89Z</time></trkpt><trkpt lat="44.20419070309244" lon="11.41629805585194"><ele>649.5</ele><time>2026-05-01T14:34:07.89Z</time></trkpt><trkpt lat="44.20408123707173" lon="11.416193695155513"><ele>651.0</ele><time>2026-05-01T14:34:08.89Z</time></trkpt><trkpt lat="44.203971561679964" lon="11.416091022154374"><ele>652.5</ele><time>2026-05-01T14:34:09.89Z</time></trkpt><trkpt lat="44.20387002393196" lon="11.415997376600442"><ele>654.0</ele><time>2026-05-01T14:34:10.89Z</time></trkpt><trkpt lat="44.203760000618885" lon="11.415909972782215"><ele>654.0</ele><time>2026-05-01T14:34:11.89Z</time></trkpt><trkpt lat="44.20365596838323" lon="11.41580635123788"><ele>654.0</ele><time>2026-05-01T14:34:12.89Z</time></trkpt><trkpt lat="44.20355565414295" lon="11.41573633415756"><ele>654.0</ele><time>2026-05-01T14:34:13.89Z</time></trkpt><trkpt lat="44.20345301439216" lon="11.415685166417369"><ele>654.0</ele><time>2026-05-01T14:34:14.89Z</time></trkpt><trkpt lat="44.20335755235141" lon="11.415608524601582"><ele>654.0</ele><time>2026-05-01T14:34:15.89Z</time></trkpt><trkpt lat="44.20328269996602" lon="11.415507566855036"><ele>654.0</ele><time>2026-05-01T14:34:16.89Z</time></trkpt><trkpt lat="44.20319630073637" lon="11.415407966520016"><ele>654.0</ele><time>2026-05-01T14:34:17.89Z</time></trkpt><trkpt lat="44.20311222940205" lon="11.415308152375914"><ele>654.0</ele><time>2026-05-01T14:34:18.89Z</time></trkpt><trkpt lat="44.203038084262296" lon="11.415217114840194"><ele>654.0</ele><time>2026-05-01T14:34:19.89Z</time></trkpt><trkpt lat="44.20295338991402" lon="11.41515492724038"><ele>654.6666666666666</ele><time>2026-05-01T14:34:20.89Z</time></trkpt><trkpt lat="44.20270293045486" lon="11.41506679585529"><ele>655.3333333333333</ele><time>2026-05-01T14:34:22.89Z</time></trkpt><trkpt lat="44.20257172865092" lon="11.415021266464795"><ele>656.0</ele><time>2026-05-01T14:34:23.89Z</time></trkpt><trkpt lat="44.20243021577767" lon="11.41496948636154"><ele>659.6666666666666</ele><time>2026-05-01T14:34:24.89Z</time></trkpt><trkpt lat="44.20228121626558" lon="11.414913495776547"><ele>663.3333333333334</ele><time>2026-05-01T14:34:25.89Z</time></trkpt><trkpt lat="44.20213124713393" lon="11.414842215870523"><ele>667.0</ele><time>2026-05-01T14:34:26.89Z</time></trkpt><trkpt lat="44.20197046123492" lon="11.414775738504662"><ele>667.0</ele><time>2026-05-01T14:34:27.89Z</time></trkpt><trkpt lat="44.2018018181172" lon="11.414719539132262"><ele>667.0</ele><time>2026-05-01T14:34:28.89Z</time></trkpt><trkpt lat="44.20163477242738" lon="11.414676731270502"><ele>667.0</ele><time>2026-05-01T14:34:29.89Z</time></trkpt><trkpt lat="44.201484209683244" lon="11.414665354989744"><ele>668.5</ele><time>2026-05-01T14:34:30.89Z</time></trkpt><trkpt lat="44.201333706787686" lon="11.414678418107185"><ele>670.0</ele><time>2026-05-01T14:34:31.89Z</time></trkpt><trkpt lat="44.201188669169944" lon="11.41471996935721"><ele>671.5</ele><time>2026-05-01T14:34:32.89Z</time></trkpt><trkpt lat="44.20105441700591" lon="11.414793320599488"><ele>673.0</ele><time>2026-05-01T14:34:33.89Z</time></trkpt><trkpt lat="44.200920494704256" lon="11.414831522904649"><ele>673.0</ele><time>2026-05-01T14:34:34.89Z</time></trkpt><trkpt lat="44.20081755051429" lon="11.414893304011994"><ele>673.0</ele><time>2026-05-01T14:34:35.89Z</time></trkpt><trkpt lat="44.20070479962749" lon="11.414882390898605"><ele>673.0</ele><time>2026-05-01T14:34:36.89Z</time></trkpt><trkpt lat="44.20059103060145" lon="11.414818651032595"><ele>673.0</ele><time>2026-05-01T14:34:37.89Z</time></trkpt><trkpt lat="44.20046932792356" lon="11.414740900005516"><ele>673.5</ele><time>2026-05-01T14:34:38.89Z</time></trkpt><trkpt lat="44.20034186618766" lon="11.414647489157778"><ele>674.0</ele><time>2026-05-01T14:34:39.89Z</time></trkpt><trkpt lat="44.20021774082679" lon="11.414549019923767"><ele>674.5</ele><time>2026-05-01T14:34:40.89Z</time></trkpt><trkpt lat="44.2000808126754" lon="11.41445182284361"><ele>675.0</ele><time>2026-05-01T14:34:41.89Z</time></trkpt><trkpt lat="44.19978276363296" lon="11.414247678727966"><ele>682.3333333333334</ele><time>2026-05-01T14:34:43.89Z</time></trkpt><trkpt lat="44.19963663441112" lon="11.414128804537725"><ele>689.6666666666667</ele><time>2026-05-01T14:34:44.89Z</time></trkpt><trkpt lat="44.19949798994141" lon="11.413992989814835"><ele>697.0</ele><time>2026-05-01T14:34:45.89Z</time></trkpt><trkpt lat="44.1993748882215" lon="11.413838309186108"><ele>696.0</ele><time>2026-05-01T14:34:46.89Z</time></trkpt><trkpt lat="44.19927975335307" lon="11.41369646395092"><ele>695.0</ele><time>2026-05-01T14:34:47.889Z</time></trkpt><trkpt lat="44.199192402627034" lon="11.413534697175242"><ele>694.0</ele><time>2026-05-01T14:34:48.89Z</time></trkpt><trkpt lat="44.19911011877916" lon="11.413371327013015"><ele>693.0</ele><time>2026-05-01T14:34:49.89Z</time></trkpt><trkpt lat="44.19904186909237" lon="11.413202593955688"><ele>699.25</ele><time>2026-05-01T14:34:50.89Z</time></trkpt><trkpt lat="44.198990312948105" lon="11.413024931045708"><ele>705.5</ele><time>2026-05-01T14:34:51.89Z</time></trkpt><trkpt lat="44.198961235507724" lon="11.412836935048608"><ele>711.75</ele><time>2026-05-01T14:34:52.89Z</time></trkpt><trkpt lat="44.198949947337276" lon="11.412652191958005"><ele>718.0</ele><time>2026-05-01T14:34:53.889Z</time></trkpt><trkpt lat="44.198935995421714" lon="11.412471208173631"><ele>718.0</ele><time>2026-05-01T14:34:54.889Z</time></trkpt><trkpt lat="44.19890700369065" lon="11.41229688915172"><ele>718.0</ele><time>2026-05-01T14:34:55.889Z</time></trkpt><trkpt lat="44.19886329404102" lon="11.412124443828091"><ele>718.0</ele><time>2026-05-01T14:34:56.89Z</time></trkpt><trkpt lat="44.19880439185178" lon="11.411961372300748"><ele>718.0</ele><time>2026-05-01T14:34:57.889Z</time></trkpt><trkpt lat="44.19872450649175" lon="11.411806975034839"><ele>716.0</ele><time>2026-05-01T14:34:58.889Z</time></trkpt><trkpt lat="44.19866929872277" lon="11.411630776836553"><ele>714.0</ele><time>2026-05-01T14:34:59.889Z</time></trkpt><trkpt lat="44.19860974680504" lon="11.411460506791213"><ele>712.0</ele><time>2026-05-01T14:35:00.89Z</time></trkpt><trkpt lat="44.198557307446" lon="11.411280673050914"><ele>710.0</ele><time>2026-05-01T14:35:01.89Z</time></trkpt><trkpt lat="44.1985050831661" lon="11.411100465468973"><ele>709.6666666666666</ele><time>2026-05-01T14:35:02.89Z</time></trkpt><trkpt lat="44.19840695839829" lon="11.410781858255842"><ele>709.3333333333334</ele><time>2026-05-01T14:35:04.89Z</time></trkpt><trkpt lat="44.198355155327924" lon="11.410634421815953"><ele>709.0</ele><time>2026-05-01T14:35:05.89Z</time></trkpt><trkpt lat="44.1983125441016" lon="11.410503520190675"><ele>711.0</ele><time>2026-05-01T14:35:06.89Z</time></trkpt><trkpt lat="44.19827729423618" lon="11.410369058709081"><ele>713.0</ele><time>2026-05-01T14:35:07.89Z</time></trkpt><trkpt lat="44.19825573506863" lon="11.410219699048577"><ele>715.0</ele><time>2026-05-01T14:35:08.89Z</time></trkpt><trkpt lat="44.19826301695462" lon="11.410059364306601"><ele>717.0</ele><time>2026-05-01T14:35:09.89Z</time></trkpt><trkpt lat="44.19829882382777" lon="11.4098985118377"><ele>719.0</ele><time>2026-05-01T14:35:10.89Z</time></trkpt><trkpt lat="44.198342490819826" lon="11.409728014036961"><ele>720.25</ele><time>2026-05-01T14:35:11.89Z</time></trkpt><trkpt lat="44.19838352061765" lon="11.409538943037218"><ele>721.5</ele><time>2026-05-01T14:35:12.89Z</time></trkpt><trkpt lat="44.198422846659966" lon="11.409344687070277"><ele>722.75</ele><time>2026-05-01T14:35:13.89Z</time></trkpt><trkpt lat="44.19846345587207" lon="11.40913474759997"><ele>724.0</ele><time>2026-05-01T14:35:14.89Z</time></trkpt><trkpt lat="44.19849046014462" lon="11.408918840267164"><ele>726.3333333333334</ele><time>2026-05-01T14:35:15.89Z</time></trkpt><trkpt lat="44.19851209198003" lon="11.408696670706961"><ele>728.6666666666666</ele><time>2026-05-01T14:35:16.89Z</time></trkpt><trkpt lat="44.19853002095863" lon="11.4084583725751"><ele>731.0</ele><time>2026-05-01T14:35:17.89Z</time></trkpt><trkpt lat="44.198542654554146" lon="11.408205244176965"><ele>733.6666666666666</ele><time>2026-05-01T14:35:18.89Z</time></trkpt><trkpt lat="44.19856709620246" lon="11.407962619796042"><ele>736.3333333333334</ele><time>2026-05-01T14:35:19.89Z</time></trkpt><trkpt lat="44.19859400249568" lon="11.407735059557501"><ele>739.0</ele><time>2026-05-01T14:35:20.89Z</time></trkpt><trkpt lat="44.1986119056738" lon="11.407519146880032"><ele>739.0</ele><time>2026-05-01T14:35:21.89Z</time></trkpt><trkpt lat="44.19861425651463" lon="11.407303435138198"><ele>739.0</ele><time>2026-05-01T14:35:22.89Z</time></trkpt><trkpt lat="44.19860464308396" lon="11.407084706755736"><ele>739.0</ele><time>2026-05-01T14:35:23.89Z</time></trkpt><trkpt lat="44.19857206932175" lon="11.406707340747483"><ele>740.1666666666667</ele><time>2026-05-01T14:35:25.89Z</time></trkpt><trkpt lat="44.19855694960157" lon="11.406553554157574"><ele>741.3333333333334</ele><time>2026-05-01T14:35:26.89Z</time></trkpt><trkpt lat="44.19855092441553" lon="11.406423879377792"><ele>742.5</ele><time>2026-05-01T14:35:27.89Z</time></trkpt><trkpt lat="44.19855273311461" lon="11.4063113854641"><ele>743.6666666666666</ele><time>2026-05-01T14:35:28.89Z</time></trkpt><trkpt lat="44.19855884751069" lon="11.406219700100243"><ele>744.8333333333333</ele><time>2026-05-01T14:35:29.89Z</time></trkpt><trkpt lat="44.19857200957336" lon="11.406115428231812"><ele>746.0</ele><time>2026-05-01T14:35:31.89Z</time></trkpt><trkpt lat="44.19860147105153" lon="11.405972183512514"><ele>747.5</ele><time>2026-05-01T14:35:39.89Z</time></trkpt><trkpt lat="44.19863764814028" lon="11.405861338675706"><ele>749.0</ele><time>2026-05-01T14:35:40.89Z</time></trkpt><trkpt lat="44.19868707701667" lon="11.405724447653546"><ele>750.5</ele><time>2026-05-01T14:35:41.89Z</time></trkpt><trkpt lat="44.19873137648893" lon="11.405563548385814"><ele>752.0</ele><time>2026-05-01T14:35:42.89Z</time></trkpt><trkpt lat="44.19878045305399" lon="11.405376272540119"><ele>754.0</ele><time>2026-05-01T14:35:43.89Z</time></trkpt><trkpt lat="44.19885614829086" lon="11.405181475410458"><ele>756.0</ele><time>2026-05-01T14:35:44.89Z</time></trkpt><trkpt lat="44.199000404413034" lon="11.404757465492057"><ele>758.3333333333334</ele><time>2026-05-01T14:35:46.89Z</time></trkpt><trkpt lat="44.19907389571951" lon="11.404572867966102"><ele>760.6666666666667</ele><time>2026-05-01T14:35:47.89Z</time></trkpt><trkpt lat="44.19917591091913" lon="11.404407442219831"><ele>763.0</ele><time>2026-05-01T14:35:48.89Z</time></trkpt><trkpt lat="44.199303151633686" lon="11.404275807424055"><ele>763.0</ele><time>2026-05-01T14:35:49.89Z</time></trkpt><trkpt lat="44.19944495531716" lon="11.404175035362503"><ele>763.0</ele><time>2026-05-01T14:35:50.89Z</time></trkpt><trkpt lat="44.19960594204833" lon="11.404109866342866"><ele>763.0</ele><time>2026-05-01T14:35:51.89Z</time></trkpt><trkpt lat="44.19977499610692" lon="11.40408210977526"><ele>764.3333333333334</ele><time>2026-05-01T14:35:52.89Z</time></trkpt><trkpt lat="44.19992819526973" lon="11.404082767316623"><ele>765.6666666666666</ele><time>2026-05-01T14:35:53.89Z</time></trkpt><trkpt lat="44.200095231571595" lon="11.404073629194972"><ele>767.0</ele><time>2026-05-01T14:35:54.89Z</time></trkpt><trkpt lat="44.20026112782772" lon="11.404016430650522"><ele>767.0</ele><time>2026-05-01T14:35:55.89Z</time></trkpt><trkpt lat="44.200412886919075" lon="11.40392154215192"><ele>767.0</ele><time>2026-05-01T14:35:56.89Z</time></trkpt><trkpt lat="44.20054967753717" lon="11.403791516564143"><ele>767.0</ele><time>2026-05-01T14:35:57.89Z</time></trkpt><trkpt lat="44.200673179972604" lon="11.403630352990099"><ele>769.6666666666666</ele><time>2026-05-01T14:35:58.89Z</time></trkpt><trkpt lat="44.200802434899835" lon="11.40345154366047"><ele>772.3333333333333</ele><time>2026-05-01T14:35:59.89Z</time></trkpt><trkpt lat="44.20091830136466" lon="11.40324139120608"><ele>775.0</ele><time>2026-05-01T14:36:00.89Z</time></trkpt><trkpt lat="44.20101410653579" lon="11.403028615129616"><ele>779.0</ele><time>2026-05-01T14:36:01.89Z</time></trkpt><trkpt lat="44.20109134991647" lon="11.402795796440525"><ele>783.0</ele><time>2026-05-01T14:36:02.89Z</time></trkpt><trkpt lat="44.201157960295426" lon="11.402564531334313"><ele>787.0</ele><time>2026-05-01T14:36:03.89Z</time></trkpt><trkpt lat="44.201190186211136" lon="11.402298949424805"><ele>791.0</ele><time>2026-05-01T14:36:04.89Z</time></trkpt><trkpt lat="44.20123792822135" lon="11.402025554884142"><ele>795.0</ele><time>2026-05-01T14:36:05.89Z</time></trkpt><trkpt lat="44.20134445179847" lon="11.401497745620174"><ele>795.6666666666667</ele><time>2026-05-01T14:36:07.89Z</time></trkpt><trkpt lat="44.201393691742226" lon="11.401231412512432"><ele>796.3333333333334</ele><time>2026-05-01T14:36:08.89Z</time></trkpt><trkpt lat="44.201425133039095" lon="11.400961517023386"><ele>797.0</ele><time>2026-05-01T14:36:09.89Z</time></trkpt><trkpt lat="44.20145202916125" lon="11.400691172321588"><ele>797.6666666666667</ele><time>2026-05-01T14:36:10.89Z</time></trkpt><trkpt lat="44.20147254400936" lon="11.400448899327019"><ele>798.3333333333333</ele><time>2026-05-01T14:36:11.89Z</time></trkpt><trkpt lat="44.201488216209654" lon="11.400228738317201"><ele>799.0</ele><time>2026-05-01T14:36:12.89Z</time></trkpt><trkpt lat="44.20149973758104" lon="11.400037151296491"><ele>799.0</ele><time>2026-05-01T14:36:13.89Z</time></trkpt><trkpt lat="44.201502198970054" lon="11.399864720905505"><ele>799.0</ele><time>2026-05-01T14:36:14.89Z</time></trkpt><trkpt lat="44.20148092357484" lon="11.399708461398088"><ele>799.0</ele><time>2026-05-01T14:36:15.89Z</time></trkpt><trkpt lat="44.20142909632078" lon="11.39959860072045"><ele>799.0</ele><time>2026-05-01T14:36:16.89Z</time></trkpt><trkpt lat="44.201380183220714" lon="11.399479497758078"><ele>799.0</ele><time>2026-05-01T14:36:17.89Z</time></trkpt><trkpt lat="44.20129496022774" lon="11.399381556574808"><ele>801.6666666666666</ele><time>2026-05-01T14:36:18.89Z</time></trkpt><trkpt lat="44.20118111614941" lon="11.39927409367463"><ele>804.3333333333333</ele><time>2026-05-01T14:36:19.89Z</time></trkpt><trkpt lat="44.20103635742919" lon="11.399151086234689"><ele>807.0</ele><time>2026-05-01T14:36:20.89Z</time></trkpt><trkpt lat="44.2008790083096" lon="11.399014827790545"><ele>807.0</ele><time>2026-05-01T14:36:21.89Z</time></trkpt><trkpt lat="44.200745572234524" lon="11.398871523561631"><ele>807.0</ele><time>2026-05-01T14:36:22.89Z</time></trkpt><trkpt lat="44.20063110270032" lon="11.398688101240003"><ele>807.0</ele><time>2026-05-01T14:36:23.89Z</time></trkpt><trkpt lat="44.20052395464018" lon="11.398473874168339"><ele>806.0</ele><time>2026-05-01T14:36:24.89Z</time></trkpt><trkpt lat="44.20041257408999" lon="11.398230055081756"><ele>805.0</ele><time>2026-05-01T14:36:25.89Z</time></trkpt><trkpt lat="44.20030910743626" lon="11.398006195151105"><ele>804.0</ele><time>2026-05-01T14:36:26.89Z</time></trkpt><trkpt lat="44.20014871470714" lon="11.397602676055886"><ele>806.5</ele><time>2026-05-01T14:36:28.89Z</time></trkpt><trkpt lat="44.2001431718994" lon="11.397426539107007"><ele>809.0</ele><time>2026-05-01T14:36:29.89Z</time></trkpt><trkpt lat="44.20014671508243" lon="11.397269874782278"><ele>811.5</ele><time>2026-05-01T14:36:30.89Z</time></trkpt><trkpt lat="44.20018067868598" lon="11.397137762812772"><ele>814.0</ele><time>2026-05-01T14:36:31.89Z</time></trkpt><trkpt lat="44.200254309098575" lon="11.396999398337876"><ele>814.0</ele><time>2026-05-01T14:36:32.89Z</time></trkpt><trkpt lat="44.200350057101" lon="11.396873892163644"><ele>814.0</ele><time>2026-05-01T14:36:33.89Z</time></trkpt><trkpt lat="44.200461212708625" lon="11.396735849729799"><ele>814.0</ele><time>2026-05-01T14:36:34.89Z</time></trkpt><trkpt lat="44.20058842021569" lon="11.396608753366715"><ele>814.0</ele><time>2026-05-01T14:36:35.89Z</time></trkpt><trkpt lat="44.20073112887777" lon="11.396493189400989"><ele>817.0</ele><time>2026-05-01T14:36:36.89Z</time></trkpt><trkpt lat="44.20088823157978" lon="11.396399576472069"><ele>820.0</ele><time>2026-05-01T14:36:37.89Z</time></trkpt><trkpt lat="44.20104380659366" lon="11.396311719836984"><ele>823.0</ele><time>2026-05-01T14:36:38.89Z</time></trkpt><trkpt lat="44.201180290816815" lon="11.39622182288379"><ele>823.0</ele><time>2026-05-01T14:36:39.89Z</time></trkpt><trkpt lat="44.2012878832813" lon="11.396112045982356"><ele>823.0</ele><time>2026-05-01T14:36:40.89Z</time></trkpt><trkpt lat="44.20137447721513" lon="11.395964725489348"><ele>823.0</ele><time>2026-05-01T14:36:41.89Z</time></trkpt><trkpt lat="44.201473313296994" lon="11.395776865055979"><ele>823.0</ele><time>2026-05-01T14:36:42.89Z</time></trkpt><trkpt lat="44.20157627974557" lon="11.395533988444177"><ele>826.3333333333333</ele><time>2026-05-01T14:36:43.89Z</time></trkpt><trkpt lat="44.20167640320321" lon="11.395302475546558"><ele>829.6666666666667</ele><time>2026-05-01T14:36:44.89Z</time></trkpt><trkpt lat="44.2017899615813" lon="11.39507653537234"><ele>833.0</ele><time>2026-05-01T14:36:45.89Z</time></trkpt><trkpt lat="44.201924129560624" lon="11.39489359701869"><ele>833.0</ele><time>2026-05-01T14:36:46.89Z</time></trkpt><trkpt lat="44.20204373755544" lon="11.394729947513449"><ele>833.0</ele><time>2026-05-01T14:36:47.89Z</time></trkpt><trkpt lat="44.20226852149414" lon="11.394348034334937"><ele>837.3333333333334</ele><time>2026-05-01T14:36:49.89Z</time></trkpt><trkpt lat="44.202351397404755" lon="11.394108244023004"><ele>841.6666666666667</ele><time>2026-05-01T14:36:50.89Z</time></trkpt><trkpt lat="44.2024119325483" lon="11.393866246995914"><ele>846.0</ele><time>2026-05-01T14:36:51.89Z</time></trkpt><trkpt lat="44.202452970822556" lon="11.393657057249756"><ele>846.0</ele><time>2026-05-01T14:36:52.89Z</time></trkpt><trkpt lat="44.20248209451169" lon="11.393471460040194"><ele>846.0</ele><time>2026-05-01T14:36:53.89Z</time></trkpt><trkpt lat="44.20248323409653" lon="11.393308662125788"><ele>846.0</ele><time>2026-05-01T14:36:54.889Z</time></trkpt><trkpt lat="44.202447839123785" lon="11.393162132959613"><ele>846.0</ele><time>2026-05-01T14:36:55.889Z</time></trkpt><trkpt lat="44.20237531122175" lon="11.393025446537864"><ele>844.0</ele><time>2026-05-01T14:36:56.89Z</time></trkpt><trkpt lat="44.20229691166645" lon="11.392864286108829"><ele>842.0</ele><time>2026-05-01T14:36:57.889Z</time></trkpt><trkpt lat="44.20220442532677" lon="11.39268601597541"><ele>840.0</ele><time>2026-05-01T14:36:58.889Z</time></trkpt><trkpt lat="44.20213776141646" lon="11.39247140776471"><ele>840.0</ele><time>2026-05-01T14:36:59.889Z</time></trkpt><trkpt lat="44.20209822566401" lon="11.392237730098127"><ele>840.0</ele><time>2026-05-01T14:37:00.889Z</time></trkpt><trkpt lat="44.20205710842893" lon="11.391982773733742"><ele>840.0</ele><time>2026-05-01T14:37:01.889Z</time></trkpt><trkpt lat="44.202000274617774" lon="11.39173851868721"><ele>841.3333333333333</ele><time>2026-05-01T14:37:02.89Z</time></trkpt><trkpt lat="44.20196994872437" lon="11.39152230431943"><ele>842.6666666666666</ele><time>2026-05-01T14:37:03.889Z</time></trkpt><trkpt lat="44.201965199034355" lon="11.391318499744397"><ele>844.0</ele><time>2026-05-01T14:37:04.889Z</time></trkpt><trkpt lat="44.2020079060252" lon="11.391119111727246"><ele>845.6666666666666</ele><time>2026-05-01T14:37:05.89Z</time></trkpt><trkpt lat="44.20206224866463" lon="11.390906275162735"><ele>847.3333333333333</ele><time>2026-05-01T14:37:06.889Z</time></trkpt><trkpt lat="44.20211431661883" lon="11.390674498802298"><ele>849.0</ele><time>2026-05-01T14:37:07.889Z</time></trkpt><trkpt lat="44.20218648732046" lon="11.390429139294156"><ele>849.0</ele><time>2026-05-01T14:37:08.889Z</time></trkpt><trkpt lat="44.20228201405144" lon="11.390016605616317"><ele>849.0</ele><time>2026-05-01T14:37:10.889Z</time></trkpt><trkpt lat="44.20230720212916" lon="11.389846331509974"><ele>849.0</ele><time>2026-05-01T14:37:11.889Z</time></trkpt><trkpt lat="44.20229909681933" lon="11.389676500919727"><ele>851.3333333333333</ele><time>2026-05-01T14:37:12.889Z</time></trkpt><trkpt lat="44.20224869654674" lon="11.389473392109"><ele>853.6666666666666</ele><time>2026-05-01T14:37:13.889Z</time></trkpt><trkpt lat="44.20215471846645" lon="11.389269046718573"><ele>856.0</ele><time>2026-05-01T14:37:14.889Z</time></trkpt><trkpt lat="44.202067245251094" lon="11.389052229296153"><ele>859.0</ele><time>2026-05-01T14:37:15.889Z</time></trkpt><trkpt lat="44.20199999586052" lon="11.38878999624392"><ele>862.0</ele><time>2026-05-01T14:37:16.889Z</time></trkpt><trkpt lat="44.20194848911781" lon="11.388535041197605"><ele>865.0</ele><time>2026-05-01T14:37:17.889Z</time></trkpt><trkpt lat="44.20188547881631" lon="11.388297653639526"><ele>865.0</ele><time>2026-05-01T14:37:18.889Z</time></trkpt><trkpt lat="44.201850816439936" lon="11.388055137406631"><ele>865.0</ele><time>2026-05-01T14:37:19.889Z</time></trkpt><trkpt lat="44.20177642219528" lon="11.38783548413042"><ele>865.0</ele><time>2026-05-01T14:37:20.889Z</time></trkpt><trkpt lat="44.20166376743497" lon="11.387662651339406"><ele>866.0</ele><time>2026-05-01T14:37:21.889Z</time></trkpt><trkpt lat="44.20154018301116" lon="11.38751593437036"><ele>867.0</ele><time>2026-05-01T14:37:22.889Z</time></trkpt><trkpt lat="44.20143148830886" lon="11.387368959484853"><ele>868.0</ele><time>2026-05-01T14:37:23.889Z</time></trkpt><trkpt lat="44.20130347247658" lon="11.387247904802704"><ele>871.6666666666666</ele><time>2026-05-01T14:37:24.889Z</time></trkpt><trkpt lat="44.20119145665819" lon="11.38710845618487"><ele>875.3333333333333</ele><time>2026-05-01T14:37:25.889Z</time></trkpt><trkpt lat="44.201064870914784" lon="11.386978328036939"><ele>879.0</ele><time>2026-05-01T14:37:26.889Z</time></trkpt><trkpt lat="44.200933411442705" lon="11.386873540722073"><ele>879.0</ele><time>2026-05-01T14:37:27.889Z</time></trkpt><trkpt lat="44.20079785163316" lon="11.386793643058821"><ele>879.0</ele><time>2026-05-01T14:37:28.889Z</time></trkpt><trkpt lat="44.20067078828378" lon="11.38675957378443"><ele>879.0</ele><time>2026-05-01T14:37:29.889Z</time></trkpt><trkpt lat="44.20039242932542" lon="11.386789174431245"><ele>877.0</ele><time>2026-05-01T14:37:31.889Z</time></trkpt><trkpt lat="44.20027169286872" lon="11.386788614982025"><ele>875.0000000000001</ele><time>2026-05-01T14:37:32.889Z</time></trkpt><trkpt lat="44.200176667151844" lon="11.386772887981582"><ele>873.0000000000001</ele><time>2026-05-01T14:37:33.889Z</time></trkpt><trkpt lat="44.20009155003658" lon="11.386721585112753"><ele>871.0</ele><time>2026-05-01T14:37:34.889Z</time></trkpt><trkpt lat="44.19999582698197" lon="11.386637566582316"><ele>869.0</ele><time>2026-05-01T14:37:35.889Z</time></trkpt><trkpt lat="44.199918373448625" lon="11.38648194710711"><ele>870.5</ele><time>2026-05-01T14:37:36.889Z</time></trkpt><trkpt lat="44.19983946848544" lon="11.386320741670003"><ele>872.0</ele><time>2026-05-01T14:37:37.889Z</time></trkpt><trkpt lat="44.199776854242685" lon="11.386147176687766"><ele>873.5</ele><time>2026-05-01T14:37:38.889Z</time></trkpt><trkpt lat="44.199731833842435" lon="11.385954991993893"><ele>875.0</ele><time>2026-05-01T14:37:39.889Z</time></trkpt><trkpt lat="44.19968157857425" lon="11.385749866906286"><ele>872.3333333333334</ele><time>2026-05-01T14:37:40.889Z</time></trkpt><trkpt lat="44.19964370068879" lon="11.385528176867467"><ele>869.6666666666667</ele><time>2026-05-01T14:37:41.889Z</time></trkpt><trkpt lat="44.19958644492949" lon="11.385294619218033"><ele>867.0</ele><time>2026-05-01T14:37:42.889Z</time></trkpt><trkpt lat="44.1995250981832" lon="11.385063455430835"><ele>867.0</ele><time>2026-05-01T14:37:43.889Z</time></trkpt><trkpt lat="44.19943945107076" lon="11.384856201150361"><ele>867.0</ele><time>2026-05-01T14:37:44.889Z</time></trkpt><trkpt lat="44.19934852461749" lon="11.38468376270431"><ele>867.0</ele><time>2026-05-01T14:37:45.889Z</time></trkpt><trkpt lat="44.19924383150729" lon="11.384522424271413"><ele>867.6666666666667</ele><time>2026-05-01T14:37:46.889Z</time></trkpt><trkpt lat="44.19913008511117" lon="11.384369690057168"><ele>868.3333333333334</ele><time>2026-05-01T14:37:47.889Z</time></trkpt><trkpt lat="44.198991257355324" lon="11.384248783204594"><ele>869.0</ele><time>2026-05-01T14:37:48.889Z</time></trkpt><trkpt lat="44.19886082827411" lon="11.384105429796131"><ele>869.0</ele><time>2026-05-01T14:37:49.889Z</time></trkpt><trkpt lat="44.19871321624282" lon="11.384009566693813"><ele>869.0</ele><time>2026-05-01T14:37:50.889Z</time></trkpt></trkseg><trkseg><trkpt lat="44.19249977695786" lon="11.375774562386274"><ele>887.0</ele><time>2026-05-01T14:42:07.002Z</time></trkpt><trkpt lat="44.192452943426" lon="11.375641007440151"><ele>887.0</ele><time>2026-05-01T14:42:08.002Z</time></trkpt><trkpt lat="44.19238261276864" lon="11.375498922759242"><ele>887.0</ele><time>2026-05-01T14:42:09.002Z</time></trkpt><trkpt lat="44.19230605726077" lon="11.375342075022846"><ele>887.0</ele><time>2026-05-01T14:42:10.002Z</time></trkpt><trkpt lat="44.19222072507676" lon="11.375156822362221"><ele>887.0</ele><time>2026-05-01T14:42:11.002Z</time></trkpt><trkpt lat="44.19213914270565" lon="11.374952293004092"><ele>887.0</ele><time>2026-05-01T14:42:12.002Z</time></trkpt><trkpt lat="44.192093907534904" lon="11.374710589223543"><ele>887.0</ele><time>2026-05-01T14:42:13.002Z</time></trkpt><trkpt lat="44.19204482901337" lon="11.374452666499005"><ele>887.0</ele><time>2026-05-01T14:42:14.002Z</time></trkpt><trkpt lat="44.191984617793054" lon="11.374217831869917"><ele>887.0</ele><time>2026-05-01T14:42:15.002Z</time></trkpt><trkpt lat="44.19193306855936" lon="11.374003993432327"><ele>887.0</ele><time>2026-05-01T14:42:16.002Z</time></trkpt><trkpt lat="44.191855989976" lon="11.373788875757159"><ele>890.0</ele><time>2026-05-01T14:42:17.002Z</time></trkpt><trkpt lat="44.191743711832444" lon="11.37357925335063"><ele>893.0</ele><time>2026-05-01T14:42:18.002Z</time></trkpt><trkpt lat="44.19161356502072" lon="11.373379421889517"><ele>896.0</ele><time>2026-05-01T14:42:19.002Z</time></trkpt><trkpt lat="44.191487509269905" lon="11.373180302427883"><ele>890.3333333333334</ele><time>2026-05-01T14:42:20.002Z</time></trkpt><trkpt lat="44.19137100158765" lon="11.372955099166818"><ele>884.6666666666667</ele><time>2026-05-01T14:42:21.002Z</time></trkpt><trkpt lat="44.1912876653311" lon="11.372706744974606"><ele>879.0</ele><time>2026-05-01T14:42:22.002Z</time></trkpt><trkpt lat="44.191179581611415" lon="11.37248301050594"><ele>879.0</ele><time>2026-05-01T14:42:23.002Z</time></trkpt><trkpt lat="44.191090644800155" lon="11.37224773504108"><ele>879.0</ele><time>2026-05-01T14:42:24.002Z</time></trkpt><trkpt lat="44.19101235217038" lon="11.371994511173089"><ele>879.0</ele><time>2026-05-01T14:42:25.002Z</time></trkpt><trkpt lat="44.190940163330076" lon="11.37171335865626"><ele>880.3333333333333</ele><time>2026-05-01T14:42:26.002Z</time></trkpt><trkpt lat="44.190889653065135" lon="11.371437989508781"><ele>881.6666666666666</ele><time>2026-05-01T14:42:27.003Z</time></trkpt><trkpt lat="44.19085223568117" lon="11.37119995770222"><ele>883.0</ele><time>2026-05-01T14:42:28.003Z</time></trkpt><trkpt lat="44.19080428483417" lon="11.370987385238196"><ele>883.3333333333333</ele><time>2026-05-01T14:42:29.003Z</time></trkpt><trkpt lat="44.1907401622699" lon="11.370784474099278"><ele>883.6666666666667</ele><time>2026-05-01T14:42:30.003Z</time></trkpt><trkpt lat="44.190640451305406" lon="11.37058979122859"><ele>884.0</ele><time>2026-05-01T14:42:31.003Z</time></trkpt><trkpt lat="44.19051141553608" lon="11.370410585168825"><ele>884.0</ele><time>2026-05-01T14:42:32.003Z</time></trkpt><trkpt lat="44.19038497996389" lon="11.370259605946982"><ele>884.0</ele><time>2026-05-01T14:42:33.003Z</time></trkpt><trkpt lat="44.19028904194713" lon="11.370088221500426"><ele>884.0</ele><time>2026-05-01T14:42:34.003Z</time></trkpt><trkpt lat="44.19022004719684" lon="11.369883016947028"><ele>885.6666666666667</ele><time>2026-05-01T14:42:35.003Z</time></trkpt><trkpt lat="44.19015870900269" lon="11.36965531207391"><ele>887.3333333333333</ele><time>2026-05-01T14:42:36.003Z</time></trkpt><trkpt lat="44.190101323720256" lon="11.36939753879994"><ele>889.0</ele><time>2026-05-01T14:42:37.003Z</time></trkpt><trkpt lat="44.190030195086834" lon="11.36915566987334"><ele>889.0</ele><time>2026-05-01T14:42:38.003Z</time></trkpt><trkpt lat="44.18994371903438" lon="11.368947333850626"><ele>889.0</ele><time>2026-05-01T14:42:39.003Z</time></trkpt><trkpt lat="44.189828139124245" lon="11.368761887434907"><ele>889.0</ele><time>2026-05-01T14:42:40.003Z</time></trkpt><trkpt lat="44.1896846983994" lon="11.36859594033343"><ele>887.6666666666666</ele><time>2026-05-01T14:42:41.003Z</time></trkpt><trkpt lat="44.18952335750012" lon="11.368432148715309"><ele>886.3333333333333</ele><time>2026-05-01T14:42:42.003Z</time></trkpt><trkpt lat="44.18935600505979" lon="11.368256371502817"><ele>885.0</ele><time>2026-05-01T14:42:43.003Z</time></trkpt><trkpt lat="44.18918549356477" lon="11.368069535801542"><ele>884.6666666666667</ele><time>2026-05-01T14:42:44.003Z</time></trkpt><trkpt lat="44.18903360616309" lon="11.36790021094494"><ele>884.3333333333334</ele><time>2026-05-01T14:42:45.003Z</time></trkpt><trkpt lat="44.188894863799526" lon="11.36774946433526"><ele>884.0</ele><time>2026-05-01T14:42:46.003Z</time></trkpt><trkpt lat="44.188780043922044" lon="11.367559500778261"><ele>884.5</ele><time>2026-05-01T14:42:47.003Z</time></trkpt><trkpt lat="44.188679287250395" lon="11.36737184928146"><ele>885.0</ele><time>2026-05-01T14:42:48.003Z</time></trkpt><trkpt lat="44.18858693415078" lon="11.367216016801795"><ele>885.5</ele><time>2026-05-01T14:42:49.003Z</time></trkpt><trkpt lat="44.18852823460644" lon="11.367054242060249"><ele>886.0</ele><time>2026-05-01T14:42:50.003Z</time></trkpt><trkpt lat="44.188416859955765" lon="11.366944307468795"><ele>886.0</ele><time>2026-05-01T14:42:51.003Z</time></trkpt><trkpt lat="44.18830400976768" lon="11.366854436113623"><ele>886.0</ele><time>2026-05-01T14:42:52.003Z</time></trkpt><trkpt lat="44.18816731462584" lon="11.366773909167588"><ele>886.0</ele><time>2026-05-01T14:42:53.003Z</time></trkpt><trkpt lat="44.188021950924295" lon="11.366673008423943"><ele>886.0</ele><time>2026-05-01T14:42:54.003Z</time></trkpt><trkpt lat="44.187902022638895" lon="11.366531535271585"><ele>889.0</ele><time>2026-05-01T14:42:55.003Z</time></trkpt><trkpt lat="44.187813752116405" lon="11.366356963948741"><ele>892.0</ele><time>2026-05-01T14:42:56.003Z</time></trkpt><trkpt lat="44.187756011079244" lon="11.366154465174759"><ele>895.0</ele><time>2026-05-01T14:42:57.003Z</time></trkpt><trkpt lat="44.18770888318271" lon="11.365921616969061"><ele>895.0</ele><time>2026-05-01T14:42:58.003Z</time></trkpt><trkpt lat="44.18766686689391" lon="11.365719951569472"><ele>895.0</ele><time>2026-05-01T14:42:59.003Z</time></trkpt><trkpt lat="44.18761270831141" lon="11.365547170360399"><ele>895.0</ele><time>2026-05-01T14:43:00.003Z</time></trkpt><trkpt lat="44.187540388376036" lon="11.365410796654086"><ele>895.0</ele><time>2026-05-01T14:43:01.003Z</time></trkpt><trkpt lat="44.187445055604826" lon="11.365323936373674"><ele>894.75</ele><time>2026-05-01T14:43:02.003Z</time></trkpt><trkpt lat="44.18733563307517" lon="11.36528199309535"><ele>894.5</ele><time>2026-05-01T14:43:03.003Z</time></trkpt><trkpt lat="44.18721072560461" lon="11.36528742879619"><ele>894.25</ele><time>2026-05-01T14:43:04.003Z</time></trkpt><trkpt lat="44.187075926909706" lon="11.365334209823947"><ele>894.0</ele><time>2026-05-01T14:43:05.003Z</time></trkpt><trkpt lat="44.18692822522209" lon="11.36537339838693"><ele>894.0</ele><time>2026-05-01T14:43:06.003Z</time></trkpt><trkpt lat="44.186802475339285" lon="11.365360726706381"><ele>894.0</ele><time>2026-05-01T14:43:07.004Z</time></trkpt><trkpt lat="44.186696786319274" lon="11.36528957764081"><ele>894.0</ele><time>2026-05-01T14:43:08.004Z</time></trkpt><trkpt lat="44.18661429524311" lon="11.365163959382242"><ele>894.0</ele><time>2026-05-01T14:43:09.004Z</time></trkpt><trkpt lat="44.18653845754273" lon="11.365002202916065"><ele>894.5</ele><time>2026-05-01T14:43:10.004Z</time></trkpt><trkpt lat="44.186453610276594" lon="11.364817668500137"><ele>895.0</ele><time>2026-05-01T14:43:11.004Z</time></trkpt><trkpt lat="44.186378798304794" lon="11.36465165339201"><ele>895.5</ele><time>2026-05-01T14:43:12.004Z</time></trkpt><trkpt lat="44.18631051471127" lon="11.364502498147948"><ele>896.0</ele><time>2026-05-01T14:43:13.004Z</time></trkpt><trkpt lat="44.186249654594775" lon="11.364370775293159"><ele>896.0</ele><time>2026-05-01T14:43:14.004Z</time></trkpt><trkpt lat="44.1861882995" lon="11.364257229370654"><ele>895.9999999999999</ele><time>2026-05-01T14:43:15.004Z</time></trkpt><trkpt lat="44.1861190357793" lon="11.364187904051095"><ele>895.9999999999999</ele><time>2026-05-01T14:43:16.004Z</time></trkpt><trkpt lat="44.18604743835643" lon="11.364078746694782"><ele>896.0</ele><time>2026-05-01T14:43:17.004Z</time></trkpt><trkpt lat="44.18593789821158" lon="11.363994794981764"><ele>896.0</ele><time>2026-05-01T14:43:18.004Z</time></trkpt><trkpt lat="44.185812024509595" lon="11.363935690872049"><ele>896.75</ele><time>2026-05-01T14:43:19.004Z</time></trkpt><trkpt lat="44.185697671703316" lon="11.363843192379619"><ele>897.5</ele><time>2026-05-01T14:43:20.004Z</time></trkpt><trkpt lat="44.185571133819394" lon="11.363756529253672"><ele>898.25</ele><time>2026-05-01T14:43:21.004Z</time></trkpt><trkpt lat="44.185439996754894" lon="11.363665687626652"><ele>899.0</ele><time>2026-05-01T14:43:22.004Z</time></trkpt><trkpt lat="44.18530704126923" lon="11.363530895873588"><ele>899.0</ele><time>2026-05-01T14:43:23.004Z</time></trkpt><trkpt lat="44.18517745363728" lon="11.3633735896841"><ele>899.0</ele><time>2026-05-01T14:43:24.004Z</time></trkpt><trkpt lat="44.185060765309174" lon="11.363186907905346"><ele>899.0</ele><time>2026-05-01T14:43:25.004Z</time></trkpt><trkpt lat="44.184978736707116" lon="11.362956512310932"><ele>899.6666666666667</ele><time>2026-05-01T14:43:26.004Z</time></trkpt><trkpt lat="44.18490194135763" lon="11.362721506188736"><ele>900.3333333333333</ele><time>2026-05-01T14:43:27.004Z</time></trkpt><trkpt lat="44.184826081019864" lon="11.36248546046642"><ele>901.0</ele><time>2026-05-01T14:43:28.004Z</time></trkpt><trkpt lat="44.184774632674156" lon="11.362241674901234"><ele>909.6666666666666</ele><time>2026-05-01T14:43:29.004Z</time></trkpt><trkpt lat="44.184727344082624" lon="11.362007675473654"><ele>918.3333333333333</ele><time>2026-05-01T14:43:30.004Z</time></trkpt><trkpt lat="44.184678996286785" lon="11.361772965958018"><ele>927.0</ele><time>2026-05-01T14:43:31.004Z</time></trkpt><trkpt lat="44.18467430621214" lon="11.361520105722281"><ele>930.6666666666667</ele><time>2026-05-01T14:43:32.004Z</time></trkpt><trkpt lat="44.18467512749925" lon="11.361261070525092"><ele>934.3333333333334</ele><time>2026-05-01T14:43:33.004Z</time></trkpt><trkpt lat="44.18469448961109" lon="11.36099312654209"><ele>938.0</ele><time>2026-05-01T14:43:34.004Z</time></trkpt><trkpt lat="44.18472553600842" lon="11.360728803077228"><ele>942.0</ele><time>2026-05-01T14:43:35.004Z</time></trkpt><trkpt lat="44.18478256494965" lon="11.360457827833706"><ele>946.0</ele><time>2026-05-01T14:43:36.004Z</time></trkpt><trkpt lat="44.18483819716221" lon="11.360176606021296"><ele>950.0</ele><time>2026-05-01T14:43:37.004Z</time></trkpt><trkpt lat="44.184890775899" lon="11.359911766558891"><ele>937.3333333333334</ele><time>2026-05-01T14:43:38.004Z</time></trkpt><trkpt lat="44.18494654400317" lon="11.359669216044207"><ele>924.6666666666667</ele><time>2026-05-01T14:43:39.004Z</time></trkpt><trkpt lat="44.1849951968326" lon="11.359417011478985"><ele>912.0</ele><time>2026-05-01T14:43:40.004Z</time></trkpt><trkpt lat="44.18504492244195" lon="11.359164556126771"><ele>912.0</ele><time>2026-05-01T14:43:41.004Z</time></trkpt><trkpt lat="44.18508359743638" lon="11.358916190229316"><ele>912.0</ele><time>2026-05-01T14:43:42.004Z</time></trkpt><trkpt lat="44.18511859296618" lon="11.358656483381848"><ele>912.0</ele><time>2026-05-01T14:43:43.004Z</time></trkpt><trkpt lat="44.18514504763172" lon="11.358428082869308"><ele>913.75</ele><time>2026-05-01T14:43:44.004Z</time></trkpt><trkpt lat="44.18514911733584" lon="11.358215950811752"><ele>915.5</ele><time>2026-05-01T14:43:45.004Z</time></trkpt><trkpt lat="44.18514996808838" lon="11.358033984302608"><ele>917.25</ele><time>2026-05-01T14:43:46.004Z</time></trkpt><trkpt lat="44.185170696653785" lon="11.357870453863832"><ele>919.0</ele><time>2026-05-01T14:43:47.005Z</time></trkpt><trkpt lat="44.18522801765153" lon="11.357722385562283"><ele>920.25</ele><time>2026-05-01T14:43:48.005Z</time></trkpt><trkpt lat="44.18532167214979" lon="11.35760047226565"><ele>921.5</ele><time>2026-05-01T14:43:49.005Z</time></trkpt><trkpt lat="44.18545746307738" lon="11.357549975648464"><ele>922.75</ele><time>2026-05-01T14:43:50.005Z</time></trkpt><trkpt lat="44.18555102111904" lon="11.357452418287954"><ele>924.0</ele><time>2026-05-01T14:43:51.005Z</time></trkpt><trkpt lat="44.185620246495844" lon="11.357368536265184"><ele>924.0</ele><time>2026-05-01T14:43:52.005Z</time></trkpt><trkpt lat="44.18566609285422" lon="11.357248886509772"><ele>924.0</ele><time>2026-05-01T14:43:53.005Z</time></trkpt><trkpt lat="44.185669307008425" lon="11.35707788872669"><ele>924.0</ele><time>2026-05-01T14:43:54.005Z</time></trkpt><trkpt lat="44.185671249667685" lon="11.35689372895413"><ele>924.0</ele><time>2026-05-01T14:43:55.005Z</time></trkpt><trkpt lat="44.18563404870716" lon="11.356683174817363"><ele>923.0</ele><time>2026-05-01T14:43:56.005Z</time></trkpt><trkpt lat="44.18557802870175" lon="11.356497237757278"><ele>922.0</ele><time>2026-05-01T14:43:57.005Z</time></trkpt><trkpt lat="44.18549188740726" lon="11.356333010270664"><ele>921.0</ele><time>2026-05-01T14:43:58.005Z</time></trkpt><trkpt lat="44.18539355972262" lon="11.356186937651268"><ele>920.0</ele><time>2026-05-01T14:43:59.005Z</time></trkpt><trkpt lat="44.18527182087117" lon="11.356043566985841"><ele>918.0</ele><time>2026-05-01T14:44:00.005Z</time></trkpt><trkpt lat="44.18512486627619" lon="11.355905233091473"><ele>916.0</ele><time>2026-05-01T14:44:01.005Z</time></trkpt><trkpt lat="44.184966386238976" lon="11.355768326190756"><ele>914.0</ele><time>2026-05-01T14:44:02.005Z</time></trkpt><trkpt lat="44.18480659281834" lon="11.35562764494075"><ele>911.6666666666667</ele><time>2026-05-01T14:44:03.005Z</time></trkpt><trkpt lat="44.184652199296124" lon="11.355494432532504"><ele>909.3333333333333</ele><time>2026-05-01T14:44:04.005Z</time></trkpt><trkpt lat="44.18451280678836" lon="11.35535429352347"><ele>907.0</ele><time>2026-05-01T14:44:05.005Z</time></trkpt><trkpt lat="44.18438283818525" lon="11.355174193954243"><ele>907.0</ele><time>2026-05-01T14:44:06.005Z</time></trkpt><trkpt lat="44.18427029820075" lon="11.354955778318871"><ele>907.0</ele><time>2026-05-01T14:44:07.005Z</time></trkpt><trkpt lat="44.18416271245457" lon="11.354709647758355"><ele>907.0</ele><time>2026-05-01T14:44:08.005Z</time></trkpt><trkpt lat="44.18405466823153" lon="11.354446265307184"><ele>914.5</ele><time>2026-05-01T14:44:09.005Z</time></trkpt><trkpt lat="44.1839423617483" lon="11.354173729922035"><ele>922.0</ele><time>2026-05-01T14:44:10.005Z</time></trkpt><trkpt lat="44.18381738147473" lon="11.353895254941934"><ele>918.0</ele><time>2026-05-01T14:44:11.005Z</time></trkpt><trkpt lat="44.18370693837591" lon="11.35363308541227"><ele>914.0</ele><time>2026-05-01T14:44:12.005Z</time></trkpt><trkpt lat="44.183605501943426" lon="11.353394617529736"><ele>910.0</ele><time>2026-05-01T14:44:13.005Z</time></trkpt><trkpt lat="44.18351059305173" lon="11.353175982980213"><ele>910.25</ele><time>2026-05-01T14:44:14.005Z</time></trkpt><trkpt lat="44.18342899390647" lon="11.352981707492907"><ele>910.5</ele><time>2026-05-01T14:44:15.005Z</time></trkpt><trkpt lat="44.18335555609276" lon="11.352819841878283"><ele>910.75</ele><time>2026-05-01T14:44:16.005Z</time></trkpt><trkpt lat="44.18326963160104" lon="11.352682687557277"><ele>911.0</ele><time>2026-05-01T14:44:17.005Z</time></trkpt><trkpt lat="44.18316415812001" lon="11.352572504191686"><ele>911.0</ele><time>2026-05-01T14:44:18.005Z</time></trkpt><trkpt lat="44.18303141153513" lon="11.352483075019517"><ele>911.0</ele><time>2026-05-01T14:44:19.005Z</time></trkpt><trkpt lat="44.18290169984443" lon="11.352421593125916"><ele>911.0</ele><time>2026-05-01T14:44:20.005Z</time></trkpt><trkpt lat="44.18278365963938" lon="11.35236089840949"><ele>911.0</ele><time>2026-05-01T14:44:21.005Z</time></trkpt><trkpt lat="44.18267509918664" lon="11.352280865246215"><ele>908.0</ele><time>2026-05-01T14:44:22.005Z</time></trkpt><trkpt lat="44.18258659578078" lon="11.35216863964676"><ele>905.0</ele><time>2026-05-01T14:44:23.005Z</time></trkpt><trkpt lat="44.18251856845687" lon="11.352020579333058"><ele>902.0</ele><time>2026-05-01T14:44:24.005Z</time></trkpt><trkpt lat="44.182478330734156" lon="11.35184455334231"><ele>899.0</ele><time>2026-05-01T14:44:25.005Z</time></trkpt><trkpt lat="44.18247200988539" lon="11.351660655347791"><ele>899.0</ele><time>2026-05-01T14:44:26.005Z</time></trkpt><trkpt lat="44.18249666107792" lon="11.351482454852874"><ele>899.0</ele><time>2026-05-01T14:44:27.005Z</time></trkpt><trkpt lat="44.18253279854196" lon="11.351323779295333"><ele>899.0</ele><time>2026-05-01T14:44:28.006Z</time></trkpt><trkpt lat="44.182540362818976" lon="11.351155098589182"><ele>899.0</ele><time>2026-05-01T14:44:29.006Z</time></trkpt><trkpt lat="44.182527090914746" lon="11.350986539368872"><ele>897.75</ele><time>2026-05-01T14:44:30.006Z</time></trkpt><trkpt lat="44.18247801724902" lon="11.350810322257038"><ele>896.5</ele><time>2026-05-01T14:44:31.006Z</time></trkpt><trkpt lat="44.182399167949356" lon="11.350626000133648"><ele>895.25</ele><time>2026-05-01T14:44:32.006Z</time></trkpt><trkpt lat="44.18231753306427" lon="11.350461204218572"><ele>894.0</ele><time>2026-05-01T14:44:33.006Z</time></trkpt><trkpt lat="44.18226054992752" lon="11.350292515203176"><ele>897.25</ele><time>2026-05-01T14:44:34.006Z</time></trkpt><trkpt lat="44.18223375897258" lon="11.350112092530422"><ele>900.5</ele><time>2026-05-01T14:44:35.006Z</time></trkpt><trkpt lat="44.18221254177876" lon="11.349905672553936"><ele>903.75</ele><time>2026-05-01T14:44:36.006Z</time></trkpt><trkpt lat="44.18219547621849" lon="11.349696851924653"><ele>907.0</ele><time>2026-05-01T14:44:37.006Z</time></trkpt><trkpt lat="44.18218406951372" lon="11.349475481878851"><ele>907.0</ele><time>2026-05-01T14:44:38.006Z</time></trkpt><trkpt lat="44.18216504596191" lon="11.349259501267797"><ele>907.0</ele><time>2026-05-01T14:44:39.006Z</time></trkpt><trkpt lat="44.182132375266114" lon="11.349068507875957"><ele>907.0</ele><time>2026-05-01T14:44:40.006Z</time></trkpt><trkpt lat="44.18209000403328" lon="11.348899532973753"><ele>907.0</ele><time>2026-05-01T14:44:41.006Z</time></trkpt><trkpt lat="44.18202496672696" lon="11.348752903373407"><ele>902.75</ele><time>2026-05-01T14:44:42.006Z</time></trkpt><trkpt lat="44.181939988328246" lon="11.348624215412595"><ele>898.5</ele><time>2026-05-01T14:44:43.006Z</time></trkpt><trkpt lat="44.18182339088134" lon="11.348502899030334"><ele>894.25</ele><time>2026-05-01T14:44:44.006Z</time></trkpt><trkpt lat="44.181677447565264" lon="11.348390100326004"><ele>890.0</ele><time>2026-05-01T14:44:45.006Z</time></trkpt><trkpt lat="44.181518086635386" lon="11.348275650068862"><ele>888.6666666666667</ele><time>2026-05-01T14:44:46.006Z</time></trkpt><trkpt lat="44.18135974972418" lon="11.34811779724534"><ele>887.3333333333333</ele><time>2026-05-01T14:44:47.006Z</time></trkpt><trkpt lat="44.18119785009186" lon="11.347981387442227"><ele>886.0</ele><time>2026-05-01T14:44:48.006Z</time></trkpt><trkpt lat="44.1810516283972" lon="11.347880275374285"><ele>886.0</ele><time>2026-05-01T14:44:49.006Z</time></trkpt><trkpt lat="44.1808953327122" lon="11.347778497156174"><ele>886.0</ele><time>2026-05-01T14:44:50.006Z</time></trkpt><trkpt lat="44.18073748755785" lon="11.347709945080098"><ele>886.0</ele><time>2026-05-01T14:44:51.006Z</time></trkpt><trkpt lat="44.18058241295686" lon="11.347677808579098"><ele>890.0</ele><time>2026-05-01T14:44:52.006Z</time></trkpt><trkpt lat="44.18041257018814" lon="11.347679332682121"><ele>894.0</ele><time>2026-05-01T14:44:53.006Z</time></trkpt><trkpt lat="44.18023398788214" lon="11.34768925882664"><ele>898.0</ele><time>2026-05-01T14:44:54.006Z</time></trkpt><trkpt lat="44.18007367004631" lon="11.347661092771519"><ele>898.0</ele><time>2026-05-01T14:44:55.006Z</time></trkpt><trkpt lat="44.17992935775922" lon="11.347655425989219"><ele>898.0</ele><time>2026-05-01T14:44:56.006Z</time></trkpt><trkpt lat="44.179809655470955" lon="11.347584566194381"><ele>898.0</ele><time>2026-05-01T14:44:57.006Z</time></trkpt><trkpt lat="44.179716166514915" lon="11.347481014381495"><ele>898.0</ele><time>2026-05-01T14:44:58.006Z</time></trkpt><trkpt lat="44.17968272096721" lon="11.347326459643634"><ele>899.0</ele><time>2026-05-01T14:44:59.006Z</time></trkpt><trkpt lat="44.17963692858695" lon="11.347179857824573"><ele>900.0</ele><time>2026-05-01T14:45:00.006Z</time></trkpt><trkpt lat="44.17956918631012" lon="11.347042194437346"><ele>901.0</ele><time>2026-05-01T14:45:01.006Z</time></trkpt><trkpt lat="44.179464892355234" lon="11.346963125112046"><ele>902.0</ele><time>2026-05-01T14:45:02.006Z</time></trkpt><trkpt lat="44.17934880438707" lon="11.346917629807212"><ele>902.0</ele><time>2026-05-01T14:45:03.006Z</time></trkpt><trkpt lat="44.17920829003878" lon="11.346893476148187"><ele>902.0</ele><time>2026-05-01T14:45:04.006Z</time></trkpt><trkpt lat="44.17905071205382" lon="11.346876596922632"><ele>902.0</ele><time>2026-05-01T14:45:05.006Z</time></trkpt><trkpt lat="44.17889424958171" lon="11.346836212967654"><ele>906.0</ele><time>2026-05-01T14:45:06.006Z</time></trkpt><trkpt lat="44.17875140392539" lon="11.346812257284236"><ele>910.0</ele><time>2026-05-01T14:45:07.006Z</time></trkpt><trkpt lat="44.17863485179459" lon="11.346759139625467"><ele>914.0</ele><time>2026-05-01T14:45:08.007Z</time></trkpt><trkpt lat="44.17854503690268" lon="11.346659780626812"><ele>918.0</ele><time>2026-05-01T14:45:09.007Z</time></trkpt><trkpt lat="44.17847542208071" lon="11.346532707021913"><ele>918.0</ele><time>2026-05-01T14:45:10.007Z</time></trkpt><trkpt lat="44.17845095008222" lon="11.346387935168766"><ele>918.0</ele><time>2026-05-01T14:45:11.007Z</time></trkpt><trkpt lat="44.17842177953408" lon="11.34622891043124"><ele>918.0</ele><time>2026-05-01T14:45:12.007Z</time></trkpt><trkpt lat="44.17836507266485" lon="11.346090823972684"><ele>918.0</ele><time>2026-05-01T14:45:13.007Z</time></trkpt><trkpt lat="44.178282936457684" lon="11.345973937303897"><ele>918.5</ele><time>2026-05-01T14:45:14.007Z</time></trkpt><trkpt lat="44.178174486983835" lon="11.345897692844547"><ele>919.0</ele><time>2026-05-01T14:45:15.007Z</time></trkpt><trkpt lat="44.1780434673786" lon="11.345882928577929"><ele>919.5</ele><time>2026-05-01T14:45:16.007Z</time></trkpt><trkpt lat="44.17790021985438" lon="11.345857800413627"><ele>920.0</ele><time>2026-05-01T14:45:17.007Z</time></trkpt><trkpt lat="44.177748555534095" lon="11.345839153162974"><ele>920.0</ele><time>2026-05-01T14:45:18.007Z</time></trkpt><trkpt lat="44.17759544382281" lon="11.345818966060689"><ele>920.0</ele><time>2026-05-01T14:45:19.007Z</time></trkpt><trkpt lat="44.17745381031022" lon="11.345776306924915"><ele>920.0</ele><time>2026-05-01T14:45:20.007Z</time></trkpt><trkpt lat="44.17732078207534" lon="11.345744112977426"><ele>920.0</ele><time>2026-05-01T14:45:21.007Z</time></trkpt><trkpt lat="44.177206186992315" lon="11.345604349977355"><ele>922.3333333333334</ele><time>2026-05-01T14:45:22.007Z</time></trkpt><trkpt lat="44.17709381041232" lon="11.345449655078086"><ele>924.6666666666667</ele><time>2026-05-01T14:45:23.007Z</time></trkpt><trkpt lat="44.176965957848786" lon="11.345304580637439"><ele>927.0</ele><time>2026-05-01T14:45:24.007Z</time></trkpt><trkpt lat="44.17684451000381" lon="11.345140736882554"><ele>927.0</ele><time>2026-05-01T14:45:25.007Z</time></trkpt><trkpt lat="44.176686647545466" lon="11.345008455136798"><ele>927.0</ele><time>2026-05-01T14:45:26.007Z</time></trkpt><trkpt lat="44.17651630577058" lon="11.344871729815802"><ele>927.0</ele><time>2026-05-01T14:45:27.007Z</time></trkpt><trkpt lat="44.17633822283795" lon="11.344745533490132"><ele>926.3333333333333</ele><time>2026-05-01T14:45:28.007Z</time></trkpt><trkpt lat="44.17615805903222" lon="11.344621409348258"><ele>925.6666666666666</ele><time>2026-05-01T14:45:29.007Z</time></trkpt><trkpt lat="44.17597246596679" lon="11.344511406874844"><ele>925.0</ele><time>2026-05-01T14:45:30.007Z</time></trkpt><trkpt lat="44.17578118912364" lon="11.344406658307717"><ele>928.6666666666666</ele><time>2026-05-01T14:45:31.007Z</time></trkpt><trkpt lat="44.175568157575036" lon="11.344354302764676"><ele>932.3333333333333</ele><time>2026-05-01T14:45:32.007Z</time></trkpt><trkpt lat="44.17534873500903" lon="11.344291528171167"><ele>936.0</ele><time>2026-05-01T14:45:33.007Z</time></trkpt><trkpt lat="44.17512801209209" lon="11.344233780980604"><ele>936.0</ele><time>2026-05-01T14:45:34.007Z</time></trkpt><trkpt lat="44.1749071979804" lon="11.34417859745747"><ele>936.0</ele><time>2026-05-01T14:45:35.007Z</time></trkpt><trkpt lat="44.17471184053615" lon="11.344124842951144"><ele>936.0</ele><time>2026-05-01T14:45:36.007Z</time></trkpt><trkpt lat="44.17453541610939" lon="11.344055518160614"><ele>936.3333333333333</ele><time>2026-05-01T14:45:37.007Z</time></trkpt><trkpt lat="44.17437797296841" lon="11.34395785301522"><ele>936.6666666666666</ele><time>2026-05-01T14:45:38.007Z</time></trkpt><trkpt lat="44.17422280470481" lon="11.343858445770593"><ele>937.0</ele><time>2026-05-01T14:45:39.007Z</time></trkpt><trkpt lat="44.17406499477656" lon="11.343735631409993"><ele>943.6666666666666</ele><time>2026-05-01T14:45:40.007Z</time></trkpt><trkpt lat="44.17394754752984" lon="11.343560380750134"><ele>950.3333333333333</ele><time>2026-05-01T14:45:41.007Z</time></trkpt><trkpt lat="44.17381925530639" lon="11.343359685611965"><ele>957.0</ele><time>2026-05-01T14:45:42.007Z</time></trkpt><trkpt lat="44.17370248106328" lon="11.343129693445006"><ele>956.0</ele><time>2026-05-01T14:45:43.007Z</time></trkpt><trkpt lat="44.17359741591213" lon="11.342884414171571"><ele>955.0</ele><time>2026-05-01T14:45:44.007Z</time></trkpt><trkpt lat="44.17349806779959" lon="11.342645006540996"><ele>954.0</ele><time>2026-05-01T14:45:45.007Z</time></trkpt><trkpt lat="44.17340709639236" lon="11.342453628310407"><ele>954.0</ele><time>2026-05-01T14:45:46.007Z</time></trkpt><trkpt lat="44.17333741390936" lon="11.342275138993068"><ele>954.0</ele><time>2026-05-01T14:45:47.007Z</time></trkpt><trkpt lat="44.17330409999278" lon="11.342124031811688"><ele>954.0</ele><time>2026-05-01T14:45:48.008Z</time></trkpt><trkpt lat="44.17331217880845" lon="11.341953694192965"><ele>954.0</ele><time>2026-05-01T14:45:49.008Z</time></trkpt><trkpt lat="44.17333538394221" lon="11.341782212598268"><ele>954.0</ele><time>2026-05-01T14:45:50.008Z</time></trkpt><trkpt lat="44.17343285542563" lon="11.341646675223032"><ele>954.0</ele><time>2026-05-01T14:45:51.008Z</time></trkpt><trkpt lat="44.17354124077023" lon="11.341542362990369"><ele>954.0</ele><time>2026-05-01T14:45:52.008Z</time></trkpt><trkpt lat="44.17365211988137" lon="11.34141513012565"><ele>954.0</ele><time>2026-05-01T14:45:53.008Z</time></trkpt><trkpt lat="44.173779247244056" lon="11.341303238819208"><ele>957.25</ele><time>2026-05-01T14:45:54.008Z</time></trkpt><trkpt lat="44.17388688639181" lon="11.341158182272041"><ele>960.5</ele><time>2026-05-01T14:45:55.008Z</time></trkpt><trkpt lat="44.1739559410181" lon="11.34100880155438"><ele>963.75</ele><time>2026-05-01T14:45:56.008Z</time></trkpt><trkpt lat="44.17398772992065" lon="11.340867919283612"><ele>967.0</ele><time>2026-05-01T14:45:57.008Z</time></trkpt><trkpt lat="44.17398731045357" lon="11.34074053223379"><ele>961.0</ele><time>2026-05-01T14:45:58.008Z</time></trkpt><trkpt lat="44.172906672404565" lon="11.338515909497314"><ele>960.9999999999999</ele><time>2026-05-01T14:51:12.016Z</time></trkpt><trkpt lat="44.17295873542043" lon="11.338424365534063"><ele>961.0</ele><time>2026-05-01T14:51:16.016Z</time></trkpt><trkpt lat="44.17303993735933" lon="11.338411020101667"><ele>961.0</ele><time>2026-05-01T14:51:17.016Z</time></trkpt><trkpt lat="44.17311374042542" lon="11.338402059621771"><ele>961.0</ele><time>2026-05-01T14:51:18.016Z</time></trkpt><trkpt lat="44.17319560125149" lon="11.33838469663861"><ele>960.9999999999999</ele><time>2026-05-01T14:51:19.016Z</time></trkpt><trkpt lat="44.17328124822732" lon="11.33835078030693"><ele>961.0</ele><time>2026-05-01T14:51:20.016Z</time></trkpt><trkpt lat="44.17336819544429" lon="11.33829140653658"><ele>962.0</ele><time>2026-05-01T14:51:21.016Z</time></trkpt><trkpt lat="44.17344718736299" lon="11.338202050557337"><ele>963.0</ele><time>2026-05-01T14:51:22.016Z</time></trkpt><trkpt lat="44.173515636576084" lon="11.338083633732849"><ele>964.0</ele><time>2026-05-01T14:51:23.016Z</time></trkpt><trkpt lat="44.1735781312436" lon="11.337934283700193"><ele>965.0</ele><time>2026-05-01T14:51:24.016Z</time></trkpt><trkpt lat="44.173644016073595" lon="11.337764211036609"><ele>966.0</ele><time>2026-05-01T14:51:25.016Z</time></trkpt><trkpt lat="44.17372227006824" lon="11.337604255033396"><ele>967.0</ele><time>2026-05-01T14:51:26.016Z</time></trkpt><trkpt lat="44.17381176598071" lon="11.337459610528159"><ele>968.0</ele><time>2026-05-01T14:51:27.016Z</time></trkpt><trkpt lat="44.17391932738504" lon="11.337338622560992"><ele>969.0</ele><time>2026-05-01T14:51:28.016Z</time></trkpt><trkpt lat="44.17404234820323" lon="11.337233235923222"><ele>965.6666666666667</ele><time>2026-05-01T14:51:29.016Z</time></trkpt><trkpt lat="44.17417789396115" lon="11.337127976754035"><ele>962.3333333333334</ele><time>2026-05-01T14:51:30.016Z</time></trkpt><trkpt lat="44.174317950999445" lon="11.337006686013684"><ele>959.0</ele><time>2026-05-01T14:51:31.016Z</time></trkpt><trkpt lat="44.17446107309791" lon="11.336879658009908"><ele>959.0</ele><time>2026-05-01T14:51:32.016Z</time></trkpt><trkpt lat="44.17460156393079" lon="11.336765695154286"><ele>959.0</ele><time>2026-05-01T14:51:33.016Z</time></trkpt><trkpt lat="44.17474439876501" lon="11.336674781313105"><ele>959.0</ele><time>2026-05-01T14:51:34.016Z</time></trkpt><trkpt lat="44.17488718846809" lon="11.336617618030239"><ele>957.25</ele><time>2026-05-01T14:51:35.016Z</time></trkpt><trkpt lat="44.17501274136501" lon="11.336606850876011"><ele>955.5</ele><time>2026-05-01T14:51:36.016Z</time></trkpt><trkpt lat="44.17512680228311" lon="11.336638884751558"><ele>953.75</ele><time>2026-05-01T14:51:37.016Z</time></trkpt><trkpt lat="44.17524991974564" lon="11.336717294980826"><ele>952.0</ele><time>2026-05-01T14:51:38.016Z</time></trkpt><trkpt lat="44.17537428134538" lon="11.336837646244945"><ele>952.0</ele><time>2026-05-01T14:51:39.016Z</time></trkpt><trkpt lat="44.17549041020356" lon="11.336988647358956"><ele>952.0</ele><time>2026-05-01T14:51:40.016Z</time></trkpt><trkpt lat="44.17558342126139" lon="11.337164369372916"><ele>952.0</ele><time>2026-05-01T14:51:41.016Z</time></trkpt><trkpt lat="44.17565694126367" lon="11.337332086049848"><ele>950.75</ele><time>2026-05-01T14:51:42.016Z</time></trkpt><trkpt lat="44.17574159321833" lon="11.337484469611516"><ele>949.5</ele><time>2026-05-01T14:51:43.016Z</time></trkpt><trkpt lat="44.17583653262177" lon="11.337621520863776"><ele>948.25</ele><time>2026-05-01T14:51:44.016Z</time></trkpt><trkpt lat="44.17594299429424" lon="11.337729547265885"><ele>947.0</ele><time>2026-05-01T14:51:45.016Z</time></trkpt><trkpt lat="44.176065565717664" lon="11.337826560619197"><ele>947.0</ele><time>2026-05-01T14:51:46.016Z</time></trkpt><trkpt lat="44.17619741151815" lon="11.337904049449758"><ele>947.0</ele><time>2026-05-01T14:51:47.016Z</time></trkpt><trkpt lat="44.17633204508137" lon="11.337963980270917"><ele>947.0</ele><time>2026-05-01T14:51:48.016Z</time></trkpt><trkpt lat="44.176453284364" lon="11.33803354455833"><ele>947.0</ele><time>2026-05-01T14:51:49.016Z</time></trkpt><trkpt lat="44.17655282230884" lon="11.338103581344924"><ele>943.4000000000001</ele><time>2026-05-01T14:51:50.017Z</time></trkpt><trkpt lat="44.176647378953426" lon="11.338168346035319"><ele>939.8000000000001</ele><time>2026-05-01T14:51:51.017Z</time></trkpt><trkpt lat="44.17674242596079" lon="11.338215666399668"><ele>936.2</ele><time>2026-05-01T14:51:52.017Z</time></trkpt><trkpt lat="44.17684611090824" lon="11.338247936682224"><ele>932.6</ele><time>2026-05-01T14:51:53.017Z</time></trkpt><trkpt lat="44.176950696796396" lon="11.338196457110232"><ele>929.0</ele><time>2026-05-01T14:51:54.017Z</time></trkpt><trkpt lat="44.17705084797419" lon="11.33813458206951"><ele>931.25</ele><time>2026-05-01T14:51:55.017Z</time></trkpt><trkpt lat="44.17713904277909" lon="11.338036785936712"><ele>933.5</ele><time>2026-05-01T14:51:56.017Z</time></trkpt><trkpt lat="44.17721371034038" lon="11.337904202478333"><ele>935.75</ele><time>2026-05-01T14:51:57.017Z</time></trkpt><trkpt lat="44.17727003050221" lon="11.33775778816736"><ele>938.0</ele><time>2026-05-01T14:51:58.017Z</time></trkpt><trkpt lat="44.17729323369819" lon="11.337603652462432"><ele>938.0</ele><time>2026-05-01T14:51:59.017Z</time></trkpt><trkpt lat="44.177290366797216" lon="11.33744374450726"><ele>938.0</ele><time>2026-05-01T14:52:00.017Z</time></trkpt><trkpt lat="44.17725921519565" lon="11.337296583194595"><ele>938.0</ele><time>2026-05-01T14:52:01.017Z</time></trkpt><trkpt lat="44.17721763471006" lon="11.337163291455802"><ele>938.0</ele><time>2026-05-01T14:52:02.017Z</time></trkpt><trkpt lat="44.17720984850006" lon="11.337028663825695"><ele>938.0</ele><time>2026-05-01T14:52:03.017Z</time></trkpt><trkpt lat="44.17724318443898" lon="11.336896057675999"><ele>940.25</ele><time>2026-05-01T14:52:04.017Z</time></trkpt><trkpt lat="44.17731766940581" lon="11.336772916180342"><ele>942.5</ele><time>2026-05-01T14:52:05.017Z</time></trkpt><trkpt lat="44.17742698077436" lon="11.336649349357186"><ele>944.75</ele><time>2026-05-01T14:52:06.017Z</time></trkpt><trkpt lat="44.17753571186148" lon="11.33652834335379"><ele>947.0</ele><time>2026-05-01T14:52:07.017Z</time></trkpt><trkpt lat="44.17766552762486" lon="11.336395070215714"><ele>944.75</ele><time>2026-05-01T14:52:08.017Z</time></trkpt><trkpt lat="44.17780473105958" lon="11.3362911959072"><ele>942.5</ele><time>2026-05-01T14:52:09.017Z</time></trkpt><trkpt lat="44.17794358197613" lon="11.336225215186527"><ele>940.25</ele><time>2026-05-01T14:52:10.017Z</time></trkpt><trkpt lat="44.17807650136667" lon="11.336200060641755"><ele>938.0</ele><time>2026-05-01T14:52:11.017Z</time></trkpt><trkpt lat="44.17819395320293" lon="11.336223902888735"><ele>934.5</ele><time>2026-05-01T14:52:12.017Z</time></trkpt><trkpt lat="44.17829892465674" lon="11.336298859388142"><ele>931.0</ele><time>2026-05-01T14:52:13.017Z</time></trkpt><trkpt lat="44.17839354091987" lon="11.336416322546953"><ele>927.5</ele><time>2026-05-01T14:52:14.017Z</time></trkpt><trkpt lat="44.178480761060115" lon="11.33654951742451"><ele>924.0</ele><time>2026-05-01T14:52:15.017Z</time></trkpt><trkpt lat="44.17856210828453" lon="11.336676946796157"><ele>921.4000000000001</ele><time>2026-05-01T14:52:16.017Z</time></trkpt><trkpt lat="44.17863110952909" lon="11.336765869635515"><ele>918.8000000000001</ele><time>2026-05-01T14:52:17.017Z</time></trkpt><trkpt lat="44.17869794223851" lon="11.336822659716168"><ele>916.1999999999999</ele><time>2026-05-01T14:52:18.017Z</time></trkpt><trkpt lat="44.17878040065102" lon="11.336843210651802"><ele>913.5999999999999</ele><time>2026-05-01T14:52:19.017Z</time></trkpt><trkpt lat="44.178878261321344" lon="11.336819546132679"><ele>911.0</ele><time>2026-05-01T14:52:20.017Z</time></trkpt><trkpt lat="44.17897674271305" lon="11.336750139623499"><ele>908.25</ele><time>2026-05-01T14:52:21.017Z</time></trkpt><trkpt lat="44.17905248318432" lon="11.336634696145111"><ele>905.5</ele><time>2026-05-01T14:52:22.017Z</time></trkpt><trkpt lat="44.179119985496754" lon="11.336505904098281"><ele>902.75</ele><time>2026-05-01T14:52:23.017Z</time></trkpt><trkpt lat="44.17916785246323" lon="11.336363575162249"><ele>900.0</ele><time>2026-05-01T14:52:24.017Z</time></trkpt><trkpt lat="44.17918321397222" lon="11.336205058193332"><ele>900.0</ele><time>2026-05-01T14:52:25.017Z</time></trkpt><trkpt lat="44.179176882937426" lon="11.336047207008134"><ele>900.0</ele><time>2026-05-01T14:52:26.017Z</time></trkpt><trkpt lat="44.17916654256308" lon="11.335898456548838"><ele>900.0</ele><time>2026-05-01T14:52:27.017Z</time></trkpt><trkpt lat="44.17916887963426" lon="11.335755549655877"><ele>900.0</ele><time>2026-05-01T14:52:28.017Z</time></trkpt><trkpt lat="44.1791842373025" lon="11.335624688936107"><ele>900.0</ele><time>2026-05-01T14:52:29.017Z</time></trkpt><trkpt lat="44.179224144909334" lon="11.335518432729222"><ele>905.25</ele><time>2026-05-01T14:52:30.017Z</time></trkpt><trkpt lat="44.17929496701276" lon="11.335418497443221"><ele>910.5</ele><time>2026-05-01T14:52:31.018Z</time></trkpt><trkpt lat="44.179403232857425" lon="11.335341524629548"><ele>915.75</ele><time>2026-05-01T14:52:32.018Z</time></trkpt><trkpt lat="44.179543301327165" lon="11.335269959277953"><ele>921.0</ele><time>2026-05-01T14:52:33.018Z</time></trkpt><trkpt lat="44.17969014751384" lon="11.335191744191317"><ele>912.6666666666667</ele><time>2026-05-01T14:52:34.018Z</time></trkpt><trkpt lat="44.17986363753639" lon="11.335101475753484"><ele>904.3333333333334</ele><time>2026-05-01T14:52:35.018Z</time></trkpt><trkpt lat="44.180043743159736" lon="11.33503130738521"><ele>896.0</ele><time>2026-05-01T14:52:36.018Z</time></trkpt><trkpt lat="44.18020983057055" lon="11.334984221703632"><ele>896.0</ele><time>2026-05-01T14:52:37.018Z</time></trkpt><trkpt lat="44.18042043260289" lon="11.334980298826641"><ele>896.0</ele><time>2026-05-01T14:52:38.018Z</time></trkpt><trkpt lat="44.18060558214064" lon="11.334975709839371"><ele>896.0</ele><time>2026-05-01T14:52:39.018Z</time></trkpt><trkpt lat="44.18077750079583" lon="11.334977563727396"><ele>895.0</ele><time>2026-05-01T14:52:40.018Z</time></trkpt><trkpt lat="44.18093725314748" lon="11.334993539539703"><ele>894.0</ele><time>2026-05-01T14:52:41.018Z</time></trkpt><trkpt lat="44.181086025032485" lon="11.335042066961172"><ele>893.0</ele><time>2026-05-01T14:52:42.018Z</time></trkpt><trkpt lat="44.181232927053514" lon="11.335152617386276"><ele>893.0</ele><time>2026-05-01T14:52:43.018Z</time></trkpt><trkpt lat="44.18135258999278" lon="11.335279804260878"><ele>893.0</ele><time>2026-05-01T14:52:44.018Z</time></trkpt><trkpt lat="44.1814466083518" lon="11.335417230016997"><ele>893.0</ele><time>2026-05-01T14:52:45.018Z</time></trkpt><trkpt lat="44.181544862770764" lon="11.3355125690241"><ele>893.0</ele><time>2026-05-01T14:52:46.018Z</time></trkpt><trkpt lat="44.181656930205484" lon="11.335552232494937"><ele>892.75</ele><time>2026-05-01T14:52:47.018Z</time></trkpt><trkpt lat="44.18179598759281" lon="11.33555799146019"><ele>892.5</ele><time>2026-05-01T14:52:48.018Z</time></trkpt><trkpt lat="44.181941430096884" lon="11.335538699669906"><ele>892.25</ele><time>2026-05-01T14:52:49.018Z</time></trkpt><trkpt lat="44.182080294232506" lon="11.335488708835507"><ele>892.0</ele><time>2026-05-01T14:52:50.018Z</time></trkpt><trkpt lat="44.1822453224596" lon="11.335445165893308"><ele>890.0</ele><time>2026-05-01T14:52:51.018Z</time></trkpt><trkpt lat="44.18239453478909" lon="11.33537503484005"><ele>888.0</ele><time>2026-05-01T14:52:52.018Z</time></trkpt><trkpt lat="44.18253838447995" lon="11.335296082893148"><ele>886.0</ele><time>2026-05-01T14:52:53.018Z</time></trkpt><trkpt lat="44.182699087451525" lon="11.335238323569977"><ele>886.0</ele><time>2026-05-01T14:52:54.018Z</time></trkpt><trkpt lat="44.18288100810375" lon="11.335217633718699"><ele>886.0</ele><time>2026-05-01T14:52:55.018Z</time></trkpt><trkpt lat="44.18307319347306" lon="11.335239153209162"><ele>886.0</ele><time>2026-05-01T14:52:56.018Z</time></trkpt><trkpt lat="44.1832500849956" lon="11.335283325044774"><ele>883.6666666666666</ele><time>2026-05-01T14:52:57.018Z</time></trkpt><trkpt lat="44.18342585673509" lon="11.335303941056473"><ele>881.3333333333333</ele><time>2026-05-01T14:52:58.018Z</time></trkpt><trkpt lat="44.18358983877045" lon="11.335297934548732"><ele>879.0</ele><time>2026-05-01T14:52:59.018Z</time></trkpt><trkpt lat="44.18374765022932" lon="11.335295541099496"><ele>879.0</ele><time>2026-05-01T14:53:00.018Z</time></trkpt><trkpt lat="44.18389504200922" lon="11.335228385769843"><ele>879.0</ele><time>2026-05-01T14:53:01.018Z</time></trkpt><trkpt lat="44.184069272158645" lon="11.335147548963658"><ele>879.0</ele><time>2026-05-01T14:53:02.018Z</time></trkpt><trkpt lat="44.18425633147189" lon="11.335051561187253"><ele>875.0</ele><time>2026-05-01T14:53:03.018Z</time></trkpt><trkpt lat="44.184437503702725" lon="11.334950941516936"><ele>871.0</ele><time>2026-05-01T14:53:04.018Z</time></trkpt><trkpt lat="44.18460209651907" lon="11.3348421282215"><ele>867.0</ele><time>2026-05-01T14:53:05.018Z</time></trkpt><trkpt lat="44.184731800154616" lon="11.334741820374791"><ele>868.5</ele><time>2026-05-01T14:53:06.018Z</time></trkpt><trkpt lat="44.1848362126371" lon="11.33465614120544"><ele>870.0</ele><time>2026-05-01T14:53:07.018Z</time></trkpt><trkpt lat="44.1849059096868" lon="11.334595646028694"><ele>871.5</ele><time>2026-05-01T14:53:08.018Z</time></trkpt><trkpt lat="44.185020781934966" lon="11.334492680114932"><ele>873.0</ele><time>2026-05-01T14:53:10.018Z</time></trkpt><trkpt lat="44.185378187225666" lon="11.3343589609748"><ele>873.0</ele><time>2026-05-01T14:53:11.019Z</time></trkpt><trkpt lat="44.18552098847929" lon="11.334387508274654"><ele>873.0</ele><time>2026-05-01T14:53:12.019Z</time></trkpt><trkpt lat="44.185662854542436" lon="11.334420749345442"><ele>873.0</ele><time>2026-05-01T14:53:13.019Z</time></trkpt><trkpt lat="44.18579027032982" lon="11.334423100528427"><ele>873.0</ele><time>2026-05-01T14:53:14.019Z</time></trkpt><trkpt lat="44.18590524396273" lon="11.334449424214856"><ele>869.0</ele><time>2026-05-01T14:53:15.019Z</time></trkpt><trkpt lat="44.18602037347102" lon="11.33443017700087"><ele>865.0</ele><time>2026-05-01T14:53:16.019Z</time></trkpt><trkpt lat="44.18614392222879" lon="11.334372786682358"><ele>861.0</ele><time>2026-05-01T14:53:17.019Z</time></trkpt><trkpt lat="44.18623801091297" lon="11.334267374643332"><ele>857.0</ele><time>2026-05-01T14:53:18.019Z</time></trkpt><trkpt lat="44.18631086222423" lon="11.334126316405328"><ele>857.0</ele><time>2026-05-01T14:53:19.019Z</time></trkpt><trkpt lat="44.186368265104335" lon="11.33396441850238"><ele>857.0</ele><time>2026-05-01T14:53:20.019Z</time></trkpt><trkpt lat="44.18643939223942" lon="11.333823262422678"><ele>857.0</ele><time>2026-05-01T14:53:21.019Z</time></trkpt><trkpt lat="44.18655362746809" lon="11.333724555525158"><ele>857.0</ele><time>2026-05-01T14:53:22.019Z</time></trkpt><trkpt lat="44.18669442561406" lon="11.333685659207578"><ele>855.5</ele><time>2026-05-01T14:53:23.019Z</time></trkpt><trkpt lat="44.18683186743898" lon="11.333664181987368"><ele>854.0</ele><time>2026-05-01T14:53:24.019Z</time></trkpt><trkpt lat="44.186965738587226" lon="11.33365244421753"><ele>852.5</ele><time>2026-05-01T14:53:25.019Z</time></trkpt><trkpt lat="44.187079942767355" lon="11.333638806934436"><ele>851.0</ele><time>2026-05-01T14:53:26.019Z</time></trkpt><trkpt lat="44.187173093514886" lon="11.333581902272995"><ele>851.0</ele><time>2026-05-01T14:53:27.019Z</time></trkpt><trkpt lat="44.187265385266386" lon="11.33350140203708"><ele>851.0</ele><time>2026-05-01T14:53:28.019Z</time></trkpt><trkpt lat="44.18734735892444" lon="11.333343169407154"><ele>851.0</ele><time>2026-05-01T14:53:29.019Z</time></trkpt><trkpt lat="44.18741910369456" lon="11.333168168141892"><ele>851.0</ele><time>2026-05-01T14:53:30.019Z</time></trkpt><trkpt lat="44.18750814169029" lon="11.333048667476511"><ele>851.25</ele><time>2026-05-01T14:53:31.019Z</time></trkpt><trkpt lat="44.18759695709994" lon="11.3329498385531"><ele>851.5</ele><time>2026-05-01T14:53:32.019Z</time></trkpt><trkpt lat="44.187704412218075" lon="11.33290847480848"><ele>851.75</ele><time>2026-05-01T14:53:33.019Z</time></trkpt><trkpt lat="44.18782275369627" lon="11.332873897926266"><ele>852.0</ele><time>2026-05-01T14:53:34.019Z</time></trkpt><trkpt lat="44.18794273758476" lon="11.332858285025212"><ele>852.0</ele><time>2026-05-01T14:53:35.019Z</time></trkpt><trkpt lat="44.18809649627547" lon="11.33287880240345"><ele>852.0</ele><time>2026-05-01T14:53:36.019Z</time></trkpt><trkpt lat="44.18825409361526" lon="11.332919604009469"><ele>852.0</ele><time>2026-05-01T14:53:37.019Z</time></trkpt><trkpt lat="44.188406006053" lon="11.332985268112537"><ele>845.3333333333333</ele><time>2026-05-01T14:53:38.019Z</time></trkpt><trkpt lat="44.188564046573525" lon="11.33308340589045"><ele>838.6666666666666</ele><time>2026-05-01T14:53:39.019Z</time></trkpt><trkpt lat="44.18873461767536" lon="11.33316009827801"><ele>832.0</ele><time>2026-05-01T14:53:40.019Z</time></trkpt><trkpt lat="44.188890973978445" lon="11.33324200324573"><ele>833.3333333333333</ele><time>2026-05-01T14:53:41.019Z</time></trkpt><trkpt lat="44.1890241394436" lon="11.333338303367409"><ele>834.6666666666667</ele><time>2026-05-01T14:53:42.019Z</time></trkpt><trkpt lat="44.18914157210959" lon="11.333469194311155"><ele>836.0</ele><time>2026-05-01T14:53:43.019Z</time></trkpt><trkpt lat="44.189231267602445" lon="11.333668886264409"><ele>830.0</ele><time>2026-05-01T14:53:44.019Z</time></trkpt><trkpt lat="44.18931511828392" lon="11.333901941858835"><ele>824.0</ele><time>2026-05-01T14:53:45.019Z</time></trkpt><trkpt lat="44.18940835948164" lon="11.334146521132741"><ele>818.0</ele><time>2026-05-01T14:53:46.019Z</time></trkpt><trkpt lat="44.18950611993758" lon="11.334353090519226"><ele>818.0</ele><time>2026-05-01T14:53:47.019Z</time></trkpt><trkpt lat="44.189541511574085" lon="11.334571018863308"><ele>818.0</ele><time>2026-05-01T14:53:48.019Z</time></trkpt><trkpt lat="44.18960053290115" lon="11.334706512979372"><ele>818.0</ele><time>2026-05-01T14:53:49.019Z</time></trkpt><trkpt lat="44.18966991194208" lon="11.33479020486111"><ele>818.0</ele><time>2026-05-01T14:53:50.019Z</time></trkpt><trkpt lat="44.189763790832544" lon="11.334829132660502"><ele>814.6666666666667</ele><time>2026-05-01T14:53:51.02Z</time></trkpt><trkpt lat="44.189881993792945" lon="11.334848311525342"><ele>811.3333333333333</ele><time>2026-05-01T14:53:52.02Z</time></trkpt><trkpt lat="44.1900414075629" lon="11.334813265853498"><ele>808.0</ele><time>2026-05-01T14:53:53.02Z</time></trkpt><trkpt lat="44.19020843295154" lon="11.334750008525695"><ele>811.0</ele><time>2026-05-01T14:53:54.02Z</time></trkpt><trkpt lat="44.19037742954544" lon="11.33469347533421"><ele>814.0</ele><time>2026-05-01T14:53:55.02Z</time></trkpt><trkpt lat="44.19057122978851" lon="11.33461174971851"><ele>817.0</ele><time>2026-05-01T14:53:56.02Z</time></trkpt><trkpt lat="44.190773207064844" lon="11.33455699076449"><ele>817.0</ele><time>2026-05-01T14:53:57.02Z</time></trkpt><trkpt lat="44.1909599850937" lon="11.334496074954565"><ele>817.0</ele><time>2026-05-01T14:53:58.02Z</time></trkpt><trkpt lat="44.191130937801034" lon="11.334425200129633"><ele>817.0</ele><time>2026-05-01T14:53:59.02Z</time></trkpt><trkpt lat="44.191287181553804" lon="11.334331892490713"><ele>817.0</ele><time>2026-05-01T14:54:00.02Z</time></trkpt><trkpt lat="44.19144141371628" lon="11.334206578053799"><ele>817.0</ele><time>2026-05-01T14:54:01.02Z</time></trkpt><trkpt lat="44.1916029383479" lon="11.334054481691911"><ele>817.0</ele><time>2026-05-01T14:54:02.02Z</time></trkpt><trkpt lat="44.191819307954745" lon="11.33392130579393"><ele>818.6666666666666</ele><time>2026-05-01T14:54:03.02Z</time></trkpt><trkpt lat="44.19203323936953" lon="11.333810385530192"><ele>820.3333333333333</ele><time>2026-05-01T14:54:04.02Z</time></trkpt><trkpt lat="44.19221708684659" lon="11.33374320025802"><ele>822.0</ele><time>2026-05-01T14:54:05.02Z</time></trkpt><trkpt lat="44.192366257664375" lon="11.333645707655224"><ele>818.0</ele><time>2026-05-01T14:54:06.02Z</time></trkpt><trkpt lat="44.19252478075469" lon="11.333602099719839"><ele>814.0</ele><time>2026-05-01T14:54:07.02Z</time></trkpt><trkpt lat="44.192644074370456" lon="11.333580410460758"><ele>810.0</ele><time>2026-05-01T14:54:08.02Z</time></trkpt><trkpt lat="44.19274959782852" lon="11.333584047958006"><ele>806.0</ele><time>2026-05-01T14:54:09.02Z</time></trkpt><trkpt lat="44.19283910712315" lon="11.333665836679703"><ele>806.0</ele><time>2026-05-01T14:54:10.02Z</time></trkpt><trkpt lat="44.19294768819842" lon="11.333809420929496"><ele>806.0</ele><time>2026-05-01T14:54:11.02Z</time></trkpt><trkpt lat="44.19303322618427" lon="11.333984350235736"><ele>806.0</ele><time>2026-05-01T14:54:12.02Z</time></trkpt><trkpt lat="44.193118533857266" lon="11.334154885668648"><ele>801.1999999999999</ele><time>2026-05-01T14:54:13.02Z</time></trkpt><trkpt lat="44.19318730120858" lon="11.334303256671118"><ele>796.4</ele><time>2026-05-01T14:54:14.02Z</time></trkpt><trkpt lat="44.19323671235476" lon="11.334399495337957"><ele>791.6</ele><time>2026-05-01T14:54:15.02Z</time></trkpt><trkpt lat="44.193341737512625" lon="11.334441039428283"><ele>786.8</ele><time>2026-05-01T14:54:17.02Z</time></trkpt><trkpt lat="44.19341720647745" lon="11.334435689184478"><ele>782.0</ele><time>2026-05-01T14:54:18.02Z</time></trkpt><trkpt lat="44.193520444219494" lon="11.334349142491758"><ele>782.0</ele><time>2026-05-01T14:54:19.02Z</time></trkpt><trkpt lat="44.193626309633714" lon="11.33423204583298"><ele>782.0</ele><time>2026-05-01T14:54:20.02Z</time></trkpt><trkpt lat="44.19561998093195" lon="11.33372982210396"><ele>780.3333333333334</ele><time>2026-05-01T14:54:32.021Z</time></trkpt><trkpt lat="44.195819965599284" lon="11.333694045533347"><ele>778.6666666666667</ele><time>2026-05-01T14:54:33.021Z</time></trkpt><trkpt lat="44.19603871310984" lon="11.333610373090394"><ele>777.0</ele><time>2026-05-01T14:54:34.021Z</time></trkpt><trkpt lat="44.19625539256242" lon="11.33348163370178"><ele>777.0</ele><time>2026-05-01T14:54:35.021Z</time></trkpt><trkpt lat="44.19646270327154" lon="11.333413069547946"><ele>777.0</ele><time>2026-05-01T14:54:36.021Z</time></trkpt><trkpt lat="44.196662567067655" lon="11.333392166712214"><ele>777.0</ele><time>2026-05-01T14:54:37.021Z</time></trkpt><trkpt lat="44.19683586673147" lon="11.333386315938442"><ele>776.25</ele><time>2026-05-01T14:54:38.021Z</time></trkpt><trkpt lat="44.19697834945985" lon="11.333420674622833"><ele>775.5</ele><time>2026-05-01T14:54:39.021Z</time></trkpt><trkpt lat="44.19709448079433" lon="11.333404114669143"><ele>774.75</ele><time>2026-05-01T14:54:40.021Z</time></trkpt><trkpt lat="44.19723079990433" lon="11.333383684972976"><ele>774.0</ele><time>2026-05-01T14:54:41.021Z</time></trkpt><trkpt lat="44.19736840710621" lon="11.33333131540882"><ele>773.0</ele><time>2026-05-01T14:54:42.021Z</time></trkpt><trkpt lat="44.19751786314357" lon="11.3332519268686"><ele>772.0</ele><time>2026-05-01T14:54:43.021Z</time></trkpt><trkpt lat="44.19766875446159" lon="11.333201699216467"><ele>771.0</ele><time>2026-05-01T14:54:44.021Z</time></trkpt><trkpt lat="44.1978208384539" lon="11.33320184435753"><ele>771.0</ele><time>2026-05-01T14:54:45.021Z</time></trkpt><trkpt lat="44.19798642477144" lon="11.33324261125048"><ele>771.0</ele><time>2026-05-01T14:54:46.021Z</time></trkpt></trkseg><trkseg><trkpt lat="44.19978057377712" lon="11.331331278534268"><ele>810.8</ele><time>2026-05-01T14:57:38.025Z</time></trkpt><trkpt lat="44.19985322140507" lon="11.331340615980162"><ele>809.6</ele><time>2026-05-01T14:57:39.025Z</time></trkpt><trkpt lat="44.19992523061923" lon="11.331401439889426"><ele>808.4</ele><time>2026-05-01T14:57:40.025Z</time></trkpt><trkpt lat="44.199975625059345" lon="11.331514112584877"><ele>807.1999999999999</ele><time>2026-05-01T14:57:41.025Z</time></trkpt><trkpt lat="44.20001535683226" lon="11.331649182341096"><ele>806.0</ele><time>2026-05-01T14:57:42.025Z</time></trkpt><trkpt lat="44.20006841457389" lon="11.331775727794376"><ele>804.1999999999999</ele><time>2026-05-01T14:57:43.025Z</time></trkpt><trkpt lat="44.200151739165484" lon="11.33186131748946"><ele>802.4</ele><time>2026-05-01T14:57:44.025Z</time></trkpt><trkpt lat="44.200259392590965" lon="11.331926104675606"><ele>800.6</ele><time>2026-05-01T14:57:45.025Z</time></trkpt><trkpt lat="44.20036826514434" lon="11.33198770014962"><ele>798.8</ele><time>2026-05-01T14:57:46.025Z</time></trkpt><trkpt lat="44.20046765511175" lon="11.332021122626504"><ele>797.0</ele><time>2026-05-01T14:57:47.025Z</time></trkpt><trkpt lat="44.2005563638628" lon="11.332009842556566"><ele>797.0</ele><time>2026-05-01T14:57:48.025Z</time></trkpt><trkpt lat="44.20062883768196" lon="11.33195114547507"><ele>797.0</ele><time>2026-05-01T14:57:49.025Z</time></trkpt><trkpt lat="44.2006955597547" lon="11.331852354946573"><ele>797.0</ele><time>2026-05-01T14:57:50.025Z</time></trkpt><trkpt lat="44.200759933966744" lon="11.331730764105266"><ele>797.0</ele><time>2026-05-01T14:57:51.025Z</time></trkpt><trkpt lat="44.20083553699899" lon="11.33160258836601"><ele>797.0</ele><time>2026-05-01T14:57:52.025Z</time></trkpt><trkpt lat="44.20087082261716" lon="11.331443819185884"><ele>798.25</ele><time>2026-05-01T14:57:53.026Z</time></trkpt><trkpt lat="44.200859149514116" lon="11.331268203824264"><ele>799.5</ele><time>2026-05-01T14:57:54.026Z</time></trkpt><trkpt lat="44.20081911485901" lon="11.331104067325919"><ele>800.75</ele><time>2026-05-01T14:57:55.026Z</time></trkpt><trkpt lat="44.20078521405726" lon="11.330949352362662"><ele>802.0</ele><time>2026-05-01T14:57:56.026Z</time></trkpt><trkpt lat="44.20079946574923" lon="11.330794290795087"><ele>802.0</ele><time>2026-05-01T14:57:57.026Z</time></trkpt><trkpt lat="44.20085996259013" lon="11.330648933956143"><ele>802.0</ele><time>2026-05-01T14:57:58.026Z</time></trkpt><trkpt lat="44.200936570308464" lon="11.330496468879314"><ele>802.0</ele><time>2026-05-01T14:57:59.026Z</time></trkpt><trkpt lat="44.20102191665397" lon="11.330341078832754"><ele>802.0</ele><time>2026-05-01T14:58:00.026Z</time></trkpt><trkpt lat="44.20110944481789" lon="11.330183640179014"><ele>804.0</ele><time>2026-05-01T14:58:01.026Z</time></trkpt><trkpt lat="44.201202101727226" lon="11.330036128449692"><ele>806.0</ele><time>2026-05-01T14:58:02.026Z</time></trkpt><trkpt lat="44.20129996365235" lon="11.329894244387775"><ele>808.0</ele><time>2026-05-01T14:58:03.026Z</time></trkpt><trkpt lat="44.20142668393632" lon="11.329806273957772"><ele>810.0</ele><time>2026-05-01T14:58:04.026Z</time></trkpt><trkpt lat="44.20156121218238" lon="11.32974501659392"><ele>815.0</ele><time>2026-05-01T14:58:05.026Z</time></trkpt><trkpt lat="44.20169641464004" lon="11.329718470739698"><ele>820.0</ele><time>2026-05-01T14:58:06.026Z</time></trkpt><trkpt lat="44.20182780616998" lon="11.329713089108562"><ele>825.0</ele><time>2026-05-01T14:58:07.026Z</time></trkpt><trkpt lat="44.20193945349858" lon="11.3297102483576"><ele>830.0</ele><time>2026-05-01T14:58:08.026Z</time></trkpt><trkpt lat="44.20204821590048" lon="11.329687476274641"><ele>830.0</ele><time>2026-05-01T14:58:09.026Z</time></trkpt><trkpt lat="44.202142548534766" lon="11.329641301089222"><ele>830.0</ele><time>2026-05-01T14:58:10.026Z</time></trkpt><trkpt lat="44.20222397967769" lon="11.329602158710125"><ele>830.0</ele><time>2026-05-01T14:58:11.026Z</time></trkpt><trkpt lat="44.202307487084376" lon="11.329555799690358"><ele>830.0</ele><time>2026-05-01T14:58:12.026Z</time></trkpt><trkpt lat="44.202390442146374" lon="11.329498280615143"><ele>830.0</ele><time>2026-05-01T14:58:13.026Z</time></trkpt><trkpt lat="44.20248442009605" lon="11.329448145945797"><ele>829.0</ele><time>2026-05-01T14:58:14.026Z</time></trkpt><trkpt lat="44.2025285393596" lon="11.329341757780195"><ele>828.0</ele><time>2026-05-01T14:58:15.026Z</time></trkpt><trkpt lat="44.20257481731141" lon="11.329236974361443"><ele>827.0</ele><time>2026-05-01T14:58:16.026Z</time></trkpt><trkpt lat="44.20261908653794" lon="11.32912205949426"><ele>826.0</ele><time>2026-05-01T14:58:17.026Z</time></trkpt><trkpt lat="44.20262312553913" lon="11.328986225631066"><ele>825.0</ele><time>2026-05-01T14:58:18.026Z</time></trkpt><trkpt lat="44.20263741674285" lon="11.328857955687987"><ele>825.0</ele><time>2026-05-01T14:58:19.026Z</time></trkpt><trkpt lat="44.202647485382364" lon="11.328740345374511"><ele>825.0</ele><time>2026-05-01T14:58:20.026Z</time></trkpt><trkpt lat="44.20269892163475" lon="11.328650967285162"><ele>825.0</ele><time>2026-05-01T14:58:21.026Z</time></trkpt><trkpt lat="44.20277232096792" lon="11.328576242164898"><ele>825.0</ele><time>2026-05-01T14:58:22.026Z</time></trkpt><trkpt lat="44.202866449716176" lon="11.328564734502287"><ele>825.0</ele><time>2026-05-01T14:58:23.026Z</time></trkpt><trkpt lat="44.202963844276724" lon="11.328549903526731"><ele>825.0</ele><time>2026-05-01T14:58:24.026Z</time></trkpt><trkpt lat="44.20306756794046" lon="11.328534661671345"><ele>825.0</ele><time>2026-05-01T14:58:25.026Z</time></trkpt><trkpt lat="44.20317052483951" lon="11.328514223172974"><ele>825.0</ele><time>2026-05-01T14:58:26.026Z</time></trkpt><trkpt lat="44.203274015737406" lon="11.328479599836598"><ele>825.0</ele><time>2026-05-01T14:58:27.026Z</time></trkpt><trkpt lat="44.203384429016324" lon="11.328419666285928"><ele>825.0</ele><time>2026-05-01T14:58:28.026Z</time></trkpt><trkpt lat="44.20349948152875" lon="11.32831385972566"><ele>824.75</ele><time>2026-05-01T14:58:29.026Z</time></trkpt><trkpt lat="44.2035995575443" lon="11.328176041045742"><ele>824.5</ele><time>2026-05-01T14:58:30.026Z</time></trkpt><trkpt lat="44.203714841192415" lon="11.328047748815559"><ele>824.25</ele><time>2026-05-01T14:58:31.026Z</time></trkpt><trkpt lat="44.20382491312774" lon="11.327909794055714"><ele>824.0</ele><time>2026-05-01T14:58:32.026Z</time></trkpt><trkpt lat="44.203929770316954" lon="11.327779468659939"><ele>820.25</ele><time>2026-05-01T14:58:33.027Z</time></trkpt><trkpt lat="44.20402124218466" lon="11.327640005297669"><ele>816.5</ele><time>2026-05-01T14:58:34.027Z</time></trkpt><trkpt lat="44.204097203404366" lon="11.327487456154229"><ele>812.75</ele><time>2026-05-01T14:58:35.027Z</time></trkpt><trkpt lat="44.20415892161423" lon="11.327332241495132"><ele>809.0</ele><time>2026-05-01T14:58:36.027Z</time></trkpt><trkpt lat="44.20423520280339" lon="11.327177855678691"><ele>808.5</ele><time>2026-05-01T14:58:37.027Z</time></trkpt><trkpt lat="44.20430274477476" lon="11.327020259591107"><ele>808.0</ele><time>2026-05-01T14:58:38.027Z</time></trkpt><trkpt lat="44.204387161964995" lon="11.326883865898434"><ele>807.5</ele><time>2026-05-01T14:58:39.027Z</time></trkpt><trkpt lat="44.20448982112782" lon="11.326772653039416"><ele>807.0</ele><time>2026-05-01T14:58:40.027Z</time></trkpt><trkpt lat="44.204604397040626" lon="11.326723422710128"><ele>807.0</ele><time>2026-05-01T14:58:41.027Z</time></trkpt><trkpt lat="44.20472222069462" lon="11.32669516876883"><ele>807.0</ele><time>2026-05-01T14:58:42.027Z</time></trkpt><trkpt lat="44.20482523339874" lon="11.326668202469651"><ele>807.0</ele><time>2026-05-01T14:58:43.027Z</time></trkpt><trkpt lat="44.2049156876807" lon="11.32663918923904"><ele>807.0</ele><time>2026-05-01T14:58:44.027Z</time></trkpt><trkpt lat="44.205001374908235" lon="11.32659203680143"><ele>807.0</ele><time>2026-05-01T14:58:45.027Z</time></trkpt><trkpt lat="44.2050874209788" lon="11.326536218096305"><ele>806.8</ele><time>2026-05-01T14:58:46.027Z</time></trkpt><trkpt lat="44.20518424251192" lon="11.326505151858845"><ele>806.6</ele><time>2026-05-01T14:58:47.027Z</time></trkpt><trkpt lat="44.2052836180664" lon="11.326498502621146"><ele>806.4</ele><time>2026-05-01T14:58:48.027Z</time></trkpt><trkpt lat="44.20539287814592" lon="11.326477554249145"><ele>806.1999999999999</ele><time>2026-05-01T14:58:49.027Z</time></trkpt><trkpt lat="44.20548804958642" lon="11.326416457124298"><ele>806.0</ele><time>2026-05-01T14:58:50.027Z</time></trkpt><trkpt lat="44.205579530351656" lon="11.32635146368745"><ele>805.0</ele><time>2026-05-01T14:58:51.027Z</time></trkpt><trkpt lat="44.20568283663858" lon="11.326278100582385"><ele>804.0</ele><time>2026-05-01T14:58:52.027Z</time></trkpt><trkpt lat="44.20580379733819" lon="11.326193974966946"><ele>803.0</ele><time>2026-05-01T14:58:53.027Z</time></trkpt><trkpt lat="44.20594075447283" lon="11.326100762741124"><ele>802.0</ele><time>2026-05-01T14:58:54.027Z</time></trkpt><trkpt lat="44.206085150634046" lon="11.326034338191619"><ele>802.0</ele><time>2026-05-01T14:58:55.027Z</time></trkpt><trkpt lat="44.20623044659405" lon="11.325958241117942"><ele>802.0</ele><time>2026-05-01T14:58:56.027Z</time></trkpt><trkpt lat="44.206373345863305" lon="11.325866431423869"><ele>802.0</ele><time>2026-05-01T14:58:57.027Z</time></trkpt><trkpt lat="44.20652509526475" lon="11.325802944041893"><ele>802.3333333333333</ele><time>2026-05-01T14:58:58.027Z</time></trkpt><trkpt lat="44.20668067533893" lon="11.325771701356489"><ele>802.6666666666667</ele><time>2026-05-01T14:58:59.027Z</time></trkpt><trkpt lat="44.20683541257719" lon="11.325722511096991"><ele>803.0</ele><time>2026-05-01T14:59:00.027Z</time></trkpt><trkpt lat="44.20699155799452" lon="11.325673175706363"><ele>803.0</ele><time>2026-05-01T14:59:01.027Z</time></trkpt><trkpt lat="44.20714131984904" lon="11.325623236144255"><ele>803.0</ele><time>2026-05-01T14:59:02.027Z</time></trkpt><trkpt lat="44.2072885255266" lon="11.325574148943424"><ele>803.0</ele><time>2026-05-01T14:59:03.027Z</time></trkpt><trkpt lat="44.20744146387125" lon="11.325523150131463"><ele>803.3333333333334</ele><time>2026-05-01T14:59:04.027Z</time></trkpt><trkpt lat="44.20759798756409" lon="11.325468942678889"><ele>803.6666666666667</ele><time>2026-05-01T14:59:05.027Z</time></trkpt><trkpt lat="44.20775705424333" lon="11.325411293453714"><ele>804.0</ele><time>2026-05-01T14:59:06.027Z</time></trkpt><trkpt lat="44.2079261564776" lon="11.325348607723313"><ele>804.0</ele><time>2026-05-01T14:59:07.027Z</time></trkpt><trkpt lat="44.20810357759492" lon="11.325279967948877"><ele>804.0</ele><time>2026-05-01T14:59:08.027Z</time></trkpt><trkpt lat="44.208287009773265" lon="11.325194002936366"><ele>804.0</ele><time>2026-05-01T14:59:09.027Z</time></trkpt><trkpt lat="44.20847837270812" lon="11.325121472113123"><ele>805.3333333333333</ele><time>2026-05-01T14:59:10.027Z</time></trkpt><trkpt lat="44.20867345223983" lon="11.325045220106652"><ele>806.6666666666666</ele><time>2026-05-01T14:59:11.027Z</time></trkpt><trkpt lat="44.20887285543969" lon="11.324966766048188"><ele>808.0</ele><time>2026-05-01T14:59:12.027Z</time></trkpt><trkpt lat="44.20906492865195" lon="11.32488447180638"><ele>808.3333333333333</ele><time>2026-05-01T14:59:13.028Z</time></trkpt><trkpt lat="44.20925269942484" lon="11.324809740651608"><ele>808.6666666666667</ele><time>2026-05-01T14:59:14.028Z</time></trkpt><trkpt lat="44.20944155520491" lon="11.324750018094734"><ele>809.0</ele><time>2026-05-01T14:59:15.028Z</time></trkpt><trkpt lat="44.20964219463541" lon="11.324714282410993"><ele>805.6666666666667</ele><time>2026-05-01T14:59:16.028Z</time></trkpt><trkpt lat="44.20985364946246" lon="11.32470352652326"><ele>802.3333333333333</ele><time>2026-05-01T14:59:17.028Z</time></trkpt><trkpt lat="44.21006883561705" lon="11.32469233083963"><ele>799.0</ele><time>2026-05-01T14:59:18.028Z</time></trkpt><trkpt lat="44.21029086329597" lon="11.324662806249245"><ele>799.0</ele><time>2026-05-01T14:59:19.028Z</time></trkpt><trkpt lat="44.21051777200734" lon="11.324602773200139"><ele>799.0</ele><time>2026-05-01T14:59:20.028Z</time></trkpt><trkpt lat="44.21074433230061" lon="11.324513580690533"><ele>803.5</ele><time>2026-05-01T14:59:21.028Z</time></trkpt><trkpt lat="44.2109740091325" lon="11.324414670353077"><ele>808.0</ele><time>2026-05-01T14:59:22.028Z</time></trkpt><trkpt lat="44.21120505049429" lon="11.324321113285755"><ele>808.0</ele><time>2026-05-01T14:59:23.028Z</time></trkpt><trkpt lat="44.21143174200804" lon="11.324228501906918"><ele>808.0</ele><time>2026-05-01T14:59:24.028Z</time></trkpt><trkpt lat="44.21164955281216" lon="11.324131896688765"><ele>806.6666666666666</ele><time>2026-05-01T14:59:25.028Z</time></trkpt><trkpt lat="44.21185486605481" lon="11.32402818553752"><ele>805.3333333333333</ele><time>2026-05-01T14:59:26.028Z</time></trkpt><trkpt lat="44.21204897482892" lon="11.323926604478904"><ele>804.0</ele><time>2026-05-01T14:59:27.028Z</time></trkpt><trkpt lat="44.21223443730888" lon="11.323823650589931"><ele>807.0</ele><time>2026-05-01T14:59:28.028Z</time></trkpt><trkpt lat="44.21241689669754" lon="11.323731450735728"><ele>810.0</ele><time>2026-05-01T14:59:29.028Z</time></trkpt><trkpt lat="44.21259867687213" lon="11.323640129830277"><ele>813.0</ele><time>2026-05-01T14:59:30.028Z</time></trkpt><trkpt lat="44.21278372488079" lon="11.32354928850619"><ele>813.0</ele><time>2026-05-01T14:59:31.028Z</time></trkpt><trkpt lat="44.21296952746183" lon="11.32345774015544"><ele>813.0</ele><time>2026-05-01T14:59:32.028Z</time></trkpt><trkpt lat="44.21314482682651" lon="11.323355810432984"><ele>813.0</ele><time>2026-05-01T14:59:33.028Z</time></trkpt><trkpt lat="44.213306772939625" lon="11.323258008059694"><ele>812.3333333333333</ele><time>2026-05-01T14:59:34.028Z</time></trkpt><trkpt lat="44.21346394094428" lon="11.323157627988419"><ele>811.6666666666666</ele><time>2026-05-01T14:59:35.028Z</time></trkpt><trkpt lat="44.213625099185386" lon="11.32307008295701"><ele>811.0</ele><time>2026-05-01T14:59:36.028Z</time></trkpt><trkpt lat="44.213790113430385" lon="11.322993311834306"><ele>811.0</ele><time>2026-05-01T14:59:37.028Z</time></trkpt><trkpt lat="44.2139686004213" lon="11.322931227644798"><ele>811.0</ele><time>2026-05-01T14:59:38.028Z</time></trkpt><trkpt lat="44.21415094876381" lon="11.32287569578171"><ele>811.0</ele><time>2026-05-01T14:59:39.028Z</time></trkpt><trkpt lat="44.21433514970082" lon="11.32282118308374"><ele>812.3333333333333</ele><time>2026-05-01T14:59:40.028Z</time></trkpt><trkpt lat="44.214519834104976" lon="11.322764010965582"><ele>813.6666666666667</ele><time>2026-05-01T14:59:41.028Z</time></trkpt><trkpt lat="44.214705741429995" lon="11.32270628132999"><ele>815.0</ele><time>2026-05-01T14:59:42.028Z</time></trkpt><trkpt lat="44.214892612306556" lon="11.322653527271985"><ele>817.0</ele><time>2026-05-01T14:59:43.028Z</time></trkpt><trkpt lat="44.21507637105372" lon="11.322603936909111"><ele>819.0</ele><time>2026-05-01T14:59:44.028Z</time></trkpt><trkpt lat="44.21526162129598" lon="11.322559521922432"><ele>821.0</ele><time>2026-05-01T14:59:45.028Z</time></trkpt><trkpt lat="44.215444925965244" lon="11.322510250620795"><ele>821.0</ele><time>2026-05-01T14:59:46.028Z</time></trkpt><trkpt lat="44.21562315591606" lon="11.322456373381105"><ele>821.0</ele><time>2026-05-01T14:59:47.028Z</time></trkpt><trkpt lat="44.21579675266768" lon="11.32240323198556"><ele>821.0</ele><time>2026-05-01T14:59:48.028Z</time></trkpt><trkpt lat="44.215966163288456" lon="11.322342860855617"><ele>821.6666666666667</ele><time>2026-05-01T14:59:49.028Z</time></trkpt><trkpt lat="44.216131866318285" lon="11.322262329674263"><ele>822.3333333333333</ele><time>2026-05-01T14:59:50.028Z</time></trkpt><trkpt lat="44.216303302120124" lon="11.322183783154507"><ele>823.0</ele><time>2026-05-01T14:59:51.028Z</time></trkpt><trkpt lat="44.21646400504608" lon="11.322061710270624"><ele>821.3333333333333</ele><time>2026-05-01T14:59:52.028Z</time></trkpt><trkpt lat="44.216605827889545" lon="11.321938315340075"><ele>819.6666666666667</ele><time>2026-05-01T14:59:53.029Z</time></trkpt><trkpt lat="44.21672562871502" lon="11.32178641764693"><ele>818.0</ele><time>2026-05-01T14:59:54.029Z</time></trkpt><trkpt lat="44.21686774441879" lon="11.321644602902538"><ele>818.0</ele><time>2026-05-01T14:59:55.029Z</time></trkpt><trkpt lat="44.21701739941787" lon="11.321503820133326"><ele>818.0</ele><time>2026-05-01T14:59:56.029Z</time></trkpt><trkpt lat="44.2171619998852" lon="11.321354425487803"><ele>818.0</ele><time>2026-05-01T14:59:57.029Z</time></trkpt><trkpt lat="44.21729937004014" lon="11.321208224439419"><ele>817.0</ele><time>2026-05-01T14:59:58.029Z</time></trkpt><trkpt lat="44.217432401215135" lon="11.321070927461106"><ele>816.0</ele><time>2026-05-01T14:59:59.029Z</time></trkpt><trkpt lat="44.21756293475577" lon="11.320936470253155"><ele>815.0</ele><time>2026-05-01T15:00:00.029Z</time></trkpt><trkpt lat="44.21770613076259" lon="11.32080956039268"><ele>815.0</ele><time>2026-05-01T15:00:01.029Z</time></trkpt><trkpt lat="44.21785088338667" lon="11.320682561094566"><ele>815.0</ele><time>2026-05-01T15:00:02.029Z</time></trkpt><trkpt lat="44.21799914429195" lon="11.320571637653362"><ele>815.0</ele><time>2026-05-01T15:00:03.029Z</time></trkpt><trkpt lat="44.218170726706326" lon="11.320502716160973"><ele>818.6666666666667</ele><time>2026-05-01T15:00:04.029Z</time></trkpt><trkpt lat="44.218336200674045" lon="11.320410798875605"><ele>822.3333333333333</ele><time>2026-05-01T15:00:05.029Z</time></trkpt><trkpt lat="44.21848367103492" lon="11.320306566596127"><ele>826.0</ele><time>2026-05-01T15:00:06.029Z</time></trkpt><trkpt lat="44.218621392673434" lon="11.320225668103063"><ele>826.0</ele><time>2026-05-01T15:00:07.029Z</time></trkpt><trkpt lat="44.218756212323385" lon="11.32018842662751"><ele>826.0</ele><time>2026-05-01T15:00:08.029Z</time></trkpt><trkpt lat="44.218861210954984" lon="11.320228948715592"><ele>826.0</ele><time>2026-05-01T15:00:09.029Z</time></trkpt><trkpt lat="44.21894020623976" lon="11.320315941464985"><ele>826.0</ele><time>2026-05-01T15:00:10.029Z</time></trkpt><trkpt lat="44.219002720112236" lon="11.320422167676417"><ele>826.0</ele><time>2026-05-01T15:00:11.029Z</time></trkpt><trkpt lat="44.2190731337238" lon="11.32057420505784"><ele>824.6666666666666</ele><time>2026-05-01T15:00:12.029Z</time></trkpt><trkpt lat="44.21916438681108" lon="11.320736270630972"><ele>823.3333333333333</ele><time>2026-05-01T15:00:13.029Z</time></trkpt><trkpt lat="44.21930361231737" lon="11.320872799436772"><ele>822.0</ele><time>2026-05-01T15:00:14.029Z</time></trkpt><trkpt lat="44.219451930759" lon="11.320953884997671"><ele>822.0</ele><time>2026-05-01T15:00:15.029Z</time></trkpt><trkpt lat="44.21960744643351" lon="11.3210014145489"><ele>822.0</ele><time>2026-05-01T15:00:16.029Z</time></trkpt><trkpt lat="44.21975016084284" lon="11.321111968495408"><ele>822.0</ele><time>2026-05-01T15:00:17.029Z</time></trkpt><trkpt lat="44.2198828368503" lon="11.321251890541868"><ele>825.0</ele><time>2026-05-01T15:00:18.029Z</time></trkpt><trkpt lat="44.21998899922918" lon="11.321410374821125"><ele>828.0</ele><time>2026-05-01T15:00:19.029Z</time></trkpt><trkpt lat="44.22004623257293" lon="11.321591338582857"><ele>831.0</ele><time>2026-05-01T15:00:20.029Z</time></trkpt><trkpt lat="44.22008853126013" lon="11.321763334558115"><ele>834.0</ele><time>2026-05-01T15:00:21.029Z</time></trkpt><trkpt lat="44.2201094803519" lon="11.321966183021482"><ele>834.0</ele><time>2026-05-01T15:00:22.029Z</time></trkpt><trkpt lat="44.22011887635967" lon="11.322196085011756"><ele>834.0</ele><time>2026-05-01T15:00:23.029Z</time></trkpt><trkpt lat="44.22012553236946" lon="11.322408282682696"><ele>834.0</ele><time>2026-05-01T15:00:24.029Z</time></trkpt><trkpt lat="44.22014224141473" lon="11.322591525982999"><ele>831.8000000000001</ele><time>2026-05-01T15:00:25.029Z</time></trkpt><trkpt lat="44.220181803621436" lon="11.322747652436542"><ele>829.6</ele><time>2026-05-01T15:00:26.029Z</time></trkpt><trkpt lat="44.22025087773526" lon="11.322866371944388"><ele>827.4</ele><time>2026-05-01T15:00:27.029Z</time></trkpt><trkpt lat="44.220345891579676" lon="11.322926415187915"><ele>825.2</ele><time>2026-05-01T15:00:28.029Z</time></trkpt><trkpt lat="44.220437228375744" lon="11.322919337194584"><ele>823.0</ele><time>2026-05-01T15:00:29.029Z</time></trkpt><trkpt lat="44.22053936601147" lon="11.322897591915886"><ele>827.25</ele><time>2026-05-01T15:00:30.029Z</time></trkpt><trkpt lat="44.220660219634354" lon="11.32283302015048"><ele>831.5</ele><time>2026-05-01T15:00:31.029Z</time></trkpt><trkpt lat="44.22079873517461" lon="11.322745912068918"><ele>835.75</ele><time>2026-05-01T15:00:32.029Z</time></trkpt><trkpt lat="44.22094803347658" lon="11.322658409754794"><ele>840.0</ele><time>2026-05-01T15:00:33.029Z</time></trkpt><trkpt lat="44.221102410093984" lon="11.3225663105927"><ele>840.0</ele><time>2026-05-01T15:00:34.03Z</time></trkpt><trkpt lat="44.221245610188504" lon="11.322472762233723"><ele>840.0</ele><time>2026-05-01T15:00:35.03Z</time></trkpt><trkpt lat="44.22139343378689" lon="11.322413287252793"><ele>840.0</ele><time>2026-05-01T15:00:36.03Z</time></trkpt><trkpt lat="44.22152307375721" lon="11.322326703488805"><ele>837.75</ele><time>2026-05-01T15:00:37.03Z</time></trkpt><trkpt lat="44.22165409468187" lon="11.322314256508141"><ele>835.5</ele><time>2026-05-01T15:00:38.03Z</time></trkpt><trkpt lat="44.22178058976561" lon="11.322344185813538"><ele>833.25</ele><time>2026-05-01T15:00:39.03Z</time></trkpt><trkpt lat="44.22190203618701" lon="11.322415289598068"><ele>831.0</ele><time>2026-05-01T15:00:40.03Z</time></trkpt><trkpt lat="44.222010356285196" lon="11.322516342384334"><ele>831.0</ele><time>2026-05-01T15:00:41.03Z</time></trkpt><trkpt lat="44.22209990176266" lon="11.32264643740838"><ele>831.0</ele><time>2026-05-01T15:00:42.03Z</time></trkpt><trkpt lat="44.2221883003038" lon="11.322797198064132"><ele>831.0</ele><time>2026-05-01T15:00:43.03Z</time></trkpt><trkpt lat="44.222279332154905" lon="11.32295953643475"><ele>831.0</ele><time>2026-05-01T15:00:44.03Z</time></trkpt><trkpt lat="44.22235883438107" lon="11.323114502096226"><ele>830.75</ele><time>2026-05-01T15:00:45.03Z</time></trkpt><trkpt lat="44.22243602219287" lon="11.3232570159175"><ele>830.5</ele><time>2026-05-01T15:00:46.03Z</time></trkpt><trkpt lat="44.22252503824416" lon="11.323397830640038"><ele>830.25</ele><time>2026-05-01T15:00:47.03Z</time></trkpt><trkpt lat="44.222643155741316" lon="11.323537537815145"><ele>830.0</ele><time>2026-05-01T15:00:48.03Z</time></trkpt><trkpt lat="44.22277519095396" lon="11.323660209044895"><ele>830.0</ele><time>2026-05-01T15:00:49.03Z</time></trkpt><trkpt lat="44.222926205934534" lon="11.323759046319434"><ele>830.0</ele><time>2026-05-01T15:00:50.03Z</time></trkpt><trkpt lat="44.22307799296134" lon="11.323850358769977"><ele>830.0</ele><time>2026-05-01T15:00:51.03Z</time></trkpt><trkpt lat="44.2232242209542" lon="11.323925988427812"><ele>835.0</ele><time>2026-05-01T15:00:52.028Z</time></trkpt><trkpt lat="44.22336182410937" lon="11.323991705320518"><ele>840.0</ele><time>2026-05-01T15:00:53.028Z</time></trkpt><trkpt lat="44.2234823073428" lon="11.324027830902976"><ele>845.0</ele><time>2026-05-01T15:00:54.028Z</time></trkpt><trkpt lat="44.22358879298812" lon="11.324013218076132"><ele>850.0</ele><time>2026-05-01T15:00:55.028Z</time></trkpt><trkpt lat="44.223685506644024" lon="11.32395779197584"><ele>849.4</ele><time>2026-05-01T15:00:56.028Z</time></trkpt><trkpt lat="44.22377060722438" lon="11.323873260504305"><ele>848.8</ele><time>2026-05-01T15:00:57.028Z</time></trkpt><trkpt lat="44.22384717458664" lon="11.323789380385895"><ele>848.2</ele><time>2026-05-01T15:00:58.028Z</time></trkpt><trkpt lat="44.22394436831863" lon="11.323740009244537"><ele>847.6</ele><time>2026-05-01T15:00:59.028Z</time></trkpt><trkpt lat="44.22405636899099" lon="11.323733802137276"><ele>847.0</ele><time>2026-05-01T15:01:00.028Z</time></trkpt><trkpt lat="44.22415947347887" lon="11.323765354769707"><ele>847.0</ele><time>2026-05-01T15:01:01.028Z</time></trkpt><trkpt lat="44.2242426023326" lon="11.32385246353398"><ele>847.0</ele><time>2026-05-01T15:01:02.028Z</time></trkpt><trkpt lat="44.2243096902948" lon="11.32398225903351"><ele>847.0</ele><time>2026-05-01T15:01:03.028Z</time></trkpt><trkpt lat="44.22436813518401" lon="11.324131918303756"><ele>847.0</ele><time>2026-05-01T15:01:04.028Z</time></trkpt><trkpt lat="44.22442917019743" lon="11.324294306276043"><ele>849.25</ele><time>2026-05-01T15:01:05.028Z</time></trkpt><trkpt lat="44.22447926223247" lon="11.324471726054751"><ele>851.5</ele><time>2026-05-01T15:01:06.028Z</time></trkpt><trkpt lat="44.224545539990885" lon="11.32461900792718"><ele>853.75</ele><time>2026-05-01T15:01:07.028Z</time></trkpt><trkpt lat="44.224631547622856" lon="11.324716623300649"><ele>856.0</ele><time>2026-05-01T15:01:08.029Z</time></trkpt><trkpt lat="44.224722737436565" lon="11.324796824653388"><ele>859.0</ele><time>2026-05-01T15:01:09.029Z</time></trkpt><trkpt lat="44.22485140881287" lon="11.324853182664679"><ele>862.0</ele><time>2026-05-01T15:01:10.029Z</time></trkpt><trkpt lat="44.22498419155189" lon="11.324914149012686"><ele>865.0</ele><time>2026-05-01T15:01:11.029Z</time></trkpt><trkpt lat="44.22511682478017" lon="11.324983600541195"><ele>868.0</ele><time>2026-05-01T15:01:12.029Z</time></trkpt><trkpt lat="44.225240835604026" lon="11.325070593916221"><ele>868.0</ele><time>2026-05-01T15:01:13.029Z</time></trkpt><trkpt lat="44.22534934167272" lon="11.325169512532087"><ele>868.0</ele><time>2026-05-01T15:01:14.029Z</time></trkpt><trkpt lat="44.22543731154468" lon="11.325278596254952"><ele>868.0</ele><time>2026-05-01T15:01:15.029Z</time></trkpt><trkpt lat="44.22550512593467" lon="11.325396519797495"><ele>868.0</ele><time>2026-05-01T15:01:16.029Z</time></trkpt><trkpt lat="44.22555289146226" lon="11.3255327463421"><ele>867.0</ele><time>2026-05-01T15:01:17.029Z</time></trkpt><trkpt lat="44.22555839230273" lon="11.325699227228688"><ele>866.0</ele><time>2026-05-01T15:01:18.029Z</time></trkpt><trkpt lat="44.2255671461701" lon="11.325878304900911"><ele>865.0</ele><time>2026-05-01T15:01:19.029Z</time></trkpt><trkpt lat="44.22560105469278" lon="11.326058829501918"><ele>864.0</ele><time>2026-05-01T15:01:20.029Z</time></trkpt><trkpt lat="44.22569456281363" lon="11.326219567050353"><ele>867.3333333333333</ele><time>2026-05-01T15:01:21.029Z</time></trkpt><trkpt lat="44.22577791910632" lon="11.32639688398679"><ele>870.6666666666666</ele><time>2026-05-01T15:01:22.029Z</time></trkpt><trkpt lat="44.22583748238561" lon="11.326589778711215"><ele>874.0</ele><time>2026-05-01T15:01:23.029Z</time></trkpt><trkpt lat="44.225903480495006" lon="11.326773967162657"><ele>874.0</ele><time>2026-05-01T15:01:24.029Z</time></trkpt><trkpt lat="44.22595963661" lon="11.326949039091465"><ele>874.0</ele><time>2026-05-01T15:01:25.029Z</time></trkpt><trkpt lat="44.226002290740006" lon="11.327122551812932"><ele>874.0</ele><time>2026-05-01T15:01:26.029Z</time></trkpt><trkpt lat="44.22601895937132" lon="11.327301713426065"><ele>874.0</ele><time>2026-05-01T15:01:27.029Z</time></trkpt><trkpt lat="44.226021745155876" lon="11.327495461585913"><ele>876.2</ele><time>2026-05-01T15:01:28.029Z</time></trkpt><trkpt lat="44.22602333187214" lon="11.327679082531855"><ele>878.4000000000001</ele><time>2026-05-01T15:01:29.029Z</time></trkpt><trkpt lat="44.22602964508055" lon="11.32782955457327"><ele>880.6</ele><time>2026-05-01T15:01:30.029Z</time></trkpt><trkpt lat="44.226057557071535" lon="11.327950451844153"><ele>882.8</ele><time>2026-05-01T15:01:31.029Z</time></trkpt><trkpt lat="44.22611513778849" lon="11.328070000685035"><ele>885.0</ele><time>2026-05-01T15:01:32.029Z</time></trkpt><trkpt lat="44.22620913579729" lon="11.328168632429332"><ele>886.0</ele><time>2026-05-01T15:01:33.029Z</time></trkpt><trkpt lat="44.22632549326185" lon="11.32824748680642"><ele>887.0</ele><time>2026-05-01T15:01:34.029Z</time></trkpt><trkpt lat="44.226437512472295" lon="11.328320665972573"><ele>888.0</ele><time>2026-05-01T15:01:35.029Z</time></trkpt><trkpt lat="44.22654638150165" lon="11.328371641737778"><ele>889.0</ele><time>2026-05-01T15:01:36.029Z</time></trkpt><trkpt lat="44.22664571882379" lon="11.32843398881787"><ele>885.75</ele><time>2026-05-01T15:01:37.029Z</time></trkpt><trkpt lat="44.22674383030429" lon="11.328516554455247"><ele>882.5</ele><time>2026-05-01T15:01:38.029Z</time></trkpt><trkpt lat="44.2268828622233" lon="11.328550440782536"><ele>879.25</ele><time>2026-05-01T15:01:39.029Z</time></trkpt><trkpt lat="44.227064091982115" lon="11.328523506444329"><ele>876.0</ele><time>2026-05-01T15:01:40.03Z</time></trkpt><trkpt lat="44.227204612925696" lon="11.328452513826349"><ele>875.25</ele><time>2026-05-01T15:01:41.029Z</time></trkpt><trkpt lat="44.22732552884836" lon="11.32838039163382"><ele>874.5</ele><time>2026-05-01T15:01:42.029Z</time></trkpt><trkpt lat="44.227449279480076" lon="11.328313242971676"><ele>873.75</ele><time>2026-05-01T15:01:43.03Z</time></trkpt><trkpt lat="44.22757705933108" lon="11.32827133820147"><ele>873.0</ele><time>2026-05-01T15:01:44.029Z</time></trkpt><trkpt lat="44.22771946698145" lon="11.32829535743028"><ele>873.0</ele><time>2026-05-01T15:01:45.029Z</time></trkpt><trkpt lat="44.227839982652405" lon="11.328357097604886"><ele>873.0</ele><time>2026-05-01T15:01:46.03Z</time></trkpt><trkpt lat="44.22794840419916" lon="11.328448240565978"><ele>873.0</ele><time>2026-05-01T15:01:47.03Z</time></trkpt><trkpt lat="44.228056881920665" lon="11.328571818561384"><ele>873.0</ele><time>2026-05-01T15:01:48.03Z</time></trkpt><trkpt lat="44.228174619769305" lon="11.328701290296584"><ele>872.75</ele><time>2026-05-01T15:01:49.029Z</time></trkpt><trkpt lat="44.228288964321095" lon="11.32881055900695"><ele>872.5</ele><time>2026-05-01T15:01:50.03Z</time></trkpt><trkpt lat="44.228405937875245" lon="11.328878721789243"><ele>872.25</ele><time>2026-05-01T15:01:51.03Z</time></trkpt><trkpt lat="44.22852596205047" lon="11.328905531786186"><ele>872.0</ele><time>2026-05-01T15:01:52.03Z</time></trkpt><trkpt lat="44.228646477649114" lon="11.328907802441668"><ele>872.0</ele><time>2026-05-01T15:01:53.03Z</time></trkpt><trkpt lat="44.22877262853869" lon="11.328914882122898"><ele>872.0</ele><time>2026-05-01T15:01:54.03Z</time></trkpt><trkpt lat="44.22889115110081" lon="11.328955990825115"><ele>872.0</ele><time>2026-05-01T15:01:55.03Z</time></trkpt><trkpt lat="44.229014863511715" lon="11.329048646837878"><ele>872.0</ele><time>2026-05-01T15:01:56.03Z</time></trkpt><trkpt lat="44.22916732629013" lon="11.329156816782287"><ele>869.3333333333334</ele><time>2026-05-01T15:01:57.03Z</time></trkpt><trkpt lat="44.229329000379906" lon="11.329259454158333"><ele>866.6666666666667</ele><time>2026-05-01T15:01:58.03Z</time></trkpt><trkpt lat="44.22950359342043" lon="11.329353898059727"><ele>864.0</ele><time>2026-05-01T15:01:59.03Z</time></trkpt><trkpt lat="44.229693616732504" lon="11.329466280669697"><ele>860.0</ele><time>2026-05-01T15:02:00.03Z</time></trkpt><trkpt lat="44.22989048633223" lon="11.329554186117925"><ele>856.0</ele><time>2026-05-01T15:02:01.03Z</time></trkpt><trkpt lat="44.23007079659753" lon="11.329628160979926"><ele>852.0</ele><time>2026-05-01T15:02:02.03Z</time></trkpt><trkpt lat="44.230240779535414" lon="11.329686226600424"><ele>853.5</ele><time>2026-05-01T15:02:03.03Z</time></trkpt><trkpt lat="44.23039657737866" lon="11.329751290761841"><ele>855.0</ele><time>2026-05-01T15:02:04.03Z</time></trkpt><trkpt lat="44.230541414214876" lon="11.329815529589908"><ele>856.5</ele><time>2026-05-01T15:02:05.03Z</time></trkpt><trkpt lat="44.230666079395654" lon="11.329866431028249"><ele>858.0</ele><time>2026-05-01T15:02:06.03Z</time></trkpt><trkpt lat="44.23076331445804" lon="11.329934754615438"><ele>858.0</ele><time>2026-05-01T15:02:07.03Z</time></trkpt><trkpt lat="44.230842567612115" lon="11.330026439916312"><ele>858.0</ele><time>2026-05-01T15:02:08.03Z</time></trkpt><trkpt lat="44.230891883269685" lon="11.330159660057843"><ele>858.0</ele><time>2026-05-01T15:02:09.03Z</time></trkpt><trkpt lat="44.23093089155558" lon="11.330304376341076"><ele>858.0</ele><time>2026-05-01T15:02:10.03Z</time></trkpt><trkpt lat="44.230980534927205" lon="11.330462390997841"><ele>858.0</ele><time>2026-05-01T15:02:11.03Z</time></trkpt><trkpt lat="44.23104519731448" lon="11.330607463085324"><ele>859.5</ele><time>2026-05-01T15:02:12.03Z</time></trkpt><trkpt lat="44.23113852060066" lon="11.330722541579195"><ele>861.0</ele><time>2026-05-01T15:02:13.03Z</time></trkpt><trkpt lat="44.23126934764864" lon="11.330785103685692"><ele>862.5</ele><time>2026-05-01T15:02:14.03Z</time></trkpt><trkpt lat="44.23140043725906" lon="11.330788103484936"><ele>864.0</ele><time>2026-05-01T15:02:15.03Z</time></trkpt><trkpt lat="44.23152865719203" lon="11.330798090983395"><ele>860.25</ele><time>2026-05-01T15:02:16.03Z</time></trkpt><trkpt lat="44.23165387283425" lon="11.330807654009641"><ele>856.5</ele><time>2026-05-01T15:02:17.03Z</time></trkpt><trkpt lat="44.2317690006801" lon="11.330841387950942"><ele>852.75</ele><time>2026-05-01T15:02:18.03Z</time></trkpt><trkpt lat="44.23186562088301" lon="11.330918399333589"><ele>849.0</ele><time>2026-05-01T15:02:19.03Z</time></trkpt><trkpt lat="44.23195605926365" lon="11.331009327568824"><ele>849.0</ele><time>2026-05-01T15:02:20.03Z</time></trkpt><trkpt lat="44.2320304674297" lon="11.33112005069665"><ele>849.0</ele><time>2026-05-01T15:02:21.03Z</time></trkpt><trkpt lat="44.23209115019553" lon="11.331248365536698"><ele>849.0</ele><time>2026-05-01T15:02:22.03Z</time></trkpt><trkpt lat="44.232127782652576" lon="11.331393682486292"><ele>849.0</ele><time>2026-05-01T15:02:23.03Z</time></trkpt><trkpt lat="44.23213993666359" lon="11.331554104960961"><ele>849.0</ele><time>2026-05-01T15:02:24.031Z</time></trkpt><trkpt lat="44.23212925339235" lon="11.33170041331794"><ele>851.75</ele><time>2026-05-01T15:02:25.031Z</time></trkpt><trkpt lat="44.23210558488573" lon="11.331855838887822"><ele>854.5</ele><time>2026-05-01T15:02:26.031Z</time></trkpt><trkpt lat="44.2320974142693" lon="11.332026562215532"><ele>857.25</ele><time>2026-05-01T15:02:27.031Z</time></trkpt><trkpt lat="44.232143907243234" lon="11.332181902480148"><ele>860.0</ele><time>2026-05-01T15:02:28.031Z</time></trkpt><trkpt lat="44.23222351467016" lon="11.33227121435494"><ele>858.8</ele><time>2026-05-01T15:02:29.031Z</time></trkpt><trkpt lat="44.232320651834485" lon="11.332297405910596"><ele>857.6</ele><time>2026-05-01T15:02:30.031Z</time></trkpt><trkpt lat="44.232427875628595" lon="11.3323150359328"><ele>856.4000000000001</ele><time>2026-05-01T15:02:31.031Z</time></trkpt><trkpt lat="44.23254148410222" lon="11.33233565602159"><ele>855.2</ele><time>2026-05-01T15:02:32.031Z</time></trkpt><trkpt lat="44.232647661156406" lon="11.33237950603021"><ele>854.0</ele><time>2026-05-01T15:02:33.031Z</time></trkpt><trkpt lat="44.23273729444262" lon="11.332466591750803"><ele>854.0</ele><time>2026-05-01T15:02:34.031Z</time></trkpt><trkpt lat="44.23278420911984" lon="11.332607493903843"><ele>854.0</ele><time>2026-05-01T15:02:35.031Z</time></trkpt><trkpt lat="44.232815832421466" lon="11.332759280211263"><ele>854.0</ele><time>2026-05-01T15:02:36.031Z</time></trkpt><trkpt lat="44.23284889776626" lon="11.332931874613466"><ele>854.0</ele><time>2026-05-01T15:02:37.031Z</time></trkpt><trkpt lat="44.232888800532216" lon="11.333113005155747"><ele>851.75</ele><time>2026-05-01T15:02:38.031Z</time></trkpt><trkpt lat="44.23295544223237" lon="11.333284945670062"><ele>849.5</ele><time>2026-05-01T15:02:39.031Z</time></trkpt><trkpt lat="44.23305686588987" lon="11.333416824360189"><ele>847.25</ele><time>2026-05-01T15:02:40.031Z</time></trkpt><trkpt lat="44.2331681329507" lon="11.333551265357759"><ele>845.0</ele><time>2026-05-01T15:02:41.031Z</time></trkpt><trkpt lat="44.23328445107146" lon="11.333674456363253"><ele>845.0</ele><time>2026-05-01T15:02:42.031Z</time></trkpt><trkpt lat="44.233404003767255" lon="11.333805236987674"><ele>845.0</ele><time>2026-05-01T15:02:43.031Z</time></trkpt><trkpt lat="44.23353144339976" lon="11.333947978452128"><ele>845.0</ele><time>2026-05-01T15:02:44.031Z</time></trkpt><trkpt lat="44.233651853760776" lon="11.334081202221569"><ele>845.6</ele><time>2026-05-01T15:02:45.031Z</time></trkpt><trkpt lat="44.23374664104222" lon="11.334197833147554"><ele>846.2</ele><time>2026-05-01T15:02:46.031Z</time></trkpt><trkpt lat="44.23382951542566" lon="11.334298524634304"><ele>846.8</ele><time>2026-05-01T15:02:47.031Z</time></trkpt><trkpt lat="44.2339237011966" lon="11.334371710455777"><ele>847.4</ele><time>2026-05-01T15:02:48.031Z</time></trkpt><trkpt lat="44.234009480063506" lon="11.334438649493762"><ele>848.0</ele><time>2026-05-01T15:02:49.031Z</time></trkpt><trkpt lat="44.23407637682054" lon="11.334500165837916"><ele>848.0</ele><time>2026-05-01T15:02:50.031Z</time></trkpt><trkpt lat="44.234122274435634" lon="11.334561366432233"><ele>848.0</ele><time>2026-05-01T15:02:51.031Z</time></trkpt><trkpt lat="44.23412555978949" lon="11.33469342818757"><ele>848.0</ele><time>2026-05-01T15:02:53.031Z</time></trkpt><trkpt lat="44.23409594376821" lon="11.33477107626666"><ele>848.0</ele><time>2026-05-01T15:02:54.031Z</time></trkpt><trkpt lat="44.2340734308364" lon="11.334854368861983"><ele>848.0</ele><time>2026-05-01T15:02:55.031Z</time></trkpt><trkpt lat="44.23402996126797" lon="11.33494702634524"><ele>848.0</ele><time>2026-05-01T15:02:57.031Z</time></trkpt><trkpt lat="44.23398667001981" lon="11.335031939643935"><ele>848.0</ele><time>2026-05-01T15:03:10.032Z</time></trkpt><trkpt lat="44.233946469381934" lon="11.335207290241113"><ele>848.6666666666667</ele><time>2026-05-01T15:03:12.032Z</time></trkpt><trkpt lat="44.233921732769204" lon="11.33532048793078"><ele>849.3333333333334</ele><time>2026-05-01T15:03:13.032Z</time></trkpt><trkpt lat="44.23389371367381" lon="11.335441492215185"><ele>850.0</ele><time>2026-05-01T15:03:14.032Z</time></trkpt><trkpt lat="44.23386434487041" lon="11.335562869994185"><ele>850.6666666666667</ele><time>2026-05-01T15:03:15.032Z</time></trkpt><trkpt lat="44.23383605616064" lon="11.335677291263295"><ele>851.3333333333334</ele><time>2026-05-01T15:03:16.032Z</time></trkpt><trkpt lat="44.23380877731474" lon="11.33579308439776"><ele>852.0</ele><time>2026-05-01T15:03:17.032Z</time></trkpt><trkpt lat="44.23378688420464" lon="11.335895142659705"><ele>851.8333333333334</ele><time>2026-05-01T15:03:18.032Z</time></trkpt><trkpt lat="44.233779475079736" lon="11.335997551326264"><ele>851.6666666666667</ele><time>2026-05-01T15:03:19.032Z</time></trkpt><trkpt lat="44.2337938956631" lon="11.336094351588034"><ele>851.5</ele><time>2026-05-01T15:03:20.032Z</time></trkpt><trkpt lat="44.23384023629818" lon="11.336179081379758"><ele>851.3333333333334</ele><time>2026-05-01T15:03:21.032Z</time></trkpt><trkpt lat="44.233910462890044" lon="11.336254079675056"><ele>851.1666666666667</ele><time>2026-05-01T15:03:22.032Z</time></trkpt><trkpt lat="44.23398900977835" lon="11.336318019005779"><ele>851.0</ele><time>2026-05-01T15:03:23.032Z</time></trkpt><trkpt lat="44.23406734466802" lon="11.336360818209045"><ele>849.5999999999999</ele><time>2026-05-01T15:03:24.032Z</time></trkpt><trkpt lat="44.23412743197729" lon="11.336444330677264"><ele>848.2</ele><time>2026-05-01T15:03:25.032Z</time></trkpt><trkpt lat="44.234157420372746" lon="11.336560246626824"><ele>846.8</ele><time>2026-05-01T15:03:26.032Z</time></trkpt><trkpt lat="44.23416647467656" lon="11.336700137041696"><ele>845.4000000000001</ele><time>2026-05-01T15:03:27.032Z</time></trkpt><trkpt lat="44.2341492426015" lon="11.33685330336502"><ele>844.0</ele><time>2026-05-01T15:03:28.032Z</time></trkpt><trkpt lat="44.23410724304374" lon="11.33700096846883"><ele>844.0</ele><time>2026-05-01T15:03:29.032Z</time></trkpt><trkpt lat="44.23406030596421" lon="11.337127887113672"><ele>844.0</ele><time>2026-05-01T15:03:30.032Z</time></trkpt><trkpt lat="44.23400498446067" lon="11.337235708382222"><ele>844.0</ele><time>2026-05-01T15:03:31.032Z</time></trkpt><trkpt lat="44.23391946804014" lon="11.337299865286829"><ele>844.0</ele><time>2026-05-01T15:03:32.032Z</time></trkpt><trkpt lat="44.23384835566834" lon="11.337376426255227"><ele>844.0</ele><time>2026-05-01T15:03:33.032Z</time></trkpt><trkpt lat="44.233791067450944" lon="11.337471153082141"><ele>834.8000000000001</ele><time>2026-05-01T15:03:34.032Z</time></trkpt><trkpt lat="44.23374712732975" lon="11.337595654245197"><ele>825.6</ele><time>2026-05-01T15:03:35.032Z</time></trkpt><trkpt lat="44.233733309001586" lon="11.337742117418117"><ele>816.4</ele><time>2026-05-01T15:03:36.032Z</time></trkpt><trkpt lat="44.23371151317868" lon="11.33788564222848"><ele>807.2</ele><time>2026-05-01T15:03:37.032Z</time></trkpt><trkpt lat="44.233689375404325" lon="11.338038867766478"><ele>798.0</ele><time>2026-05-01T15:03:38.032Z</time></trkpt><trkpt lat="44.2336551901026" lon="11.33819552405628"><ele>798.0</ele><time>2026-05-01T15:03:39.032Z</time></trkpt><trkpt lat="44.2336358062659" lon="11.338364416076857"><ele>798.0</ele><time>2026-05-01T15:03:40.032Z</time></trkpt><trkpt lat="44.2336188263758" lon="11.33851527186404"><ele>798.0</ele><time>2026-05-01T15:03:41.032Z</time></trkpt><trkpt lat="44.233599305012135" lon="11.338641869249708"><ele>798.0</ele><time>2026-05-01T15:03:42.032Z</time></trkpt><trkpt lat="44.233560809956664" lon="11.33875622082094"><ele>798.0</ele><time>2026-05-01T15:03:43.033Z</time></trkpt><trkpt lat="44.23350383719314" lon="11.33886647031437"><ele>798.5</ele><time>2026-05-01T15:03:44.033Z</time></trkpt><trkpt lat="44.23343572907861" lon="11.338951201714506"><ele>799.0</ele><time>2026-05-01T15:03:45.033Z</time></trkpt><trkpt lat="44.23336675752892" lon="11.339025436879627"><ele>799.5</ele><time>2026-05-01T15:03:46.033Z</time></trkpt><trkpt lat="44.23329563905513" lon="11.339076391662408"><ele>800.0</ele><time>2026-05-01T15:03:47.033Z</time></trkpt><trkpt lat="44.233218451454505" lon="11.33910072321823"><ele>800.5</ele><time>2026-05-01T15:03:48.033Z</time></trkpt><trkpt lat="44.23314161391302" lon="11.339097672840516"><ele>801.0</ele><time>2026-05-01T15:03:49.033Z</time></trkpt><trkpt lat="44.2330837128052" lon="11.339018966307576"><ele>797.1666666666666</ele><time>2026-05-01T15:03:50.033Z</time></trkpt><trkpt lat="44.233033608915925" lon="11.338932054850007"><ele>793.3333333333333</ele><time>2026-05-01T15:03:51.034Z</time></trkpt><trkpt lat="44.23299780995434" lon="11.338830452399787"><ele>789.5</ele><time>2026-05-01T15:03:52.034Z</time></trkpt><trkpt lat="44.23298494709308" lon="11.338720501770208"><ele>785.6666666666666</ele><time>2026-05-01T15:03:53.033Z</time></trkpt><trkpt lat="44.23299086929163" lon="11.338574169417837"><ele>781.8333333333333</ele><time>2026-05-01T15:03:54.033Z</time></trkpt><trkpt lat="44.23300477469078" lon="11.338431651108342"><ele>778.0</ele><time>2026-05-01T15:03:55.033Z</time></trkpt><trkpt lat="44.23300619759332" lon="11.338281611965957"><ele>777.0</ele><time>2026-05-01T15:03:56.033Z</time></trkpt><trkpt lat="44.23297298308056" lon="11.33813383925205"><ele>776.0</ele><time>2026-05-01T15:03:57.033Z</time></trkpt><trkpt lat="44.23294614274762" lon="11.33798627851932"><ele>775.0</ele><time>2026-05-01T15:03:58.033Z</time></trkpt><trkpt lat="44.23290311599132" lon="11.337843638986781"><ele>774.0</ele><time>2026-05-01T15:03:59.033Z</time></trkpt><trkpt lat="44.23284991549521" lon="11.337713139248672"><ele>773.0</ele><time>2026-05-01T15:04:00.033Z</time></trkpt><trkpt lat="44.2327966594649" lon="11.337588782537733"><ele>772.2</ele><time>2026-05-01T15:04:01.033Z</time></trkpt><trkpt lat="44.23273732985012" lon="11.337478474301465"><ele>771.4</ele><time>2026-05-01T15:04:02.033Z</time></trkpt><trkpt lat="44.23266710506621" lon="11.337384198246593"><ele>770.6</ele><time>2026-05-01T15:04:03.034Z</time></trkpt><trkpt lat="44.23258446715764" lon="11.337304207392693"><ele>769.8000000000001</ele><time>2026-05-01T15:04:04.034Z</time></trkpt><trkpt lat="44.23248874462496" lon="11.337254465522243"><ele>769.0</ele><time>2026-05-01T15:04:05.034Z</time></trkpt><trkpt lat="44.23238618183083" lon="11.337216958308542"><ele>768.9999999999999</ele><time>2026-05-01T15:04:06.034Z</time></trkpt><trkpt lat="44.23228362173485" lon="11.337191261077873"><ele>769.0</ele><time>2026-05-01T15:04:07.034Z</time></trkpt><trkpt lat="44.23218777563272" lon="11.337179285259483"><ele>769.0</ele><time>2026-05-01T15:04:08.034Z</time></trkpt><trkpt lat="44.232105611226146" lon="11.337152547442066"><ele>769.0</ele><time>2026-05-01T15:04:09.034Z</time></trkpt><trkpt lat="44.23202832091905" lon="11.33718776165004"><ele>768.9999999999999</ele><time>2026-05-01T15:04:11.034Z</time></trkpt><trkpt lat="44.23199487289218" lon="11.337265776778173"><ele>769.0</ele><time>2026-05-01T15:04:12.034Z</time></trkpt><trkpt lat="44.23197008954086" lon="11.33736092804896"><ele>766.0</ele><time>2026-05-01T15:04:13.034Z</time></trkpt><trkpt lat="44.2319419505638" lon="11.337478430433272"><ele>763.0</ele><time>2026-05-01T15:04:14.034Z</time></trkpt><trkpt lat="44.231909499537274" lon="11.33760664259754"><ele>760.0</ele><time>2026-05-01T15:04:15.034Z</time></trkpt><trkpt lat="44.23187072664918" lon="11.337753710139621"><ele>757.0</ele><time>2026-05-01T15:04:16.034Z</time></trkpt><trkpt lat="44.231828242176455" lon="11.33791611103771"><ele>754.0</ele><time>2026-05-01T15:04:17.034Z</time></trkpt><trkpt lat="44.231791067152" lon="11.338058677143724"><ele>752.2</ele><time>2026-05-01T15:04:18.034Z</time></trkpt><trkpt lat="44.23175428608962" lon="11.33819168723857"><ele>750.4000000000001</ele><time>2026-05-01T15:04:19.034Z</time></trkpt><trkpt lat="44.23172074942153" lon="11.33830944204023"><ele>748.6</ele><time>2026-05-01T15:04:20.034Z</time></trkpt><trkpt lat="44.23170176248901" lon="11.338416860283482"><ele>746.8</ele><time>2026-05-01T15:04:21.034Z</time></trkpt><trkpt lat="44.23162026173648" lon="11.338505679666525"><ele>745.0</ele><time>2026-05-01T15:04:23.034Z</time></trkpt><trkpt lat="44.23153521250712" lon="11.338590256122652"><ele>745.0</ele><time>2026-05-01T15:04:25.034Z</time></trkpt><trkpt lat="44.23148405644535" lon="11.338644488103023"><ele>745.0</ele><time>2026-05-01T15:04:26.034Z</time></trkpt><trkpt lat="44.23142946010591" lon="11.338702368071058"><ele>745.0</ele><time>2026-05-01T15:04:27.034Z</time></trkpt><trkpt lat="44.231371114575914" lon="11.338764694415179"><ele>745.0</ele><time>2026-05-01T15:04:28.034Z</time></trkpt><trkpt lat="44.231309591907504" lon="11.338836195139983"><ele>745.0</ele><time>2026-05-01T15:04:29.034Z</time></trkpt><trkpt lat="44.231252855782984" lon="11.338905445363904"><ele>745.0</ele><time>2026-05-01T15:04:30.034Z</time></trkpt><trkpt lat="44.23119653221677" lon="11.33897465684885"><ele>745.0</ele><time>2026-05-01T15:04:31.034Z</time></trkpt><trkpt lat="44.23114243037726" lon="11.339041138512647"><ele>741.5714285714286</ele><time>2026-05-01T15:04:32.034Z</time></trkpt><trkpt lat="44.231092107276424" lon="11.339102976419616"><ele>738.1428571428571</ele><time>2026-05-01T15:04:33.034Z</time></trkpt><trkpt lat="44.23103925186308" lon="11.339165211160058"><ele>734.7142857142858</ele><time>2026-05-01T15:04:34.034Z</time></trkpt><trkpt lat="44.23098144069174" lon="11.33922943869513"><ele>731.2857142857142</ele><time>2026-05-01T15:04:35.034Z</time></trkpt><trkpt lat="44.230916314722464" lon="11.339282472074688"><ele>727.8571428571429</ele><time>2026-05-01T15:04:36.034Z</time></trkpt><trkpt lat="44.230847148298515" lon="11.339324477235113"><ele>724.4285714285714</ele><time>2026-05-01T15:04:37.034Z</time></trkpt><trkpt lat="44.2307612095408" lon="11.33934775816783"><ele>721.0</ele><time>2026-05-01T15:04:38.034Z</time></trkpt><trkpt lat="44.2306714497512" lon="11.339395049459732"><ele>717.8333333333334</ele><time>2026-05-01T15:04:39.034Z</time></trkpt><trkpt lat="44.23058542496352" lon="11.339443653291404"><ele>714.6666666666667</ele><time>2026-05-01T15:04:40.034Z</time></trkpt><trkpt lat="44.230513112976624" lon="11.339484509417929"><ele>711.5</ele><time>2026-05-01T15:04:41.034Z</time></trkpt><trkpt lat="44.23045047645866" lon="11.339520050351936"><ele>708.3333333333334</ele><time>2026-05-01T15:04:42.034Z</time></trkpt><trkpt lat="44.23038940128411" lon="11.339556882426722"><ele>705.1666666666666</ele><time>2026-05-01T15:04:43.035Z</time></trkpt><trkpt lat="44.230313145582684" lon="11.339603558505635"><ele>702.0</ele><time>2026-05-01T15:04:44.035Z</time></trkpt><trkpt lat="44.23023635184572" lon="11.339660911146407"><ele>702.0</ele><time>2026-05-01T15:04:45.035Z</time></trkpt><trkpt lat="44.23017377849716" lon="11.339728657117755"><ele>702.0</ele><time>2026-05-01T15:04:46.035Z</time></trkpt><trkpt lat="44.23008781577523" lon="11.33981379265903"><ele>702.0</ele><time>2026-05-01T15:04:48.035Z</time></trkpt><trkpt lat="44.22998151305753" lon="11.339795381615302"><ele>702.0</ele><time>2026-05-01T15:04:50.035Z</time></trkpt><trkpt lat="44.22992552355168" lon="11.33975243409404"><ele>702.0</ele><time>2026-05-01T15:04:51.035Z</time></trkpt><trkpt lat="44.2298735305002" lon="11.339609513272679"><ele>702.0</ele><time>2026-05-01T15:04:53.035Z</time></trkpt><trkpt lat="44.22982492442008" lon="11.33953097957379"><ele>702.0</ele><time>2026-05-01T15:04:55.035Z</time></trkpt><trkpt lat="44.229731557395404" lon="11.339468014974067"><ele>702.0</ele><time>2026-05-01T15:04:58.035Z</time></trkpt><trkpt lat="44.229642705362565" lon="11.33943051123827"><ele>702.0</ele><time>2026-05-01T15:05:00.035Z</time></trkpt><trkpt lat="44.229524085857314" lon="11.339395330163507"><ele>702.0</ele><time>2026-05-01T15:05:02.035Z</time></trkpt><trkpt lat="44.22941797812794" lon="11.339382236615071"><ele>700.0</ele><time>2026-05-01T15:05:04.035Z</time></trkpt><trkpt lat="44.229292436800655" lon="11.339405545278938"><ele>698.0</ele><time>2026-05-01T15:05:06.035Z</time></trkpt><trkpt lat="44.22922358283852" lon="11.339443161752376"><ele>696.0</ele><time>2026-05-01T15:05:07.035Z</time></trkpt><trkpt lat="44.22916995274217" lon="11.339525247641259"><ele>694.0</ele><time>2026-05-01T15:05:08.035Z</time></trkpt><trkpt lat="44.22911062684564" lon="11.339580693039814"><ele>692.0</ele><time>2026-05-01T15:05:09.035Z</time></trkpt><trkpt lat="44.22905551719781" lon="11.339650100147129"><ele>690.0</ele><time>2026-05-01T15:05:10.035Z</time></trkpt><trkpt lat="44.22900335628549" lon="11.339731368214464"><ele>689.8571428571429</ele><time>2026-05-01T15:05:11.035Z</time></trkpt><trkpt lat="44.228959302454776" lon="11.339808827082482"><ele>689.7142857142857</ele><time>2026-05-01T15:05:12.035Z</time></trkpt><trkpt lat="44.228927234819004" lon="11.339885478120346"><ele>689.5714285714286</ele><time>2026-05-01T15:05:13.035Z</time></trkpt><trkpt lat="44.22890815243508" lon="11.339972322462966"><ele>689.4285714285714</ele><time>2026-05-01T15:05:14.035Z</time></trkpt><trkpt lat="44.22890521907364" lon="11.340064175034904"><ele>689.2857142857143</ele><time>2026-05-01T15:05:15.035Z</time></trkpt><trkpt lat="44.2289234314344" lon="11.340167524472381"><ele>689.1428571428571</ele><time>2026-05-01T15:05:16.035Z</time></trkpt><trkpt lat="44.228951796734364" lon="11.340268830406252"><ele>689.0</ele><time>2026-05-01T15:05:17.035Z</time></trkpt><trkpt lat="44.22900009793887" lon="11.34035243041876"><ele>686.8333333333333</ele><time>2026-05-01T15:05:18.035Z</time></trkpt><trkpt lat="44.22904816491679" lon="11.340448287870128"><ele>684.6666666666666</ele><time>2026-05-01T15:05:19.035Z</time></trkpt><trkpt lat="44.229121751243085" lon="11.34050785598589"><ele>682.5</ele><time>2026-05-01T15:05:20.035Z</time></trkpt><trkpt lat="44.22920984298895" lon="11.340549117469926"><ele>680.3333333333334</ele><time>2026-05-01T15:05:21.035Z</time></trkpt><trkpt lat="44.22928842115267" lon="11.340580701674696"><ele>678.1666666666667</ele><time>2026-05-01T15:05:22.035Z</time></trkpt><trkpt lat="44.229358632085706" lon="11.340603338465035"><ele>676.0</ele><time>2026-05-01T15:05:23.035Z</time></trkpt><trkpt lat="44.22941060257068" lon="11.340661277152465"><ele>673.0</ele><time>2026-05-01T15:05:24.036Z</time></trkpt><trkpt lat="44.22943478464017" lon="11.340759171200654"><ele>670.0</ele><time>2026-05-01T15:05:25.036Z</time></trkpt><trkpt lat="44.229455714595346" lon="11.340869111748088"><ele>667.0</ele><time>2026-05-01T15:05:26.036Z</time></trkpt><trkpt lat="44.22948615968516" lon="11.340991763421716"><ele>664.0</ele><time>2026-05-01T15:05:27.036Z</time></trkpt><trkpt lat="44.229492818098485" lon="11.341127511301112"><ele>661.0</ele><time>2026-05-01T15:05:28.036Z</time></trkpt><trkpt lat="44.22949263398276" lon="11.341254476091072"><ele>658.0</ele><time>2026-05-01T15:05:29.036Z</time></trkpt><trkpt lat="44.22948164663677" lon="11.341356396189518"><ele>655.0</ele><time>2026-05-01T15:05:30.036Z</time></trkpt><trkpt lat="44.229450024257936" lon="11.341443760212222"><ele>652.0</ele><time>2026-05-01T15:05:31.036Z</time></trkpt><trkpt lat="44.22939686130154" lon="11.34151700083281"><ele>649.0</ele><time>2026-05-01T15:05:32.036Z</time></trkpt><trkpt lat="44.22932577859314" lon="11.341560461019208"><ele>646.0</ele><time>2026-05-01T15:05:33.036Z</time></trkpt><trkpt lat="44.22924165514216" lon="11.341607438531287"><ele>643.0</ele><time>2026-05-01T15:05:34.036Z</time></trkpt><trkpt lat="44.22914427042725" lon="11.341664688694864"><ele>640.0</ele><time>2026-05-01T15:05:35.036Z</time></trkpt><trkpt lat="44.229040969900396" lon="11.341719631064796"><ele>640.0</ele><time>2026-05-01T15:05:36.036Z</time></trkpt><trkpt lat="44.22894473866888" lon="11.341773899651736"><ele>640.0</ele><time>2026-05-01T15:05:37.036Z</time></trkpt><trkpt lat="44.22887233715431" lon="11.341833692768182"><ele>640.0</ele><time>2026-05-01T15:05:38.036Z</time></trkpt><trkpt lat="44.22879889166965" lon="11.341909610437078"><ele>640.0</ele><time>2026-05-01T15:05:39.036Z</time></trkpt><trkpt lat="44.22875846315575" lon="11.342051704928673"><ele>640.0</ele><time>2026-05-01T15:05:40.036Z</time></trkpt><trkpt lat="44.228709292803764" lon="11.342202018754572"><ele>635.75</ele><time>2026-05-01T15:05:41.036Z</time></trkpt><trkpt lat="44.22866094017124" lon="11.342346888098312"><ele>631.5</ele><time>2026-05-01T15:05:42.036Z</time></trkpt><trkpt lat="44.228617140084324" lon="11.342502615993796"><ele>627.25</ele><time>2026-05-01T15:05:43.036Z</time></trkpt><trkpt lat="44.22857003964004" lon="11.342656442308213"><ele>623.0</ele><time>2026-05-01T15:05:44.036Z</time></trkpt><trkpt lat="44.22851871791165" lon="11.342817833735525"><ele>623.0</ele><time>2026-05-01T15:05:45.036Z</time></trkpt><trkpt lat="44.228476877571715" lon="11.342969252499389"><ele>623.0</ele><time>2026-05-01T15:05:46.036Z</time></trkpt><trkpt lat="44.22842073911068" lon="11.343108580226724"><ele>623.0</ele><time>2026-05-01T15:05:47.036Z</time></trkpt><trkpt lat="44.22837255112507" lon="11.343261902900014"><ele>623.0</ele><time>2026-05-01T15:05:48.036Z</time></trkpt><trkpt lat="44.22833608345779" lon="11.343426044761543"><ele>620.4</ele><time>2026-05-01T15:05:49.037Z</time></trkpt><trkpt lat="44.22827507923044" lon="11.34357671122379"><ele>617.8</ele><time>2026-05-01T15:05:50.037Z</time></trkpt><trkpt lat="44.22820143144499" lon="11.343704734357122"><ele>615.2</ele><time>2026-05-01T15:05:51.037Z</time></trkpt><trkpt lat="44.22817724797907" lon="11.34384609197991"><ele>612.6</ele><time>2026-05-01T15:05:52.037Z</time></trkpt><trkpt lat="44.22815709308856" lon="11.343975539922946"><ele>610.0</ele><time>2026-05-01T15:05:53.038Z</time></trkpt><trkpt lat="44.22815741345574" lon="11.34408760094581"><ele>608.6666666666667</ele><time>2026-05-01T15:05:54.038Z</time></trkpt><trkpt lat="44.22818099973645" lon="11.34417971265481"><ele>607.3333333333334</ele><time>2026-05-01T15:05:55.037Z</time></trkpt><trkpt lat="44.22822891905212" lon="11.344277956505755"><ele>606.0</ele><time>2026-05-01T15:05:56.037Z</time></trkpt><trkpt lat="44.22829640658072" lon="11.34435519147088"><ele>604.6666666666666</ele><time>2026-05-01T15:05:57.037Z</time></trkpt><trkpt lat="44.228366775889896" lon="11.344403764426838"><ele>603.3333333333333</ele><time>2026-05-01T15:05:58.038Z</time></trkpt><trkpt lat="44.22844827342736" lon="11.344471027622463"><ele>602.0</ele><time>2026-05-01T15:06:00.037Z</time></trkpt><trkpt lat="44.22842675077661" lon="11.34457051532774"><ele>602.0</ele><time>2026-05-01T15:06:02.038Z</time></trkpt><trkpt lat="44.228379123467064" lon="11.344630917039963"><ele>602.0</ele><time>2026-05-01T15:06:03.038Z</time></trkpt><trkpt lat="44.228337147829905" lon="11.344704069283015"><ele>602.0</ele><time>2026-05-01T15:06:04.038Z</time></trkpt><trkpt lat="44.22830598612376" lon="11.344789711422967"><ele>602.0</ele><time>2026-05-01T15:06:05.038Z</time></trkpt><trkpt lat="44.22828384150504" lon="11.344883948587235"><ele>602.0</ele><time>2026-05-01T15:06:06.038Z</time></trkpt><trkpt lat="44.22826104671153" lon="11.344988360857107"><ele>602.0</ele><time>2026-05-01T15:06:07.038Z</time></trkpt><trkpt lat="44.22823899029543" lon="11.34509596261885"><ele>602.0</ele><time>2026-05-01T15:06:08.038Z</time></trkpt><trkpt lat="44.22821841664389" lon="11.345211040611218"><ele>600.6666666666666</ele><time>2026-05-01T15:06:09.038Z</time></trkpt><trkpt lat="44.22819670686612" lon="11.345333687985935"><ele>599.3333333333333</ele><time>2026-05-01T15:06:10.038Z</time></trkpt><trkpt lat="44.228176205988866" lon="11.34545161330784"><ele>598.0</ele><time>2026-05-01T15:06:11.038Z</time></trkpt><trkpt lat="44.22815589227473" lon="11.345552191062533"><ele>596.6666666666666</ele><time>2026-05-01T15:06:12.038Z</time></trkpt><trkpt lat="44.228125418254365" lon="11.34569863843831"><ele>595.3333333333334</ele><time>2026-05-01T15:06:14.038Z</time></trkpt><trkpt lat="44.22810877865304" lon="11.34579998014922"><ele>594.0</ele><time>2026-05-01T15:06:16.038Z</time></trkpt><trkpt lat="44.228084392932914" lon="11.345917666465924"><ele>581.0</ele><time>2026-05-01T15:06:18.038Z</time></trkpt><trkpt lat="44.228077718701854" lon="11.345800630639642"><ele>581.0</ele><time>2026-05-01T15:07:39.04Z</time></trkpt></trkseg></trk></gpx>